<?xml version="1.0" encoding="UTF-8"?>
<gpx version="1.1" creator="RoadTrp.org" xmlns="http://www.topografix.com/GPX/1/1">
<trk><name>Wolftever Creek Greenway — Collegedale Greenway — August 2, 2026</name><trkseg>
<trkpt lat="35.060252" lon="-85.070605"><ele>240.8</ele><time>2026-08-02T18:41:37Z</time></trkpt>
<trkpt lat="35.060214" lon="-85.070595"><ele>240.2</ele><time>2026-08-02T18:41:40Z</time></trkpt>
<trkpt lat="35.060186" lon="-85.070587"><ele>240.8</ele><time>2026-08-02T18:41:42Z</time></trkpt>
<trkpt lat="35.060155" lon="-85.070576"><ele>240.8</ele><time>2026-08-02T18:41:44Z</time></trkpt>
<trkpt lat="35.060127" lon="-85.07057"><ele>240.5</ele><time>2026-08-02T18:41:46Z</time></trkpt>
<trkpt lat="35.060089" lon="-85.07056"><ele>240.2</ele><time>2026-08-02T18:41:49Z</time></trkpt>
<trkpt lat="35.060054" lon="-85.070553"><ele>239.9</ele><time>2026-08-02T18:41:52Z</time></trkpt>
<trkpt lat="35.060017" lon="-85.070549"><ele>239.0</ele><time>2026-08-02T18:41:55Z</time></trkpt>
<trkpt lat="35.059977" lon="-85.070537"><ele>239.0</ele><time>2026-08-02T18:41:58Z</time></trkpt>
<trkpt lat="35.059951" lon="-85.070527"><ele>239.0</ele><time>2026-08-02T18:42:00Z</time></trkpt>
<trkpt lat="35.059931" lon="-85.070501"><ele>238.7</ele><time>2026-08-02T18:42:02Z</time></trkpt>
<trkpt lat="35.059914" lon="-85.070472"><ele>239.3</ele><time>2026-08-02T18:42:04Z</time></trkpt>
<trkpt lat="35.059893" lon="-85.07045"><ele>238.4</ele><time>2026-08-02T18:42:06Z</time></trkpt>
<trkpt lat="35.059869" lon="-85.070431"><ele>238.4</ele><time>2026-08-02T18:42:08Z</time></trkpt>
<trkpt lat="35.059835" lon="-85.070405"><ele>238.7</ele><time>2026-08-02T18:42:11Z</time></trkpt>
<trkpt lat="35.059796" lon="-85.070396"><ele>239.0</ele><time>2026-08-02T18:42:14Z</time></trkpt>
<trkpt lat="35.059757" lon="-85.070395"><ele>239.3</ele><time>2026-08-02T18:42:17Z</time></trkpt>
<trkpt lat="35.059721" lon="-85.070383"><ele>239.3</ele><time>2026-08-02T18:42:20Z</time></trkpt>
<trkpt lat="35.059691" lon="-85.070356"><ele>239.3</ele><time>2026-08-02T18:42:23Z</time></trkpt>
<trkpt lat="35.059667" lon="-85.070322"><ele>239.3</ele><time>2026-08-02T18:42:26Z</time></trkpt>
<trkpt lat="35.059645" lon="-85.070284"><ele>239.0</ele><time>2026-08-02T18:42:29Z</time></trkpt>
<trkpt lat="35.059618" lon="-85.070253"><ele>238.7</ele><time>2026-08-02T18:42:32Z</time></trkpt>
<trkpt lat="35.059583" lon="-85.07023"><ele>238.7</ele><time>2026-08-02T18:42:35Z</time></trkpt>
<trkpt lat="35.059548" lon="-85.070214"><ele>238.7</ele><time>2026-08-02T18:42:38Z</time></trkpt>
<trkpt lat="35.059509" lon="-85.070201"><ele>239.0</ele><time>2026-08-02T18:42:41Z</time></trkpt>
<trkpt lat="35.059474" lon="-85.070184"><ele>239.3</ele><time>2026-08-02T18:42:44Z</time></trkpt>
<trkpt lat="35.059442" lon="-85.070162"><ele>239.3</ele><time>2026-08-02T18:42:47Z</time></trkpt>
<trkpt lat="35.059416" lon="-85.070136"><ele>239.6</ele><time>2026-08-02T18:42:50Z</time></trkpt>
<trkpt lat="35.059393" lon="-85.070098"><ele>240.2</ele><time>2026-08-02T18:42:53Z</time></trkpt>
<trkpt lat="35.059373" lon="-85.070058"><ele>240.2</ele><time>2026-08-02T18:42:56Z</time></trkpt>
<trkpt lat="35.059363" lon="-85.070026"><ele>240.2</ele><time>2026-08-02T18:42:58Z</time></trkpt>
<trkpt lat="35.059348" lon="-85.069984"><ele>239.9</ele><time>2026-08-02T18:43:01Z</time></trkpt>
<trkpt lat="35.059329" lon="-85.069942"><ele>240.2</ele><time>2026-08-02T18:43:04Z</time></trkpt>
<trkpt lat="35.059315" lon="-85.069912"><ele>240.5</ele><time>2026-08-02T18:43:06Z</time></trkpt>
<trkpt lat="35.059299" lon="-85.069884"><ele>240.5</ele><time>2026-08-02T18:43:08Z</time></trkpt>
<trkpt lat="35.059266" lon="-85.069852"><ele>240.5</ele><time>2026-08-02T18:43:11Z</time></trkpt>
<trkpt lat="35.059243" lon="-85.069833"><ele>240.5</ele><time>2026-08-02T18:43:13Z</time></trkpt>
<trkpt lat="35.059209" lon="-85.069809"><ele>240.8</ele><time>2026-08-02T18:43:16Z</time></trkpt>
<trkpt lat="35.059172" lon="-85.069787"><ele>240.5</ele><time>2026-08-02T18:43:19Z</time></trkpt>
<trkpt lat="35.059139" lon="-85.069762"><ele>240.2</ele><time>2026-08-02T18:43:22Z</time></trkpt>
<trkpt lat="35.059109" lon="-85.069733"><ele>239.3</ele><time>2026-08-02T18:43:25Z</time></trkpt>
<trkpt lat="35.059085" lon="-85.069706"><ele>239.3</ele><time>2026-08-02T18:43:27Z</time></trkpt>
<trkpt lat="35.059059" lon="-85.06968"><ele>239.3</ele><time>2026-08-02T18:43:29Z</time></trkpt>
<trkpt lat="35.059036" lon="-85.069654"><ele>239.0</ele><time>2026-08-02T18:43:31Z</time></trkpt>
<trkpt lat="35.059018" lon="-85.069618"><ele>239.0</ele><time>2026-08-02T18:43:33Z</time></trkpt>
<trkpt lat="35.058997" lon="-85.069585"><ele>239.3</ele><time>2026-08-02T18:43:35Z</time></trkpt>
<trkpt lat="35.058971" lon="-85.069561"><ele>239.3</ele><time>2026-08-02T18:43:37Z</time></trkpt>
<trkpt lat="35.058941" lon="-85.069541"><ele>239.0</ele><time>2026-08-02T18:43:39Z</time></trkpt>
<trkpt lat="35.05891" lon="-85.069525"><ele>239.0</ele><time>2026-08-02T18:43:41Z</time></trkpt>
<trkpt lat="35.058878" lon="-85.069518"><ele>239.0</ele><time>2026-08-02T18:43:43Z</time></trkpt>
<trkpt lat="35.058847" lon="-85.069511"><ele>238.7</ele><time>2026-08-02T18:43:45Z</time></trkpt>
<trkpt lat="35.058817" lon="-85.069506"><ele>238.7</ele><time>2026-08-02T18:43:47Z</time></trkpt>
<trkpt lat="35.058786" lon="-85.069499"><ele>238.7</ele><time>2026-08-02T18:43:49Z</time></trkpt>
<trkpt lat="35.058755" lon="-85.069496"><ele>239.0</ele><time>2026-08-02T18:43:51Z</time></trkpt>
<trkpt lat="35.058724" lon="-85.069492"><ele>238.7</ele><time>2026-08-02T18:43:53Z</time></trkpt>
<trkpt lat="35.058691" lon="-85.069491"><ele>238.7</ele><time>2026-08-02T18:43:55Z</time></trkpt>
<trkpt lat="35.05866" lon="-85.069497"><ele>239.0</ele><time>2026-08-02T18:43:57Z</time></trkpt>
<trkpt lat="35.05863" lon="-85.069506"><ele>238.7</ele><time>2026-08-02T18:43:59Z</time></trkpt>
<trkpt lat="35.058599" lon="-85.069514"><ele>239.0</ele><time>2026-08-02T18:44:01Z</time></trkpt>
<trkpt lat="35.05857" lon="-85.069517"><ele>238.7</ele><time>2026-08-02T18:44:03Z</time></trkpt>
<trkpt lat="35.058541" lon="-85.069517"><ele>239.0</ele><time>2026-08-02T18:44:05Z</time></trkpt>
<trkpt lat="35.058513" lon="-85.069517"><ele>239.0</ele><time>2026-08-02T18:44:07Z</time></trkpt>
<trkpt lat="35.058485" lon="-85.069519"><ele>239.0</ele><time>2026-08-02T18:44:09Z</time></trkpt>
<trkpt lat="35.058445" lon="-85.069517"><ele>239.0</ele><time>2026-08-02T18:44:12Z</time></trkpt>
<trkpt lat="35.058416" lon="-85.069517"><ele>239.3</ele><time>2026-08-02T18:44:14Z</time></trkpt>
<trkpt lat="35.058375" lon="-85.069517"><ele>239.3</ele><time>2026-08-02T18:44:17Z</time></trkpt>
<trkpt lat="35.058346" lon="-85.069519"><ele>239.6</ele><time>2026-08-02T18:44:19Z</time></trkpt>
<trkpt lat="35.058317" lon="-85.069517"><ele>239.3</ele><time>2026-08-02T18:44:21Z</time></trkpt>
<trkpt lat="35.058287" lon="-85.069516"><ele>239.3</ele><time>2026-08-02T18:44:23Z</time></trkpt>
<trkpt lat="35.058257" lon="-85.069523"><ele>239.3</ele><time>2026-08-02T18:44:25Z</time></trkpt>
<trkpt lat="35.05823" lon="-85.069533"><ele>239.6</ele><time>2026-08-02T18:44:27Z</time></trkpt>
<trkpt lat="35.058203" lon="-85.06954"><ele>239.9</ele><time>2026-08-02T18:44:29Z</time></trkpt>
<trkpt lat="35.058164" lon="-85.06955"><ele>240.2</ele><time>2026-08-02T18:44:32Z</time></trkpt>
<trkpt lat="35.058126" lon="-85.069564"><ele>239.9</ele><time>2026-08-02T18:44:35Z</time></trkpt>
<trkpt lat="35.058087" lon="-85.069567"><ele>239.6</ele><time>2026-08-02T18:44:38Z</time></trkpt>
<trkpt lat="35.058046" lon="-85.069578"><ele>240.2</ele><time>2026-08-02T18:44:41Z</time></trkpt>
<trkpt lat="35.058016" lon="-85.069585"><ele>240.2</ele><time>2026-08-02T18:44:43Z</time></trkpt>
<trkpt lat="35.057987" lon="-85.069592"><ele>240.5</ele><time>2026-08-02T18:44:45Z</time></trkpt>
<trkpt lat="35.057959" lon="-85.069598"><ele>240.8</ele><time>2026-08-02T18:44:47Z</time></trkpt>
<trkpt lat="35.057929" lon="-85.069602"><ele>240.5</ele><time>2026-08-02T18:44:49Z</time></trkpt>
<trkpt lat="35.0579" lon="-85.069607"><ele>240.8</ele><time>2026-08-02T18:44:51Z</time></trkpt>
<trkpt lat="35.057859" lon="-85.069615"><ele>241.1</ele><time>2026-08-02T18:44:54Z</time></trkpt>
<trkpt lat="35.057819" lon="-85.069619"><ele>240.8</ele><time>2026-08-02T18:44:57Z</time></trkpt>
<trkpt lat="35.057791" lon="-85.069621"><ele>241.4</ele><time>2026-08-02T18:44:59Z</time></trkpt>
<trkpt lat="35.057752" lon="-85.069621"><ele>241.1</ele><time>2026-08-02T18:45:02Z</time></trkpt>
<trkpt lat="35.057725" lon="-85.069627"><ele>240.8</ele><time>2026-08-02T18:45:04Z</time></trkpt>
<trkpt lat="35.057685" lon="-85.069635"><ele>241.4</ele><time>2026-08-02T18:45:07Z</time></trkpt>
<trkpt lat="35.057656" lon="-85.069641"><ele>242.0</ele><time>2026-08-02T18:45:09Z</time></trkpt>
<trkpt lat="35.057627" lon="-85.069643"><ele>241.4</ele><time>2026-08-02T18:45:11Z</time></trkpt>
<trkpt lat="35.057598" lon="-85.069647"><ele>241.7</ele><time>2026-08-02T18:45:13Z</time></trkpt>
<trkpt lat="35.057567" lon="-85.069655"><ele>241.7</ele><time>2026-08-02T18:45:15Z</time></trkpt>
<trkpt lat="35.05754" lon="-85.069662"><ele>241.7</ele><time>2026-08-02T18:45:17Z</time></trkpt>
<trkpt lat="35.057511" lon="-85.069669"><ele>242.3</ele><time>2026-08-02T18:45:19Z</time></trkpt>
<trkpt lat="35.057483" lon="-85.069678"><ele>242.3</ele><time>2026-08-02T18:45:21Z</time></trkpt>
<trkpt lat="35.057442" lon="-85.06969"><ele>242.0</ele><time>2026-08-02T18:45:24Z</time></trkpt>
<trkpt lat="35.05741" lon="-85.069697"><ele>242.0</ele><time>2026-08-02T18:45:26Z</time></trkpt>
<trkpt lat="35.057381" lon="-85.069704"><ele>242.0</ele><time>2026-08-02T18:45:28Z</time></trkpt>
<trkpt lat="35.057343" lon="-85.069713"><ele>241.7</ele><time>2026-08-02T18:45:31Z</time></trkpt>
<trkpt lat="35.057304" lon="-85.069725"><ele>241.7</ele><time>2026-08-02T18:45:34Z</time></trkpt>
<trkpt lat="35.057276" lon="-85.069735"><ele>241.7</ele><time>2026-08-02T18:45:36Z</time></trkpt>
<trkpt lat="35.057249" lon="-85.069748"><ele>241.7</ele><time>2026-08-02T18:45:38Z</time></trkpt>
<trkpt lat="35.057222" lon="-85.069762"><ele>242.0</ele><time>2026-08-02T18:45:40Z</time></trkpt>
<trkpt lat="35.057195" lon="-85.06977"><ele>241.7</ele><time>2026-08-02T18:45:42Z</time></trkpt>
<trkpt lat="35.057155" lon="-85.069782"><ele>241.7</ele><time>2026-08-02T18:45:45Z</time></trkpt>
<trkpt lat="35.057117" lon="-85.069789"><ele>241.4</ele><time>2026-08-02T18:45:48Z</time></trkpt>
<trkpt lat="35.057077" lon="-85.069794"><ele>241.4</ele><time>2026-08-02T18:45:51Z</time></trkpt>
<trkpt lat="35.05705" lon="-85.069796"><ele>240.8</ele><time>2026-08-02T18:45:53Z</time></trkpt>
<trkpt lat="35.05701" lon="-85.069808"><ele>241.1</ele><time>2026-08-02T18:45:56Z</time></trkpt>
<trkpt lat="35.056984" lon="-85.069816"><ele>241.1</ele><time>2026-08-02T18:45:58Z</time></trkpt>
<trkpt lat="35.056954" lon="-85.06982"><ele>241.4</ele><time>2026-08-02T18:46:00Z</time></trkpt>
<trkpt lat="35.056913" lon="-85.069824"><ele>241.1</ele><time>2026-08-02T18:46:03Z</time></trkpt>
<trkpt lat="35.056884" lon="-85.069831"><ele>240.8</ele><time>2026-08-02T18:46:05Z</time></trkpt>
<trkpt lat="35.056845" lon="-85.069842"><ele>241.1</ele><time>2026-08-02T18:46:08Z</time></trkpt>
<trkpt lat="35.056806" lon="-85.06985"><ele>241.4</ele><time>2026-08-02T18:46:11Z</time></trkpt>
<trkpt lat="35.056776" lon="-85.069853"><ele>241.4</ele><time>2026-08-02T18:46:13Z</time></trkpt>
<trkpt lat="35.056748" lon="-85.069858"><ele>241.7</ele><time>2026-08-02T18:46:15Z</time></trkpt>
<trkpt lat="35.05671" lon="-85.06987"><ele>241.7</ele><time>2026-08-02T18:46:18Z</time></trkpt>
<trkpt lat="35.056682" lon="-85.069878"><ele>241.4</ele><time>2026-08-02T18:46:20Z</time></trkpt>
<trkpt lat="35.056656" lon="-85.069889"><ele>241.4</ele><time>2026-08-02T18:46:22Z</time></trkpt>
<trkpt lat="35.056618" lon="-85.069908"><ele>241.4</ele><time>2026-08-02T18:46:25Z</time></trkpt>
<trkpt lat="35.056592" lon="-85.069922"><ele>241.4</ele><time>2026-08-02T18:46:27Z</time></trkpt>
<trkpt lat="35.056564" lon="-85.06993"><ele>241.4</ele><time>2026-08-02T18:46:29Z</time></trkpt>
<trkpt lat="35.056536" lon="-85.069938"><ele>241.4</ele><time>2026-08-02T18:46:31Z</time></trkpt>
<trkpt lat="35.056507" lon="-85.069943"><ele>241.1</ele><time>2026-08-02T18:46:33Z</time></trkpt>
<trkpt lat="35.056467" lon="-85.069955"><ele>240.8</ele><time>2026-08-02T18:46:36Z</time></trkpt>
<trkpt lat="35.05644" lon="-85.069965"><ele>241.4</ele><time>2026-08-02T18:46:38Z</time></trkpt>
<trkpt lat="35.056412" lon="-85.069969"><ele>241.1</ele><time>2026-08-02T18:46:40Z</time></trkpt>
<trkpt lat="35.056372" lon="-85.069975"><ele>241.4</ele><time>2026-08-02T18:46:43Z</time></trkpt>
<trkpt lat="35.056343" lon="-85.069978"><ele>241.4</ele><time>2026-08-02T18:46:45Z</time></trkpt>
<trkpt lat="35.056314" lon="-85.069979"><ele>241.4</ele><time>2026-08-02T18:46:47Z</time></trkpt>
<trkpt lat="35.056287" lon="-85.069983"><ele>240.8</ele><time>2026-08-02T18:46:49Z</time></trkpt>
<trkpt lat="35.056258" lon="-85.069986"><ele>240.8</ele><time>2026-08-02T18:46:51Z</time></trkpt>
<trkpt lat="35.056229" lon="-85.06999"><ele>240.8</ele><time>2026-08-02T18:46:53Z</time></trkpt>
<trkpt lat="35.056188" lon="-85.069992"><ele>240.8</ele><time>2026-08-02T18:46:56Z</time></trkpt>
<trkpt lat="35.05616" lon="-85.069998"><ele>240.8</ele><time>2026-08-02T18:46:58Z</time></trkpt>
<trkpt lat="35.056131" lon="-85.070003"><ele>240.8</ele><time>2026-08-02T18:47:00Z</time></trkpt>
<trkpt lat="35.056103" lon="-85.070005"><ele>240.2</ele><time>2026-08-02T18:47:02Z</time></trkpt>
<trkpt lat="35.056064" lon="-85.070012"><ele>239.9</ele><time>2026-08-02T18:47:05Z</time></trkpt>
<trkpt lat="35.056023" lon="-85.070019"><ele>240.2</ele><time>2026-08-02T18:47:08Z</time></trkpt>
<trkpt lat="35.055995" lon="-85.070023"><ele>239.9</ele><time>2026-08-02T18:47:10Z</time></trkpt>
<trkpt lat="35.055957" lon="-85.070033"><ele>239.3</ele><time>2026-08-02T18:47:13Z</time></trkpt>
<trkpt lat="35.05593" lon="-85.070043"><ele>239.3</ele><time>2026-08-02T18:47:15Z</time></trkpt>
<trkpt lat="35.055893" lon="-85.07006"><ele>239.6</ele><time>2026-08-02T18:47:18Z</time></trkpt>
<trkpt lat="35.055854" lon="-85.070076"><ele>240.2</ele><time>2026-08-02T18:47:21Z</time></trkpt>
<trkpt lat="35.055826" lon="-85.070086"><ele>240.2</ele><time>2026-08-02T18:47:23Z</time></trkpt>
<trkpt lat="35.0558" lon="-85.070098"><ele>240.5</ele><time>2026-08-02T18:47:25Z</time></trkpt>
<trkpt lat="35.055771" lon="-85.070108"><ele>240.5</ele><time>2026-08-02T18:47:27Z</time></trkpt>
<trkpt lat="35.055743" lon="-85.070114"><ele>240.5</ele><time>2026-08-02T18:47:29Z</time></trkpt>
<trkpt lat="35.055714" lon="-85.070121"><ele>240.5</ele><time>2026-08-02T18:47:31Z</time></trkpt>
<trkpt lat="35.055685" lon="-85.070125"><ele>240.8</ele><time>2026-08-02T18:47:33Z</time></trkpt>
<trkpt lat="35.055656" lon="-85.070129"><ele>241.1</ele><time>2026-08-02T18:47:35Z</time></trkpt>
<trkpt lat="35.055626" lon="-85.070131"><ele>240.8</ele><time>2026-08-02T18:47:37Z</time></trkpt>
<trkpt lat="35.055595" lon="-85.070133"><ele>240.8</ele><time>2026-08-02T18:47:39Z</time></trkpt>
<trkpt lat="35.055565" lon="-85.070136"><ele>240.5</ele><time>2026-08-02T18:47:41Z</time></trkpt>
<trkpt lat="35.055535" lon="-85.070141"><ele>240.8</ele><time>2026-08-02T18:47:43Z</time></trkpt>
<trkpt lat="35.055505" lon="-85.07015"><ele>240.8</ele><time>2026-08-02T18:47:45Z</time></trkpt>
<trkpt lat="35.055465" lon="-85.070162"><ele>241.4</ele><time>2026-08-02T18:47:48Z</time></trkpt>
<trkpt lat="35.055435" lon="-85.070169"><ele>241.7</ele><time>2026-08-02T18:47:50Z</time></trkpt>
<trkpt lat="35.055405" lon="-85.070175"><ele>241.7</ele><time>2026-08-02T18:47:52Z</time></trkpt>
<trkpt lat="35.055375" lon="-85.070185"><ele>242.0</ele><time>2026-08-02T18:47:54Z</time></trkpt>
<trkpt lat="35.055348" lon="-85.070193"><ele>242.0</ele><time>2026-08-02T18:47:56Z</time></trkpt>
<trkpt lat="35.055321" lon="-85.070201"><ele>242.0</ele><time>2026-08-02T18:47:58Z</time></trkpt>
<trkpt lat="35.055292" lon="-85.070206"><ele>241.4</ele><time>2026-08-02T18:48:00Z</time></trkpt>
<trkpt lat="35.05526" lon="-85.070212"><ele>241.7</ele><time>2026-08-02T18:48:02Z</time></trkpt>
<trkpt lat="35.055229" lon="-85.070224"><ele>241.7</ele><time>2026-08-02T18:48:04Z</time></trkpt>
<trkpt lat="35.0552" lon="-85.070234"><ele>241.7</ele><time>2026-08-02T18:48:06Z</time></trkpt>
<trkpt lat="35.05517" lon="-85.070249"><ele>241.4</ele><time>2026-08-02T18:48:08Z</time></trkpt>
<trkpt lat="35.05514" lon="-85.070261"><ele>240.8</ele><time>2026-08-02T18:48:10Z</time></trkpt>
<trkpt lat="35.055113" lon="-85.070278"><ele>240.5</ele><time>2026-08-02T18:48:12Z</time></trkpt>
<trkpt lat="35.055088" lon="-85.070296"><ele>240.2</ele><time>2026-08-02T18:48:14Z</time></trkpt>
<trkpt lat="35.055063" lon="-85.070315"><ele>240.5</ele><time>2026-08-02T18:48:16Z</time></trkpt>
<trkpt lat="35.055041" lon="-85.070337"><ele>240.2</ele><time>2026-08-02T18:48:18Z</time></trkpt>
<trkpt lat="35.05502" lon="-85.070361"><ele>240.2</ele><time>2026-08-02T18:48:20Z</time></trkpt>
<trkpt lat="35.055002" lon="-85.070389"><ele>240.5</ele><time>2026-08-02T18:48:22Z</time></trkpt>
<trkpt lat="35.054986" lon="-85.070421"><ele>240.8</ele><time>2026-08-02T18:48:24Z</time></trkpt>
<trkpt lat="35.054965" lon="-85.070449"><ele>240.8</ele><time>2026-08-02T18:48:26Z</time></trkpt>
<trkpt lat="35.054943" lon="-85.070471"><ele>240.8</ele><time>2026-08-02T18:48:28Z</time></trkpt>
<trkpt lat="35.054917" lon="-85.070485"><ele>241.1</ele><time>2026-08-02T18:48:30Z</time></trkpt>
<trkpt lat="35.054888" lon="-85.070493"><ele>241.4</ele><time>2026-08-02T18:48:32Z</time></trkpt>
<trkpt lat="35.054861" lon="-85.070503"><ele>242.0</ele><time>2026-08-02T18:48:34Z</time></trkpt>
<trkpt lat="35.054834" lon="-85.070512"><ele>242.6</ele><time>2026-08-02T18:48:36Z</time></trkpt>
<trkpt lat="35.054804" lon="-85.070526"><ele>242.6</ele><time>2026-08-02T18:48:38Z</time></trkpt>
<trkpt lat="35.054778" lon="-85.070541"><ele>242.6</ele><time>2026-08-02T18:48:40Z</time></trkpt>
<trkpt lat="35.054741" lon="-85.070559"><ele>243.2</ele><time>2026-08-02T18:48:43Z</time></trkpt>
<trkpt lat="35.054714" lon="-85.070572"><ele>242.9</ele><time>2026-08-02T18:48:45Z</time></trkpt>
<trkpt lat="35.054676" lon="-85.070595"><ele>242.9</ele><time>2026-08-02T18:48:48Z</time></trkpt>
<trkpt lat="35.054651" lon="-85.070608"><ele>243.2</ele><time>2026-08-02T18:48:50Z</time></trkpt>
<trkpt lat="35.054624" lon="-85.07062"><ele>243.5</ele><time>2026-08-02T18:48:52Z</time></trkpt>
<trkpt lat="35.054598" lon="-85.070633"><ele>243.5</ele><time>2026-08-02T18:48:54Z</time></trkpt>
<trkpt lat="35.05457" lon="-85.070648"><ele>243.5</ele><time>2026-08-02T18:48:56Z</time></trkpt>
<trkpt lat="35.054545" lon="-85.070665"><ele>243.5</ele><time>2026-08-02T18:48:58Z</time></trkpt>
<trkpt lat="35.054518" lon="-85.070681"><ele>243.8</ele><time>2026-08-02T18:49:00Z</time></trkpt>
<trkpt lat="35.054494" lon="-85.070699"><ele>243.8</ele><time>2026-08-02T18:49:02Z</time></trkpt>
<trkpt lat="35.054474" lon="-85.070728"><ele>243.5</ele><time>2026-08-02T18:49:04Z</time></trkpt>
<trkpt lat="35.05445" lon="-85.070754"><ele>244.1</ele><time>2026-08-02T18:49:06Z</time></trkpt>
<trkpt lat="35.05443" lon="-85.07078"><ele>244.1</ele><time>2026-08-02T18:49:08Z</time></trkpt>
<trkpt lat="35.054415" lon="-85.070811"><ele>244.8</ele><time>2026-08-02T18:49:10Z</time></trkpt>
<trkpt lat="35.054396" lon="-85.070839"><ele>245.4</ele><time>2026-08-02T18:49:12Z</time></trkpt>
<trkpt lat="35.054361" lon="-85.070859"><ele>245.7</ele><time>2026-08-02T18:49:15Z</time></trkpt>
<trkpt lat="35.054321" lon="-85.070882"><ele>245.4</ele><time>2026-08-02T18:49:18Z</time></trkpt>
<trkpt lat="35.054293" lon="-85.070902"><ele>245.7</ele><time>2026-08-02T18:49:20Z</time></trkpt>
<trkpt lat="35.054266" lon="-85.07092"><ele>245.1</ele><time>2026-08-02T18:49:22Z</time></trkpt>
<trkpt lat="35.054239" lon="-85.070939"><ele>245.1</ele><time>2026-08-02T18:49:24Z</time></trkpt>
<trkpt lat="35.054213" lon="-85.070956"><ele>244.8</ele><time>2026-08-02T18:49:26Z</time></trkpt>
<trkpt lat="35.054185" lon="-85.070973"><ele>244.4</ele><time>2026-08-02T18:49:28Z</time></trkpt>
<trkpt lat="35.054155" lon="-85.070988"><ele>244.4</ele><time>2026-08-02T18:49:30Z</time></trkpt>
<trkpt lat="35.054124" lon="-85.070998"><ele>244.8</ele><time>2026-08-02T18:49:32Z</time></trkpt>
<trkpt lat="35.054095" lon="-85.07101"><ele>244.4</ele><time>2026-08-02T18:49:34Z</time></trkpt>
<trkpt lat="35.054066" lon="-85.071022"><ele>244.4</ele><time>2026-08-02T18:49:36Z</time></trkpt>
<trkpt lat="35.054036" lon="-85.071032"><ele>243.8</ele><time>2026-08-02T18:49:38Z</time></trkpt>
<trkpt lat="35.054008" lon="-85.071042"><ele>243.8</ele><time>2026-08-02T18:49:40Z</time></trkpt>
<trkpt lat="35.053979" lon="-85.071049"><ele>243.5</ele><time>2026-08-02T18:49:42Z</time></trkpt>
<trkpt lat="35.053947" lon="-85.071057"><ele>243.8</ele><time>2026-08-02T18:49:44Z</time></trkpt>
<trkpt lat="35.053914" lon="-85.071065"><ele>244.1</ele><time>2026-08-02T18:49:46Z</time></trkpt>
<trkpt lat="35.053882" lon="-85.071069"><ele>244.1</ele><time>2026-08-02T18:49:48Z</time></trkpt>
<trkpt lat="35.053849" lon="-85.071074"><ele>244.4</ele><time>2026-08-02T18:49:50Z</time></trkpt>
<trkpt lat="35.053817" lon="-85.071082"><ele>244.4</ele><time>2026-08-02T18:49:52Z</time></trkpt>
<trkpt lat="35.053785" lon="-85.071088"><ele>244.8</ele><time>2026-08-02T18:49:54Z</time></trkpt>
<trkpt lat="35.053754" lon="-85.071092"><ele>244.8</ele><time>2026-08-02T18:49:56Z</time></trkpt>
<trkpt lat="35.053723" lon="-85.071099"><ele>245.1</ele><time>2026-08-02T18:49:58Z</time></trkpt>
<trkpt lat="35.053693" lon="-85.071106"><ele>245.1</ele><time>2026-08-02T18:50:00Z</time></trkpt>
<trkpt lat="35.053662" lon="-85.071111"><ele>245.4</ele><time>2026-08-02T18:50:02Z</time></trkpt>
<trkpt lat="35.053633" lon="-85.071118"><ele>245.4</ele><time>2026-08-02T18:50:04Z</time></trkpt>
<trkpt lat="35.053603" lon="-85.07113"><ele>246.0</ele><time>2026-08-02T18:50:06Z</time></trkpt>
<trkpt lat="35.053573" lon="-85.071143"><ele>246.3</ele><time>2026-08-02T18:50:08Z</time></trkpt>
<trkpt lat="35.053546" lon="-85.071156"><ele>246.6</ele><time>2026-08-02T18:50:10Z</time></trkpt>
<trkpt lat="35.053519" lon="-85.071176"><ele>247.5</ele><time>2026-08-02T18:50:12Z</time></trkpt>
<trkpt lat="35.053493" lon="-85.071194"><ele>248.1</ele><time>2026-08-02T18:50:14Z</time></trkpt>
<trkpt lat="35.053467" lon="-85.071212"><ele>247.5</ele><time>2026-08-02T18:50:16Z</time></trkpt>
<trkpt lat="35.053441" lon="-85.071233"><ele>247.5</ele><time>2026-08-02T18:50:18Z</time></trkpt>
<trkpt lat="35.053412" lon="-85.071252"><ele>247.8</ele><time>2026-08-02T18:50:20Z</time></trkpt>
<trkpt lat="35.053387" lon="-85.071271"><ele>247.2</ele><time>2026-08-02T18:50:22Z</time></trkpt>
<trkpt lat="35.053363" lon="-85.07129"><ele>246.6</ele><time>2026-08-02T18:50:24Z</time></trkpt>
<trkpt lat="35.053337" lon="-85.071306"><ele>246.0</ele><time>2026-08-02T18:50:26Z</time></trkpt>
<trkpt lat="35.053313" lon="-85.071326"><ele>245.4</ele><time>2026-08-02T18:50:28Z</time></trkpt>
<trkpt lat="35.053306" lon="-85.071361"><ele>244.4</ele><time>2026-08-02T18:50:30Z</time></trkpt>
<trkpt lat="35.05332" lon="-85.071395"><ele>243.8</ele><time>2026-08-02T18:50:32Z</time></trkpt>
<trkpt lat="35.053341" lon="-85.071424"><ele>243.8</ele><time>2026-08-02T18:50:34Z</time></trkpt>
<trkpt lat="35.053358" lon="-85.071455"><ele>244.1</ele><time>2026-08-02T18:50:36Z</time></trkpt>
<trkpt lat="35.053365" lon="-85.071491"><ele>243.8</ele><time>2026-08-02T18:50:38Z</time></trkpt>
<trkpt lat="35.053368" lon="-85.071525"><ele>244.1</ele><time>2026-08-02T18:50:40Z</time></trkpt>
<trkpt lat="35.053372" lon="-85.071561"><ele>244.1</ele><time>2026-08-02T18:50:42Z</time></trkpt>
<trkpt lat="35.053377" lon="-85.071596"><ele>243.5</ele><time>2026-08-02T18:50:44Z</time></trkpt>
<trkpt lat="35.053383" lon="-85.07163"><ele>243.2</ele><time>2026-08-02T18:50:46Z</time></trkpt>
<trkpt lat="35.053397" lon="-85.071664"><ele>243.2</ele><time>2026-08-02T18:50:48Z</time></trkpt>
<trkpt lat="35.053411" lon="-85.071695"><ele>242.9</ele><time>2026-08-02T18:50:50Z</time></trkpt>
<trkpt lat="35.053424" lon="-85.071727"><ele>242.9</ele><time>2026-08-02T18:50:52Z</time></trkpt>
<trkpt lat="35.053434" lon="-85.071759"><ele>242.9</ele><time>2026-08-02T18:50:54Z</time></trkpt>
<trkpt lat="35.053447" lon="-85.071788"><ele>242.6</ele><time>2026-08-02T18:50:56Z</time></trkpt>
<trkpt lat="35.053459" lon="-85.07182"><ele>242.0</ele><time>2026-08-02T18:50:58Z</time></trkpt>
<trkpt lat="35.053466" lon="-85.071855"><ele>242.0</ele><time>2026-08-02T18:51:00Z</time></trkpt>
<trkpt lat="35.053476" lon="-85.071888"><ele>242.6</ele><time>2026-08-02T18:51:02Z</time></trkpt>
<trkpt lat="35.053489" lon="-85.071931"><ele>243.8</ele><time>2026-08-02T18:51:05Z</time></trkpt>
<trkpt lat="35.053512" lon="-85.071972"><ele>244.1</ele><time>2026-08-02T18:51:08Z</time></trkpt>
<trkpt lat="35.053537" lon="-85.071991"><ele>243.5</ele><time>2026-08-02T18:51:10Z</time></trkpt>
<trkpt lat="35.053564" lon="-85.072002"><ele>244.1</ele><time>2026-08-02T18:51:12Z</time></trkpt>
<trkpt lat="35.053591" lon="-85.07199"><ele>243.2</ele><time>2026-08-02T18:51:14Z</time></trkpt>
<trkpt lat="35.053626" lon="-85.072"><ele>244.4</ele><time>2026-08-02T18:51:17Z</time></trkpt>
<trkpt lat="35.053611" lon="-85.072045"><ele>243.2</ele><time>2026-08-02T18:51:19Z</time></trkpt>
<trkpt lat="35.053577" lon="-85.072046"><ele>242.0</ele><time>2026-08-02T18:51:21Z</time></trkpt>
<trkpt lat="35.053551" lon="-85.072026"><ele>242.0</ele><time>2026-08-02T18:51:23Z</time></trkpt>
<trkpt lat="35.053531" lon="-85.071997"><ele>242.6</ele><time>2026-08-02T18:51:25Z</time></trkpt>
<trkpt lat="35.053513" lon="-85.071965"><ele>241.4</ele><time>2026-08-02T18:51:27Z</time></trkpt>
<trkpt lat="35.0535" lon="-85.071929"><ele>241.4</ele><time>2026-08-02T18:51:29Z</time></trkpt>
<trkpt lat="35.053492" lon="-85.071893"><ele>241.1</ele><time>2026-08-02T18:51:31Z</time></trkpt>
<trkpt lat="35.053483" lon="-85.071857"><ele>241.1</ele><time>2026-08-02T18:51:33Z</time></trkpt>
<trkpt lat="35.053468" lon="-85.071824"><ele>240.8</ele><time>2026-08-02T18:51:35Z</time></trkpt>
<trkpt lat="35.053451" lon="-85.071788"><ele>239.9</ele><time>2026-08-02T18:51:37Z</time></trkpt>
<trkpt lat="35.053435" lon="-85.071752"><ele>239.9</ele><time>2026-08-02T18:51:39Z</time></trkpt>
<trkpt lat="35.053422" lon="-85.071709"><ele>240.2</ele><time>2026-08-02T18:51:41Z</time></trkpt>
<trkpt lat="35.053407" lon="-85.071671"><ele>240.2</ele><time>2026-08-02T18:51:43Z</time></trkpt>
<trkpt lat="35.053392" lon="-85.071635"><ele>239.6</ele><time>2026-08-02T18:51:45Z</time></trkpt>
<trkpt lat="35.05338" lon="-85.071596"><ele>239.3</ele><time>2026-08-02T18:51:47Z</time></trkpt>
<trkpt lat="35.053371" lon="-85.071557"><ele>239.0</ele><time>2026-08-02T18:51:49Z</time></trkpt>
<trkpt lat="35.053367" lon="-85.071518"><ele>239.0</ele><time>2026-08-02T18:51:51Z</time></trkpt>
<trkpt lat="35.053362" lon="-85.071483"><ele>239.0</ele><time>2026-08-02T18:51:53Z</time></trkpt>
<trkpt lat="35.053353" lon="-85.071446"><ele>239.0</ele><time>2026-08-02T18:51:55Z</time></trkpt>
<trkpt lat="35.053341" lon="-85.071414"><ele>239.0</ele><time>2026-08-02T18:51:57Z</time></trkpt>
<trkpt lat="35.053325" lon="-85.071382"><ele>238.7</ele><time>2026-08-02T18:51:59Z</time></trkpt>
<trkpt lat="35.05331" lon="-85.071347"><ele>238.4</ele><time>2026-08-02T18:52:01Z</time></trkpt>
<trkpt lat="35.053306" lon="-85.071309"><ele>237.7</ele><time>2026-08-02T18:52:03Z</time></trkpt>
<trkpt lat="35.053328" lon="-85.071282"><ele>236.8</ele><time>2026-08-02T18:52:05Z</time></trkpt>
<trkpt lat="35.053354" lon="-85.071267"><ele>236.8</ele><time>2026-08-02T18:52:07Z</time></trkpt>
<trkpt lat="35.053379" lon="-85.071249"><ele>236.5</ele><time>2026-08-02T18:52:09Z</time></trkpt>
<trkpt lat="35.053405" lon="-85.071232"><ele>236.5</ele><time>2026-08-02T18:52:11Z</time></trkpt>
<trkpt lat="35.053439" lon="-85.071205"><ele>236.2</ele><time>2026-08-02T18:52:14Z</time></trkpt>
<trkpt lat="35.053477" lon="-85.071183"><ele>236.2</ele><time>2026-08-02T18:52:17Z</time></trkpt>
<trkpt lat="35.053503" lon="-85.071166"><ele>235.6</ele><time>2026-08-02T18:52:19Z</time></trkpt>
<trkpt lat="35.05353" lon="-85.071154"><ele>235.9</ele><time>2026-08-02T18:52:21Z</time></trkpt>
<trkpt lat="35.053556" lon="-85.07114"><ele>236.2</ele><time>2026-08-02T18:52:23Z</time></trkpt>
<trkpt lat="35.053583" lon="-85.071126"><ele>235.6</ele><time>2026-08-02T18:52:25Z</time></trkpt>
<trkpt lat="35.053613" lon="-85.071116"><ele>235.3</ele><time>2026-08-02T18:52:27Z</time></trkpt>
<trkpt lat="35.053641" lon="-85.071111"><ele>235.6</ele><time>2026-08-02T18:52:29Z</time></trkpt>
<trkpt lat="35.05367" lon="-85.071106"><ele>235.9</ele><time>2026-08-02T18:52:31Z</time></trkpt>
<trkpt lat="35.053699" lon="-85.0711"><ele>235.9</ele><time>2026-08-02T18:52:33Z</time></trkpt>
<trkpt lat="35.053728" lon="-85.071095"><ele>235.9</ele><time>2026-08-02T18:52:35Z</time></trkpt>
<trkpt lat="35.053757" lon="-85.071086"><ele>235.6</ele><time>2026-08-02T18:52:37Z</time></trkpt>
<trkpt lat="35.053786" lon="-85.071077"><ele>235.3</ele><time>2026-08-02T18:52:39Z</time></trkpt>
<trkpt lat="35.053815" lon="-85.07107"><ele>235.0</ele><time>2026-08-02T18:52:41Z</time></trkpt>
<trkpt lat="35.053845" lon="-85.071064"><ele>235.0</ele><time>2026-08-02T18:52:43Z</time></trkpt>
<trkpt lat="35.053875" lon="-85.07106"><ele>235.0</ele><time>2026-08-02T18:52:45Z</time></trkpt>
<trkpt lat="35.053905" lon="-85.071056"><ele>235.0</ele><time>2026-08-02T18:52:47Z</time></trkpt>
<trkpt lat="35.053935" lon="-85.071048"><ele>235.0</ele><time>2026-08-02T18:52:49Z</time></trkpt>
<trkpt lat="35.053965" lon="-85.071041"><ele>235.6</ele><time>2026-08-02T18:52:51Z</time></trkpt>
<trkpt lat="35.053999" lon="-85.071031"><ele>236.8</ele><time>2026-08-02T18:52:53Z</time></trkpt>
<trkpt lat="35.05403" lon="-85.071019"><ele>237.4</ele><time>2026-08-02T18:52:55Z</time></trkpt>
<trkpt lat="35.054061" lon="-85.071004"><ele>238.0</ele><time>2026-08-02T18:52:57Z</time></trkpt>
<trkpt lat="35.054093" lon="-85.070992"><ele>239.0</ele><time>2026-08-02T18:52:59Z</time></trkpt>
<trkpt lat="35.054122" lon="-85.070981"><ele>239.3</ele><time>2026-08-02T18:53:01Z</time></trkpt>
<trkpt lat="35.054152" lon="-85.070973"><ele>239.9</ele><time>2026-08-02T18:53:03Z</time></trkpt>
<trkpt lat="35.054183" lon="-85.070967"><ele>240.2</ele><time>2026-08-02T18:53:05Z</time></trkpt>
<trkpt lat="35.054213" lon="-85.070962"><ele>240.2</ele><time>2026-08-02T18:53:07Z</time></trkpt>
<trkpt lat="35.054241" lon="-85.070951"><ele>239.9</ele><time>2026-08-02T18:53:09Z</time></trkpt>
<trkpt lat="35.054272" lon="-85.070938"><ele>239.6</ele><time>2026-08-02T18:53:11Z</time></trkpt>
<trkpt lat="35.054303" lon="-85.07092"><ele>239.6</ele><time>2026-08-02T18:53:13Z</time></trkpt>
<trkpt lat="35.054332" lon="-85.0709"><ele>239.9</ele><time>2026-08-02T18:53:15Z</time></trkpt>
<trkpt lat="35.054363" lon="-85.070875"><ele>239.9</ele><time>2026-08-02T18:53:17Z</time></trkpt>
<trkpt lat="35.054393" lon="-85.070848"><ele>240.2</ele><time>2026-08-02T18:53:19Z</time></trkpt>
<trkpt lat="35.054418" lon="-85.070819"><ele>239.9</ele><time>2026-08-02T18:53:21Z</time></trkpt>
<trkpt lat="35.054438" lon="-85.070784"><ele>239.9</ele><time>2026-08-02T18:53:23Z</time></trkpt>
<trkpt lat="35.054461" lon="-85.070752"><ele>239.3</ele><time>2026-08-02T18:53:25Z</time></trkpt>
<trkpt lat="35.054486" lon="-85.070726"><ele>239.3</ele><time>2026-08-02T18:53:27Z</time></trkpt>
<trkpt lat="35.054513" lon="-85.070702"><ele>239.9</ele><time>2026-08-02T18:53:29Z</time></trkpt>
<trkpt lat="35.054541" lon="-85.070676"><ele>239.6</ele><time>2026-08-02T18:53:31Z</time></trkpt>
<trkpt lat="35.054567" lon="-85.070653"><ele>239.6</ele><time>2026-08-02T18:53:33Z</time></trkpt>
<trkpt lat="35.054595" lon="-85.070634"><ele>239.9</ele><time>2026-08-02T18:53:35Z</time></trkpt>
<trkpt lat="35.054622" lon="-85.070616"><ele>239.6</ele><time>2026-08-02T18:53:37Z</time></trkpt>
<trkpt lat="35.054653" lon="-85.070604"><ele>240.5</ele><time>2026-08-02T18:53:39Z</time></trkpt>
<trkpt lat="35.054683" lon="-85.07059"><ele>241.4</ele><time>2026-08-02T18:53:41Z</time></trkpt>
<trkpt lat="35.054711" lon="-85.070568"><ele>241.7</ele><time>2026-08-02T18:53:43Z</time></trkpt>
<trkpt lat="35.054743" lon="-85.070556"><ele>242.6</ele><time>2026-08-02T18:53:45Z</time></trkpt>
<trkpt lat="35.054771" lon="-85.070542"><ele>241.7</ele><time>2026-08-02T18:53:47Z</time></trkpt>
<trkpt lat="35.054801" lon="-85.070532"><ele>241.7</ele><time>2026-08-02T18:53:49Z</time></trkpt>
<trkpt lat="35.054826" lon="-85.070514"><ele>241.4</ele><time>2026-08-02T18:53:51Z</time></trkpt>
<trkpt lat="35.054854" lon="-85.070499"><ele>241.4</ele><time>2026-08-02T18:53:53Z</time></trkpt>
<trkpt lat="35.054884" lon="-85.070493"><ele>242.0</ele><time>2026-08-02T18:53:55Z</time></trkpt>
<trkpt lat="35.054912" lon="-85.07048"><ele>241.4</ele><time>2026-08-02T18:53:57Z</time></trkpt>
<trkpt lat="35.054941" lon="-85.070471"><ele>241.4</ele><time>2026-08-02T18:53:59Z</time></trkpt>
<trkpt lat="35.054968" lon="-85.070458"><ele>241.1</ele><time>2026-08-02T18:54:01Z</time></trkpt>
<trkpt lat="35.054993" lon="-85.070433"><ele>240.8</ele><time>2026-08-02T18:54:03Z</time></trkpt>
<trkpt lat="35.055012" lon="-85.070401"><ele>240.2</ele><time>2026-08-02T18:54:05Z</time></trkpt>
<trkpt lat="35.055031" lon="-85.070371"><ele>239.9</ele><time>2026-08-02T18:54:07Z</time></trkpt>
<trkpt lat="35.055052" lon="-85.070343"><ele>239.6</ele><time>2026-08-02T18:54:09Z</time></trkpt>
<trkpt lat="35.055072" lon="-85.070318"><ele>239.6</ele><time>2026-08-02T18:54:11Z</time></trkpt>
<trkpt lat="35.055097" lon="-85.070295"><ele>239.6</ele><time>2026-08-02T18:54:13Z</time></trkpt>
<trkpt lat="35.055123" lon="-85.070279"><ele>239.3</ele><time>2026-08-02T18:54:15Z</time></trkpt>
<trkpt lat="35.055152" lon="-85.070267"><ele>239.3</ele><time>2026-08-02T18:54:17Z</time></trkpt>
<trkpt lat="35.05518" lon="-85.070256"><ele>239.6</ele><time>2026-08-02T18:54:19Z</time></trkpt>
<trkpt lat="35.055208" lon="-85.070243"><ele>239.0</ele><time>2026-08-02T18:54:21Z</time></trkpt>
<trkpt lat="35.055236" lon="-85.070235"><ele>239.6</ele><time>2026-08-02T18:54:23Z</time></trkpt>
<trkpt lat="35.055266" lon="-85.070225"><ele>239.9</ele><time>2026-08-02T18:54:25Z</time></trkpt>
<trkpt lat="35.055296" lon="-85.070217"><ele>239.3</ele><time>2026-08-02T18:54:27Z</time></trkpt>
<trkpt lat="35.055326" lon="-85.07021"><ele>239.6</ele><time>2026-08-02T18:54:29Z</time></trkpt>
<trkpt lat="35.05536" lon="-85.070198"><ele>239.9</ele><time>2026-08-02T18:54:31Z</time></trkpt>
<trkpt lat="35.055393" lon="-85.070189"><ele>240.5</ele><time>2026-08-02T18:54:33Z</time></trkpt>
<trkpt lat="35.055425" lon="-85.070181"><ele>240.2</ele><time>2026-08-02T18:54:35Z</time></trkpt>
<trkpt lat="35.055459" lon="-85.070175"><ele>240.2</ele><time>2026-08-02T18:54:37Z</time></trkpt>
<trkpt lat="35.055492" lon="-85.070171"><ele>240.5</ele><time>2026-08-02T18:54:39Z</time></trkpt>
<trkpt lat="35.055525" lon="-85.070166"><ele>240.8</ele><time>2026-08-02T18:54:41Z</time></trkpt>
<trkpt lat="35.055556" lon="-85.070159"><ele>240.5</ele><time>2026-08-02T18:54:43Z</time></trkpt>
<trkpt lat="35.055588" lon="-85.070152"><ele>240.5</ele><time>2026-08-02T18:54:45Z</time></trkpt>
<trkpt lat="35.055621" lon="-85.070142"><ele>240.2</ele><time>2026-08-02T18:54:47Z</time></trkpt>
<trkpt lat="35.055652" lon="-85.070128"><ele>240.2</ele><time>2026-08-02T18:54:49Z</time></trkpt>
<trkpt lat="35.055682" lon="-85.07012"><ele>240.5</ele><time>2026-08-02T18:54:51Z</time></trkpt>
<trkpt lat="35.055716" lon="-85.070109"><ele>240.5</ele><time>2026-08-02T18:54:53Z</time></trkpt>
<trkpt lat="35.05575" lon="-85.070095"><ele>240.8</ele><time>2026-08-02T18:54:55Z</time></trkpt>
<trkpt lat="35.055782" lon="-85.070086"><ele>241.7</ele><time>2026-08-02T18:54:57Z</time></trkpt>
<trkpt lat="35.055813" lon="-85.070078"><ele>242.3</ele><time>2026-08-02T18:54:59Z</time></trkpt>
<trkpt lat="35.055845" lon="-85.070066"><ele>242.0</ele><time>2026-08-02T18:55:01Z</time></trkpt>
<trkpt lat="35.055877" lon="-85.070055"><ele>242.0</ele><time>2026-08-02T18:55:03Z</time></trkpt>
<trkpt lat="35.055907" lon="-85.07004"><ele>241.4</ele><time>2026-08-02T18:55:05Z</time></trkpt>
<trkpt lat="35.05594" lon="-85.070029"><ele>241.1</ele><time>2026-08-02T18:55:07Z</time></trkpt>
<trkpt lat="35.055972" lon="-85.070023"><ele>240.8</ele><time>2026-08-02T18:55:09Z</time></trkpt>
<trkpt lat="35.056005" lon="-85.070014"><ele>241.1</ele><time>2026-08-02T18:55:11Z</time></trkpt>
<trkpt lat="35.05604" lon="-85.070013"><ele>241.4</ele><time>2026-08-02T18:55:13Z</time></trkpt>
<trkpt lat="35.056075" lon="-85.070017"><ele>242.6</ele><time>2026-08-02T18:55:15Z</time></trkpt>
<trkpt lat="35.056109" lon="-85.070018"><ele>242.6</ele><time>2026-08-02T18:55:17Z</time></trkpt>
<trkpt lat="35.056142" lon="-85.070014"><ele>243.2</ele><time>2026-08-02T18:55:19Z</time></trkpt>
<trkpt lat="35.056178" lon="-85.070013"><ele>243.8</ele><time>2026-08-02T18:55:21Z</time></trkpt>
<trkpt lat="35.056211" lon="-85.070009"><ele>243.2</ele><time>2026-08-02T18:55:23Z</time></trkpt>
<trkpt lat="35.056243" lon="-85.07002"><ele>242.9</ele><time>2026-08-02T18:55:25Z</time></trkpt>
<trkpt lat="35.056266" lon="-85.070049"><ele>242.3</ele><time>2026-08-02T18:55:27Z</time></trkpt>
<trkpt lat="35.056279" lon="-85.070084"><ele>242.3</ele><time>2026-08-02T18:55:29Z</time></trkpt>
<trkpt lat="35.056292" lon="-85.070115"><ele>242.3</ele><time>2026-08-02T18:55:31Z</time></trkpt>
<trkpt lat="35.056304" lon="-85.070146"><ele>242.3</ele><time>2026-08-02T18:55:33Z</time></trkpt>
<trkpt lat="35.056318" lon="-85.070179"><ele>242.3</ele><time>2026-08-02T18:55:35Z</time></trkpt>
<trkpt lat="35.056335" lon="-85.070209"><ele>241.7</ele><time>2026-08-02T18:55:37Z</time></trkpt>
<trkpt lat="35.056355" lon="-85.070237"><ele>241.7</ele><time>2026-08-02T18:55:39Z</time></trkpt>
<trkpt lat="35.056384" lon="-85.070255"><ele>241.4</ele><time>2026-08-02T18:55:41Z</time></trkpt>
<trkpt lat="35.056415" lon="-85.070265"><ele>241.1</ele><time>2026-08-02T18:55:43Z</time></trkpt>
<trkpt lat="35.056446" lon="-85.070265"><ele>240.8</ele><time>2026-08-02T18:55:45Z</time></trkpt>
<trkpt lat="35.056467" lon="-85.070235"><ele>240.2</ele><time>2026-08-02T18:55:47Z</time></trkpt>
<trkpt lat="35.056484" lon="-85.070201"><ele>239.9</ele><time>2026-08-02T18:55:49Z</time></trkpt>
<trkpt lat="35.056502" lon="-85.070165"><ele>239.6</ele><time>2026-08-02T18:55:51Z</time></trkpt>
<trkpt lat="35.056519" lon="-85.070129"><ele>239.3</ele><time>2026-08-02T18:55:53Z</time></trkpt>
<trkpt lat="35.05654" lon="-85.070101"><ele>239.3</ele><time>2026-08-02T18:55:55Z</time></trkpt>
<trkpt lat="35.056561" lon="-85.070073"><ele>239.3</ele><time>2026-08-02T18:55:57Z</time></trkpt>
<trkpt lat="35.056586" lon="-85.070047"><ele>239.6</ele><time>2026-08-02T18:55:59Z</time></trkpt>
<trkpt lat="35.056611" lon="-85.070023"><ele>239.6</ele><time>2026-08-02T18:56:01Z</time></trkpt>
<trkpt lat="35.056637" lon="-85.069998"><ele>239.9</ele><time>2026-08-02T18:56:03Z</time></trkpt>
<trkpt lat="35.056663" lon="-85.069978"><ele>239.9</ele><time>2026-08-02T18:56:05Z</time></trkpt>
<trkpt lat="35.056691" lon="-85.06996"><ele>239.6</ele><time>2026-08-02T18:56:07Z</time></trkpt>
<trkpt lat="35.05672" lon="-85.069947"><ele>239.6</ele><time>2026-08-02T18:56:09Z</time></trkpt>
<trkpt lat="35.056749" lon="-85.069935"><ele>239.0</ele><time>2026-08-02T18:56:11Z</time></trkpt>
<trkpt lat="35.056779" lon="-85.069925"><ele>238.7</ele><time>2026-08-02T18:56:13Z</time></trkpt>
<trkpt lat="35.056806" lon="-85.069913"><ele>239.0</ele><time>2026-08-02T18:56:15Z</time></trkpt>
<trkpt lat="35.056833" lon="-85.069905"><ele>239.3</ele><time>2026-08-02T18:56:17Z</time></trkpt>
<trkpt lat="35.056864" lon="-85.0699"><ele>239.0</ele><time>2026-08-02T18:56:19Z</time></trkpt>
<trkpt lat="35.056896" lon="-85.069901"><ele>239.3</ele><time>2026-08-02T18:56:21Z</time></trkpt>
<trkpt lat="35.056927" lon="-85.069903"><ele>239.3</ele><time>2026-08-02T18:56:23Z</time></trkpt>
<trkpt lat="35.056957" lon="-85.069901"><ele>239.6</ele><time>2026-08-02T18:56:25Z</time></trkpt>
<trkpt lat="35.056988" lon="-85.069895"><ele>239.3</ele><time>2026-08-02T18:56:27Z</time></trkpt>
<trkpt lat="35.05702" lon="-85.069899"><ele>239.3</ele><time>2026-08-02T18:56:29Z</time></trkpt>
<trkpt lat="35.05705" lon="-85.069905"><ele>239.3</ele><time>2026-08-02T18:56:31Z</time></trkpt>
<trkpt lat="35.057082" lon="-85.069918"><ele>239.6</ele><time>2026-08-02T18:56:33Z</time></trkpt>
<trkpt lat="35.057114" lon="-85.069933"><ele>239.9</ele><time>2026-08-02T18:56:35Z</time></trkpt>
<trkpt lat="35.057142" lon="-85.069956"><ele>239.9</ele><time>2026-08-02T18:56:37Z</time></trkpt>
<trkpt lat="35.057169" lon="-85.069983"><ele>239.3</ele><time>2026-08-02T18:56:39Z</time></trkpt>
<trkpt lat="35.057197" lon="-85.070014"><ele>239.3</ele><time>2026-08-02T18:56:41Z</time></trkpt>
<trkpt lat="35.057226" lon="-85.070039"><ele>239.3</ele><time>2026-08-02T18:56:43Z</time></trkpt>
<trkpt lat="35.057255" lon="-85.070061"><ele>239.6</ele><time>2026-08-02T18:56:45Z</time></trkpt>
<trkpt lat="35.057281" lon="-85.070085"><ele>239.6</ele><time>2026-08-02T18:56:47Z</time></trkpt>
<trkpt lat="35.057305" lon="-85.070111"><ele>239.0</ele><time>2026-08-02T18:56:49Z</time></trkpt>
<trkpt lat="35.057325" lon="-85.07014"><ele>239.0</ele><time>2026-08-02T18:56:51Z</time></trkpt>
<trkpt lat="35.057343" lon="-85.070173"><ele>239.0</ele><time>2026-08-02T18:56:53Z</time></trkpt>
<trkpt lat="35.057358" lon="-85.070209"><ele>239.0</ele><time>2026-08-02T18:56:55Z</time></trkpt>
<trkpt lat="35.057368" lon="-85.070247"><ele>239.0</ele><time>2026-08-02T18:56:57Z</time></trkpt>
<trkpt lat="35.057378" lon="-85.070287"><ele>239.3</ele><time>2026-08-02T18:56:59Z</time></trkpt>
<trkpt lat="35.057388" lon="-85.070323"><ele>239.3</ele><time>2026-08-02T18:57:01Z</time></trkpt>
<trkpt lat="35.057395" lon="-85.070362"><ele>239.3</ele><time>2026-08-02T18:57:03Z</time></trkpt>
<trkpt lat="35.057401" lon="-85.070401"><ele>239.3</ele><time>2026-08-02T18:57:05Z</time></trkpt>
<trkpt lat="35.057404" lon="-85.070439"><ele>239.6</ele><time>2026-08-02T18:57:07Z</time></trkpt>
<trkpt lat="35.057408" lon="-85.07048"><ele>239.3</ele><time>2026-08-02T18:57:09Z</time></trkpt>
<trkpt lat="35.057412" lon="-85.07052"><ele>239.9</ele><time>2026-08-02T18:57:11Z</time></trkpt>
<trkpt lat="35.057415" lon="-85.070557"><ele>240.2</ele><time>2026-08-02T18:57:13Z</time></trkpt>
<trkpt lat="35.057408" lon="-85.07059"><ele>240.5</ele><time>2026-08-02T18:57:15Z</time></trkpt>
<trkpt lat="35.057397" lon="-85.070625"><ele>240.8</ele><time>2026-08-02T18:57:17Z</time></trkpt>
<trkpt lat="35.057383" lon="-85.070658"><ele>241.1</ele><time>2026-08-02T18:57:19Z</time></trkpt>
<trkpt lat="35.057355" lon="-85.070678"><ele>241.4</ele><time>2026-08-02T18:57:21Z</time></trkpt>
<trkpt lat="35.057326" lon="-85.07069"><ele>241.7</ele><time>2026-08-02T18:57:23Z</time></trkpt>
<trkpt lat="35.057297" lon="-85.070704"><ele>242.0</ele><time>2026-08-02T18:57:25Z</time></trkpt>
<trkpt lat="35.057269" lon="-85.070721"><ele>242.0</ele><time>2026-08-02T18:57:27Z</time></trkpt>
<trkpt lat="35.057242" lon="-85.070739"><ele>242.0</ele><time>2026-08-02T18:57:29Z</time></trkpt>
<trkpt lat="35.057216" lon="-85.070759"><ele>242.3</ele><time>2026-08-02T18:57:31Z</time></trkpt>
<trkpt lat="35.057194" lon="-85.070784"><ele>242.0</ele><time>2026-08-02T18:57:33Z</time></trkpt>
<trkpt lat="35.057173" lon="-85.070809"><ele>242.3</ele><time>2026-08-02T18:57:35Z</time></trkpt>
<trkpt lat="35.057152" lon="-85.070835"><ele>242.3</ele><time>2026-08-02T18:57:37Z</time></trkpt>
<trkpt lat="35.057131" lon="-85.070862"><ele>242.0</ele><time>2026-08-02T18:57:39Z</time></trkpt>
<trkpt lat="35.057109" lon="-85.070888"><ele>242.0</ele><time>2026-08-02T18:57:41Z</time></trkpt>
<trkpt lat="35.057088" lon="-85.070914"><ele>242.0</ele><time>2026-08-02T18:57:43Z</time></trkpt>
<trkpt lat="35.057064" lon="-85.070937"><ele>242.0</ele><time>2026-08-02T18:57:45Z</time></trkpt>
<trkpt lat="35.057037" lon="-85.070955"><ele>242.0</ele><time>2026-08-02T18:57:47Z</time></trkpt>
<trkpt lat="35.057011" lon="-85.070974"><ele>242.0</ele><time>2026-08-02T18:57:49Z</time></trkpt>
<trkpt lat="35.056983" lon="-85.070989"><ele>242.0</ele><time>2026-08-02T18:57:51Z</time></trkpt>
<trkpt lat="35.056955" lon="-85.071003"><ele>242.3</ele><time>2026-08-02T18:57:53Z</time></trkpt>
<trkpt lat="35.056927" lon="-85.071012"><ele>242.3</ele><time>2026-08-02T18:57:55Z</time></trkpt>
<trkpt lat="35.056897" lon="-85.071017"><ele>242.6</ele><time>2026-08-02T18:57:57Z</time></trkpt>
<trkpt lat="35.056868" lon="-85.071024"><ele>242.6</ele><time>2026-08-02T18:57:59Z</time></trkpt>
<trkpt lat="35.056839" lon="-85.071032"><ele>242.9</ele><time>2026-08-02T18:58:01Z</time></trkpt>
<trkpt lat="35.056811" lon="-85.071046"><ele>243.2</ele><time>2026-08-02T18:58:03Z</time></trkpt>
<trkpt lat="35.056783" lon="-85.071061"><ele>242.9</ele><time>2026-08-02T18:58:05Z</time></trkpt>
<trkpt lat="35.056757" lon="-85.071078"><ele>242.6</ele><time>2026-08-02T18:58:07Z</time></trkpt>
<trkpt lat="35.05673" lon="-85.071096"><ele>242.9</ele><time>2026-08-02T18:58:09Z</time></trkpt>
<trkpt lat="35.056702" lon="-85.071116"><ele>243.2</ele><time>2026-08-02T18:58:11Z</time></trkpt>
<trkpt lat="35.056677" lon="-85.071136"><ele>242.9</ele><time>2026-08-02T18:58:13Z</time></trkpt>
<trkpt lat="35.056652" lon="-85.071158"><ele>242.6</ele><time>2026-08-02T18:58:15Z</time></trkpt>
<trkpt lat="35.056631" lon="-85.071183"><ele>242.9</ele><time>2026-08-02T18:58:17Z</time></trkpt>
<trkpt lat="35.056611" lon="-85.071211"><ele>242.3</ele><time>2026-08-02T18:58:19Z</time></trkpt>
<trkpt lat="35.056593" lon="-85.07124"><ele>242.0</ele><time>2026-08-02T18:58:21Z</time></trkpt>
<trkpt lat="35.056575" lon="-85.071269"><ele>242.3</ele><time>2026-08-02T18:58:23Z</time></trkpt>
<trkpt lat="35.05656" lon="-85.071301"><ele>242.6</ele><time>2026-08-02T18:58:25Z</time></trkpt>
<trkpt lat="35.056542" lon="-85.071332"><ele>242.3</ele><time>2026-08-02T18:58:27Z</time></trkpt>
<trkpt lat="35.056524" lon="-85.071362"><ele>242.3</ele><time>2026-08-02T18:58:29Z</time></trkpt>
<trkpt lat="35.056503" lon="-85.071389"><ele>242.3</ele><time>2026-08-02T18:58:31Z</time></trkpt>
<trkpt lat="35.056478" lon="-85.071414"><ele>242.6</ele><time>2026-08-02T18:58:33Z</time></trkpt>
<trkpt lat="35.05645" lon="-85.07143"><ele>242.9</ele><time>2026-08-02T18:58:35Z</time></trkpt>
<trkpt lat="35.056422" lon="-85.071445"><ele>243.2</ele><time>2026-08-02T18:58:37Z</time></trkpt>
<trkpt lat="35.056391" lon="-85.071456"><ele>242.9</ele><time>2026-08-02T18:58:39Z</time></trkpt>
<trkpt lat="35.056363" lon="-85.07147"><ele>243.5</ele><time>2026-08-02T18:58:41Z</time></trkpt>
<trkpt lat="35.056337" lon="-85.071489"><ele>243.5</ele><time>2026-08-02T18:58:43Z</time></trkpt>
<trkpt lat="35.056315" lon="-85.071514"><ele>244.1</ele><time>2026-08-02T18:58:45Z</time></trkpt>
<trkpt lat="35.056297" lon="-85.071544"><ele>244.4</ele><time>2026-08-02T18:58:47Z</time></trkpt>
<trkpt lat="35.056286" lon="-85.071578"><ele>244.8</ele><time>2026-08-02T18:58:49Z</time></trkpt>
<trkpt lat="35.056283" lon="-85.071615"><ele>244.8</ele><time>2026-08-02T18:58:51Z</time></trkpt>
<trkpt lat="35.056285" lon="-85.071651"><ele>245.1</ele><time>2026-08-02T18:58:53Z</time></trkpt>
<trkpt lat="35.056299" lon="-85.071685"><ele>245.4</ele><time>2026-08-02T18:58:55Z</time></trkpt>
<trkpt lat="35.056309" lon="-85.071721"><ele>245.4</ele><time>2026-08-02T18:58:57Z</time></trkpt>
<trkpt lat="35.056317" lon="-85.071759"><ele>245.1</ele><time>2026-08-02T18:58:59Z</time></trkpt>
<trkpt lat="35.056322" lon="-85.071797"><ele>245.1</ele><time>2026-08-02T18:59:01Z</time></trkpt>
<trkpt lat="35.056327" lon="-85.071838"><ele>245.4</ele><time>2026-08-02T18:59:03Z</time></trkpt>
<trkpt lat="35.056337" lon="-85.071876"><ele>245.1</ele><time>2026-08-02T18:59:05Z</time></trkpt>
<trkpt lat="35.056346" lon="-85.071914"><ele>245.1</ele><time>2026-08-02T18:59:07Z</time></trkpt>
<trkpt lat="35.056355" lon="-85.071949"><ele>245.1</ele><time>2026-08-02T18:59:09Z</time></trkpt>
<trkpt lat="35.05635" lon="-85.071986"><ele>245.1</ele><time>2026-08-02T18:59:11Z</time></trkpt>
<trkpt lat="35.056343" lon="-85.072022"><ele>245.4</ele><time>2026-08-02T18:59:13Z</time></trkpt>
<trkpt lat="35.056336" lon="-85.072058"><ele>245.4</ele><time>2026-08-02T18:59:15Z</time></trkpt>
<trkpt lat="35.05633" lon="-85.072095"><ele>245.7</ele><time>2026-08-02T18:59:17Z</time></trkpt>
<trkpt lat="35.056315" lon="-85.072129"><ele>246.0</ele><time>2026-08-02T18:59:19Z</time></trkpt>
<trkpt lat="35.056294" lon="-85.072155"><ele>245.7</ele><time>2026-08-02T18:59:21Z</time></trkpt>
<trkpt lat="35.056271" lon="-85.072178"><ele>245.4</ele><time>2026-08-02T18:59:23Z</time></trkpt>
<trkpt lat="35.056248" lon="-85.072199"><ele>245.4</ele><time>2026-08-02T18:59:25Z</time></trkpt>
<trkpt lat="35.056226" lon="-85.072225"><ele>245.4</ele><time>2026-08-02T18:59:27Z</time></trkpt>
<trkpt lat="35.056209" lon="-85.072255"><ele>245.1</ele><time>2026-08-02T18:59:29Z</time></trkpt>
<trkpt lat="35.056196" lon="-85.072289"><ele>244.8</ele><time>2026-08-02T18:59:31Z</time></trkpt>
<trkpt lat="35.056188" lon="-85.072325"><ele>244.4</ele><time>2026-08-02T18:59:33Z</time></trkpt>
<trkpt lat="35.056187" lon="-85.072364"><ele>244.4</ele><time>2026-08-02T18:59:35Z</time></trkpt>
<trkpt lat="35.056192" lon="-85.072404"><ele>244.4</ele><time>2026-08-02T18:59:37Z</time></trkpt>
<trkpt lat="35.056202" lon="-85.07244"><ele>244.1</ele><time>2026-08-02T18:59:39Z</time></trkpt>
<trkpt lat="35.056224" lon="-85.072464"><ele>244.8</ele><time>2026-08-02T18:59:41Z</time></trkpt>
<trkpt lat="35.056256" lon="-85.072464"><ele>244.1</ele><time>2026-08-02T18:59:43Z</time></trkpt>
<trkpt lat="35.056287" lon="-85.072448"><ele>243.8</ele><time>2026-08-02T18:59:45Z</time></trkpt>
<trkpt lat="35.056316" lon="-85.072428"><ele>243.2</ele><time>2026-08-02T18:59:47Z</time></trkpt>
<trkpt lat="35.056344" lon="-85.07241"><ele>243.2</ele><time>2026-08-02T18:59:49Z</time></trkpt>
<trkpt lat="35.056371" lon="-85.072391"><ele>243.5</ele><time>2026-08-02T18:59:51Z</time></trkpt>
<trkpt lat="35.056399" lon="-85.072375"><ele>243.2</ele><time>2026-08-02T18:59:53Z</time></trkpt>
<trkpt lat="35.056428" lon="-85.072357"><ele>243.2</ele><time>2026-08-02T18:59:55Z</time></trkpt>
<trkpt lat="35.056455" lon="-85.07234"><ele>243.2</ele><time>2026-08-02T18:59:57Z</time></trkpt>
<trkpt lat="35.056484" lon="-85.072323"><ele>242.9</ele><time>2026-08-02T18:59:59Z</time></trkpt>
<trkpt lat="35.056511" lon="-85.072307"><ele>242.9</ele><time>2026-08-02T19:00:01Z</time></trkpt>
<trkpt lat="35.056538" lon="-85.072289"><ele>242.9</ele><time>2026-08-02T19:00:03Z</time></trkpt>
<trkpt lat="35.056566" lon="-85.072273"><ele>242.0</ele><time>2026-08-02T19:00:05Z</time></trkpt>
<trkpt lat="35.056595" lon="-85.07226"><ele>242.0</ele><time>2026-08-02T19:00:07Z</time></trkpt>
<trkpt lat="35.056624" lon="-85.072247"><ele>241.7</ele><time>2026-08-02T19:00:09Z</time></trkpt>
<trkpt lat="35.056654" lon="-85.072234"><ele>241.4</ele><time>2026-08-02T19:00:11Z</time></trkpt>
<trkpt lat="35.056683" lon="-85.072219"><ele>241.1</ele><time>2026-08-02T19:00:13Z</time></trkpt>
<trkpt lat="35.05671" lon="-85.072204"><ele>241.1</ele><time>2026-08-02T19:00:15Z</time></trkpt>
<trkpt lat="35.056738" lon="-85.072188"><ele>240.8</ele><time>2026-08-02T19:00:17Z</time></trkpt>
<trkpt lat="35.056766" lon="-85.072172"><ele>240.2</ele><time>2026-08-02T19:00:19Z</time></trkpt>
<trkpt lat="35.056795" lon="-85.072156"><ele>240.2</ele><time>2026-08-02T19:00:21Z</time></trkpt>
<trkpt lat="35.056824" lon="-85.072141"><ele>240.2</ele><time>2026-08-02T19:00:23Z</time></trkpt>
<trkpt lat="35.05685" lon="-85.072123"><ele>239.9</ele><time>2026-08-02T19:00:25Z</time></trkpt>
<trkpt lat="35.056876" lon="-85.072104"><ele>239.6</ele><time>2026-08-02T19:00:27Z</time></trkpt>
<trkpt lat="35.056903" lon="-85.07209"><ele>239.6</ele><time>2026-08-02T19:00:29Z</time></trkpt>
<trkpt lat="35.056931" lon="-85.072072"><ele>239.3</ele><time>2026-08-02T19:00:31Z</time></trkpt>
<trkpt lat="35.056961" lon="-85.072054"><ele>239.6</ele><time>2026-08-02T19:00:33Z</time></trkpt>
<trkpt lat="35.05699" lon="-85.072039"><ele>240.2</ele><time>2026-08-02T19:00:35Z</time></trkpt>
<trkpt lat="35.057017" lon="-85.072024"><ele>239.9</ele><time>2026-08-02T19:00:37Z</time></trkpt>
<trkpt lat="35.057045" lon="-85.072007"><ele>240.2</ele><time>2026-08-02T19:00:39Z</time></trkpt>
<trkpt lat="35.057071" lon="-85.071993"><ele>240.5</ele><time>2026-08-02T19:00:41Z</time></trkpt>
<trkpt lat="35.057101" lon="-85.071977"><ele>240.5</ele><time>2026-08-02T19:00:43Z</time></trkpt>
<trkpt lat="35.05713" lon="-85.07196"><ele>240.5</ele><time>2026-08-02T19:00:45Z</time></trkpt>
<trkpt lat="35.057158" lon="-85.071943"><ele>240.2</ele><time>2026-08-02T19:00:47Z</time></trkpt>
<trkpt lat="35.057186" lon="-85.071928"><ele>239.9</ele><time>2026-08-02T19:00:49Z</time></trkpt>
<trkpt lat="35.057216" lon="-85.071912"><ele>240.5</ele><time>2026-08-02T19:00:51Z</time></trkpt>
<trkpt lat="35.057246" lon="-85.071895"><ele>240.8</ele><time>2026-08-02T19:00:53Z</time></trkpt>
<trkpt lat="35.057275" lon="-85.071876"><ele>240.5</ele><time>2026-08-02T19:00:55Z</time></trkpt>
<trkpt lat="35.057304" lon="-85.071862"><ele>240.5</ele><time>2026-08-02T19:00:57Z</time></trkpt>
<trkpt lat="35.057334" lon="-85.071848"><ele>241.1</ele><time>2026-08-02T19:00:59Z</time></trkpt>
<trkpt lat="35.05736" lon="-85.071828"><ele>241.4</ele><time>2026-08-02T19:01:01Z</time></trkpt>
<trkpt lat="35.057389" lon="-85.071809"><ele>241.7</ele><time>2026-08-02T19:01:03Z</time></trkpt>
<trkpt lat="35.057419" lon="-85.071794"><ele>241.4</ele><time>2026-08-02T19:01:05Z</time></trkpt>
<trkpt lat="35.057446" lon="-85.071775"><ele>241.4</ele><time>2026-08-02T19:01:07Z</time></trkpt>
<trkpt lat="35.057475" lon="-85.071755"><ele>241.7</ele><time>2026-08-02T19:01:09Z</time></trkpt>
<trkpt lat="35.057501" lon="-85.071732"><ele>241.7</ele><time>2026-08-02T19:01:11Z</time></trkpt>
<trkpt lat="35.05752" lon="-85.071705"><ele>241.4</ele><time>2026-08-02T19:01:13Z</time></trkpt>
<trkpt lat="35.057534" lon="-85.071673"><ele>240.8</ele><time>2026-08-02T19:01:15Z</time></trkpt>
<trkpt lat="35.057544" lon="-85.07164"><ele>240.8</ele><time>2026-08-02T19:01:17Z</time></trkpt>
<trkpt lat="35.057552" lon="-85.071603"><ele>240.2</ele><time>2026-08-02T19:01:19Z</time></trkpt>
<trkpt lat="35.057565" lon="-85.07157"><ele>239.9</ele><time>2026-08-02T19:01:21Z</time></trkpt>
<trkpt lat="35.057577" lon="-85.07154"><ele>240.2</ele><time>2026-08-02T19:01:23Z</time></trkpt>
<trkpt lat="35.05759" lon="-85.071508"><ele>240.5</ele><time>2026-08-02T19:01:25Z</time></trkpt>
<trkpt lat="35.057603" lon="-85.071476"><ele>240.5</ele><time>2026-08-02T19:01:27Z</time></trkpt>
<trkpt lat="35.057617" lon="-85.071443"><ele>240.5</ele><time>2026-08-02T19:01:29Z</time></trkpt>
<trkpt lat="35.057623" lon="-85.071407"><ele>240.5</ele><time>2026-08-02T19:01:31Z</time></trkpt>
<trkpt lat="35.057628" lon="-85.071371"><ele>240.2</ele><time>2026-08-02T19:01:33Z</time></trkpt>
<trkpt lat="35.057627" lon="-85.071335"><ele>239.9</ele><time>2026-08-02T19:01:35Z</time></trkpt>
<trkpt lat="35.057625" lon="-85.071301"><ele>239.6</ele><time>2026-08-02T19:01:37Z</time></trkpt>
<trkpt lat="35.057623" lon="-85.071267"><ele>239.6</ele><time>2026-08-02T19:01:39Z</time></trkpt>
<trkpt lat="35.057624" lon="-85.071232"><ele>239.6</ele><time>2026-08-02T19:01:41Z</time></trkpt>
<trkpt lat="35.057626" lon="-85.071197"><ele>239.6</ele><time>2026-08-02T19:01:43Z</time></trkpt>
<trkpt lat="35.057637" lon="-85.071148"><ele>239.3</ele><time>2026-08-02T19:01:46Z</time></trkpt>
<trkpt lat="35.057649" lon="-85.071116"><ele>239.6</ele><time>2026-08-02T19:01:48Z</time></trkpt>
<trkpt lat="35.057658" lon="-85.071084"><ele>239.3</ele><time>2026-08-02T19:01:50Z</time></trkpt>
<trkpt lat="35.057666" lon="-85.071046"><ele>239.6</ele><time>2026-08-02T19:01:52Z</time></trkpt>
<trkpt lat="35.057666" lon="-85.071009"><ele>239.0</ele><time>2026-08-02T19:01:54Z</time></trkpt>
<trkpt lat="35.057664" lon="-85.070971"><ele>238.7</ele><time>2026-08-02T19:01:56Z</time></trkpt>
<trkpt lat="35.057654" lon="-85.070932"><ele>238.7</ele><time>2026-08-02T19:01:58Z</time></trkpt>
<trkpt lat="35.057639" lon="-85.070894"><ele>238.4</ele><time>2026-08-02T19:02:00Z</time></trkpt>
<trkpt lat="35.057622" lon="-85.070859"><ele>238.4</ele><time>2026-08-02T19:02:02Z</time></trkpt>
<trkpt lat="35.0576" lon="-85.070831"><ele>238.0</ele><time>2026-08-02T19:02:04Z</time></trkpt>
<trkpt lat="35.057579" lon="-85.070806"><ele>238.0</ele><time>2026-08-02T19:02:06Z</time></trkpt>
<trkpt lat="35.057556" lon="-85.070781"><ele>237.7</ele><time>2026-08-02T19:02:08Z</time></trkpt>
<trkpt lat="35.057531" lon="-85.070759"><ele>237.7</ele><time>2026-08-02T19:02:10Z</time></trkpt>
<trkpt lat="35.057507" lon="-85.07074"><ele>238.0</ele><time>2026-08-02T19:02:12Z</time></trkpt>
<trkpt lat="35.057487" lon="-85.07071"><ele>238.4</ele><time>2026-08-02T19:02:14Z</time></trkpt>
<trkpt lat="35.057466" lon="-85.070682"><ele>238.4</ele><time>2026-08-02T19:02:16Z</time></trkpt>
<trkpt lat="35.057439" lon="-85.070658"><ele>238.7</ele><time>2026-08-02T19:02:18Z</time></trkpt>
<trkpt lat="35.057408" lon="-85.070652"><ele>239.0</ele><time>2026-08-02T19:02:20Z</time></trkpt>
<trkpt lat="35.057375" lon="-85.07066"><ele>239.3</ele><time>2026-08-02T19:02:22Z</time></trkpt>
<trkpt lat="35.057344" lon="-85.070671"><ele>239.9</ele><time>2026-08-02T19:02:24Z</time></trkpt>
<trkpt lat="35.057313" lon="-85.070681"><ele>240.2</ele><time>2026-08-02T19:02:26Z</time></trkpt>
<trkpt lat="35.057285" lon="-85.070695"><ele>240.2</ele><time>2026-08-02T19:02:28Z</time></trkpt>
<trkpt lat="35.057258" lon="-85.070711"><ele>240.5</ele><time>2026-08-02T19:02:30Z</time></trkpt>
<trkpt lat="35.057232" lon="-85.07073"><ele>241.4</ele><time>2026-08-02T19:02:32Z</time></trkpt>
<trkpt lat="35.057204" lon="-85.070746"><ele>241.7</ele><time>2026-08-02T19:02:34Z</time></trkpt>
<trkpt lat="35.057187" lon="-85.070758"><ele>242.0</ele><time>2026-08-02T19:02:36Z</time></trkpt>
<trkpt lat="35.057187" lon="-85.070762"><ele>242.3</ele><time>2026-08-02T19:02:37Z</time></trkpt>
<trkpt lat="35.05718" lon="-85.070768"><ele>242.0</ele><time>2026-08-02T19:02:38Z</time></trkpt>
<trkpt lat="35.057157" lon="-85.070802"><ele>241.7</ele><time>2026-08-02T19:02:40Z</time></trkpt>
<trkpt lat="35.057134" lon="-85.070829"><ele>241.7</ele><time>2026-08-02T19:02:42Z</time></trkpt>
<trkpt lat="35.057113" lon="-85.070856"><ele>241.4</ele><time>2026-08-02T19:02:44Z</time></trkpt>
<trkpt lat="35.057092" lon="-85.070885"><ele>241.7</ele><time>2026-08-02T19:02:46Z</time></trkpt>
<trkpt lat="35.057066" lon="-85.070912"><ele>242.0</ele><time>2026-08-02T19:02:48Z</time></trkpt>
<trkpt lat="35.057039" lon="-85.070934"><ele>242.6</ele><time>2026-08-02T19:02:50Z</time></trkpt>
<trkpt lat="35.05701" lon="-85.070953"><ele>243.2</ele><time>2026-08-02T19:02:52Z</time></trkpt>
<trkpt lat="35.056984" lon="-85.070973"><ele>242.6</ele><time>2026-08-02T19:02:54Z</time></trkpt>
<trkpt lat="35.056955" lon="-85.070987"><ele>242.9</ele><time>2026-08-02T19:02:56Z</time></trkpt>
<trkpt lat="35.056926" lon="-85.070997"><ele>243.2</ele><time>2026-08-02T19:02:58Z</time></trkpt>
<trkpt lat="35.056891" lon="-85.071002"><ele>242.3</ele><time>2026-08-02T19:03:03Z</time></trkpt>
<trkpt lat="35.056861" lon="-85.071005"><ele>242.3</ele><time>2026-08-02T19:03:05Z</time></trkpt>
<trkpt lat="35.05683" lon="-85.071008"><ele>242.6</ele><time>2026-08-02T19:03:07Z</time></trkpt>
<trkpt lat="35.056797" lon="-85.07101"><ele>242.6</ele><time>2026-08-02T19:03:09Z</time></trkpt>
<trkpt lat="35.056768" lon="-85.071"><ele>243.5</ele><time>2026-08-02T19:03:11Z</time></trkpt>
<trkpt lat="35.05674" lon="-85.070989"><ele>242.6</ele><time>2026-08-02T19:03:13Z</time></trkpt>
<trkpt lat="35.056707" lon="-85.070974"><ele>242.0</ele><time>2026-08-02T19:03:15Z</time></trkpt>
<trkpt lat="35.056676" lon="-85.07096"><ele>242.0</ele><time>2026-08-02T19:03:17Z</time></trkpt>
<trkpt lat="35.056645" lon="-85.070947"><ele>241.7</ele><time>2026-08-02T19:03:19Z</time></trkpt>
<trkpt lat="35.056616" lon="-85.07093"><ele>241.4</ele><time>2026-08-02T19:03:21Z</time></trkpt>
<trkpt lat="35.056588" lon="-85.070907"><ele>241.4</ele><time>2026-08-02T19:03:23Z</time></trkpt>
<trkpt lat="35.056562" lon="-85.070884"><ele>241.1</ele><time>2026-08-02T19:03:25Z</time></trkpt>
<trkpt lat="35.056539" lon="-85.070859"><ele>241.1</ele><time>2026-08-02T19:03:27Z</time></trkpt>
<trkpt lat="35.056517" lon="-85.070835"><ele>240.5</ele><time>2026-08-02T19:03:29Z</time></trkpt>
<trkpt lat="35.056496" lon="-85.070812"><ele>239.9</ele><time>2026-08-02T19:03:31Z</time></trkpt>
<trkpt lat="35.056466" lon="-85.070795"><ele>239.9</ele><time>2026-08-02T19:03:33Z</time></trkpt>
<trkpt lat="35.056458" lon="-85.07076"><ele>239.6</ele><time>2026-08-02T19:03:35Z</time></trkpt>
<trkpt lat="35.056444" lon="-85.070727"><ele>239.3</ele><time>2026-08-02T19:03:37Z</time></trkpt>
<trkpt lat="35.056431" lon="-85.070692"><ele>238.7</ele><time>2026-08-02T19:03:39Z</time></trkpt>
<trkpt lat="35.056423" lon="-85.070656"><ele>238.0</ele><time>2026-08-02T19:03:41Z</time></trkpt>
<trkpt lat="35.056418" lon="-85.070622"><ele>237.7</ele><time>2026-08-02T19:03:43Z</time></trkpt>
<trkpt lat="35.056413" lon="-85.070588"><ele>237.4</ele><time>2026-08-02T19:03:45Z</time></trkpt>
<trkpt lat="35.056409" lon="-85.070553"><ele>237.1</ele><time>2026-08-02T19:03:47Z</time></trkpt>
<trkpt lat="35.056411" lon="-85.070516"><ele>237.1</ele><time>2026-08-02T19:03:49Z</time></trkpt>
<trkpt lat="35.056425" lon="-85.070484"><ele>236.2</ele><time>2026-08-02T19:03:51Z</time></trkpt>
<trkpt lat="35.056448" lon="-85.070463"><ele>235.9</ele><time>2026-08-02T19:03:53Z</time></trkpt>
<trkpt lat="35.056472" lon="-85.07044"><ele>236.2</ele><time>2026-08-02T19:03:55Z</time></trkpt>
<trkpt lat="35.056495" lon="-85.070418"><ele>236.2</ele><time>2026-08-02T19:03:57Z</time></trkpt>
<trkpt lat="35.056517" lon="-85.070393"><ele>235.9</ele><time>2026-08-02T19:03:59Z</time></trkpt>
<trkpt lat="35.056539" lon="-85.070368"><ele>235.9</ele><time>2026-08-02T19:04:01Z</time></trkpt>
<trkpt lat="35.056562" lon="-85.070343"><ele>236.5</ele><time>2026-08-02T19:04:03Z</time></trkpt>
<trkpt lat="35.056588" lon="-85.070322"><ele>236.5</ele><time>2026-08-02T19:04:05Z</time></trkpt>
<trkpt lat="35.056621" lon="-85.070321"><ele>236.8</ele><time>2026-08-02T19:04:07Z</time></trkpt>
<trkpt lat="35.056657" lon="-85.070297"><ele>236.8</ele><time>2026-08-02T19:04:10Z</time></trkpt>
<trkpt lat="35.056691" lon="-85.070288"><ele>236.8</ele><time>2026-08-02T19:04:12Z</time></trkpt>
<trkpt lat="35.056719" lon="-85.070279"><ele>236.8</ele><time>2026-08-02T19:04:14Z</time></trkpt>
<trkpt lat="35.056746" lon="-85.070298"><ele>236.5</ele><time>2026-08-02T19:04:16Z</time></trkpt>
<trkpt lat="35.056774" lon="-85.070301"><ele>237.1</ele><time>2026-08-02T19:04:19Z</time></trkpt>
<trkpt lat="35.056785" lon="-85.070255"><ele>236.2</ele><time>2026-08-02T19:04:21Z</time></trkpt>
<trkpt lat="35.056794" lon="-85.070217"><ele>235.9</ele><time>2026-08-02T19:04:23Z</time></trkpt>
<trkpt lat="35.056813" lon="-85.070203"><ele>236.5</ele><time>2026-08-02T19:04:25Z</time></trkpt>
<trkpt lat="35.056817" lon="-85.070204"><ele>236.2</ele><time>2026-08-02T19:04:26Z</time></trkpt>
<trkpt lat="35.056817" lon="-85.070207"><ele>236.2</ele><time>2026-08-02T19:04:29Z</time></trkpt>
<trkpt lat="35.056822" lon="-85.070204"><ele>235.9</ele><time>2026-08-02T19:04:30Z</time></trkpt>
<trkpt lat="35.056849" lon="-85.070183"><ele>236.8</ele><time>2026-08-02T19:04:32Z</time></trkpt>
<trkpt lat="35.056874" lon="-85.070167"><ele>237.4</ele><time>2026-08-02T19:04:34Z</time></trkpt>
<trkpt lat="35.056902" lon="-85.070149"><ele>237.1</ele><time>2026-08-02T19:04:37Z</time></trkpt>
<trkpt lat="35.056897" lon="-85.070144"><ele>237.1</ele><time>2026-08-02T19:04:38Z</time></trkpt>
<trkpt lat="35.056896" lon="-85.070141"><ele>236.8</ele><time>2026-08-02T19:04:42Z</time></trkpt>
<trkpt lat="35.056905" lon="-85.070141"><ele>237.1</ele><time>2026-08-02T19:04:43Z</time></trkpt>
<trkpt lat="35.056934" lon="-85.070137"><ele>236.8</ele><time>2026-08-02T19:04:45Z</time></trkpt>
<trkpt lat="35.05697" lon="-85.070127"><ele>236.2</ele><time>2026-08-02T19:04:48Z</time></trkpt>
<trkpt lat="35.057" lon="-85.070095"><ele>236.8</ele><time>2026-08-02T19:04:51Z</time></trkpt>
<trkpt lat="35.057024" lon="-85.070076"><ele>237.4</ele><time>2026-08-02T19:04:53Z</time></trkpt>
<trkpt lat="35.05705" lon="-85.070057"><ele>237.4</ele><time>2026-08-02T19:04:55Z</time></trkpt>
<trkpt lat="35.05708" lon="-85.070041"><ele>237.7</ele><time>2026-08-02T19:04:57Z</time></trkpt>
<trkpt lat="35.05711" lon="-85.070026"><ele>238.0</ele><time>2026-08-02T19:04:59Z</time></trkpt>
<trkpt lat="35.057137" lon="-85.07001"><ele>238.7</ele><time>2026-08-02T19:05:01Z</time></trkpt>
<trkpt lat="35.057166" lon="-85.069994"><ele>239.0</ele><time>2026-08-02T19:05:03Z</time></trkpt>
<trkpt lat="35.057195" lon="-85.069974"><ele>239.3</ele><time>2026-08-02T19:05:05Z</time></trkpt>
<trkpt lat="35.057218" lon="-85.069948"><ele>239.3</ele><time>2026-08-02T19:05:07Z</time></trkpt>
<trkpt lat="35.057232" lon="-85.06991"><ele>239.3</ele><time>2026-08-02T19:05:09Z</time></trkpt>
<trkpt lat="35.05724" lon="-85.069868"><ele>239.6</ele><time>2026-08-02T19:05:11Z</time></trkpt>
<trkpt lat="35.057242" lon="-85.069827"><ele>239.6</ele><time>2026-08-02T19:05:13Z</time></trkpt>
<trkpt lat="35.05724" lon="-85.069789"><ele>239.6</ele><time>2026-08-02T19:05:15Z</time></trkpt>
<trkpt lat="35.057254" lon="-85.069758"><ele>239.6</ele><time>2026-08-02T19:05:17Z</time></trkpt>
<trkpt lat="35.057282" lon="-85.069734"><ele>239.6</ele><time>2026-08-02T19:05:19Z</time></trkpt>
<trkpt lat="35.057311" lon="-85.069716"><ele>239.6</ele><time>2026-08-02T19:05:21Z</time></trkpt>
<trkpt lat="35.057341" lon="-85.069702"><ele>239.9</ele><time>2026-08-02T19:05:23Z</time></trkpt>
<trkpt lat="35.057372" lon="-85.069693"><ele>239.9</ele><time>2026-08-02T19:05:25Z</time></trkpt>
<trkpt lat="35.057403" lon="-85.069683"><ele>239.9</ele><time>2026-08-02T19:05:27Z</time></trkpt>
<trkpt lat="35.057436" lon="-85.069678"><ele>239.6</ele><time>2026-08-02T19:05:29Z</time></trkpt>
<trkpt lat="35.057467" lon="-85.06967"><ele>239.6</ele><time>2026-08-02T19:05:31Z</time></trkpt>
<trkpt lat="35.0575" lon="-85.069667"><ele>239.3</ele><time>2026-08-02T19:05:33Z</time></trkpt>
<trkpt lat="35.057534" lon="-85.069662"><ele>239.3</ele><time>2026-08-02T19:05:35Z</time></trkpt>
<trkpt lat="35.057567" lon="-85.069654"><ele>239.3</ele><time>2026-08-02T19:05:37Z</time></trkpt>
<trkpt lat="35.057599" lon="-85.069654"><ele>238.7</ele><time>2026-08-02T19:05:39Z</time></trkpt>
<trkpt lat="35.057631" lon="-85.069644"><ele>239.6</ele><time>2026-08-02T19:05:41Z</time></trkpt>
<trkpt lat="35.05766" lon="-85.069629"><ele>238.7</ele><time>2026-08-02T19:05:43Z</time></trkpt>
<trkpt lat="35.057691" lon="-85.069622"><ele>238.7</ele><time>2026-08-02T19:05:45Z</time></trkpt>
<trkpt lat="35.057724" lon="-85.069614"><ele>239.0</ele><time>2026-08-02T19:05:47Z</time></trkpt>
<trkpt lat="35.057757" lon="-85.069608"><ele>237.7</ele><time>2026-08-02T19:05:49Z</time></trkpt>
<trkpt lat="35.057792" lon="-85.069606"><ele>237.7</ele><time>2026-08-02T19:05:51Z</time></trkpt>
<trkpt lat="35.057824" lon="-85.069592"><ele>238.7</ele><time>2026-08-02T19:05:53Z</time></trkpt>
<trkpt lat="35.05786" lon="-85.069597"><ele>238.7</ele><time>2026-08-02T19:05:55Z</time></trkpt>
<trkpt lat="35.057891" lon="-85.069594"><ele>238.0</ele><time>2026-08-02T19:05:57Z</time></trkpt>
<trkpt lat="35.057927" lon="-85.069595"><ele>239.3</ele><time>2026-08-02T19:05:59Z</time></trkpt>
<trkpt lat="35.057962" lon="-85.069587"><ele>240.8</ele><time>2026-08-02T19:06:01Z</time></trkpt>
<trkpt lat="35.057995" lon="-85.069578"><ele>240.5</ele><time>2026-08-02T19:06:03Z</time></trkpt>
<trkpt lat="35.058027" lon="-85.069571"><ele>240.2</ele><time>2026-08-02T19:06:05Z</time></trkpt>
<trkpt lat="35.058061" lon="-85.069566"><ele>239.3</ele><time>2026-08-02T19:06:07Z</time></trkpt>
<trkpt lat="35.058093" lon="-85.069568"><ele>239.0</ele><time>2026-08-02T19:06:09Z</time></trkpt>
<trkpt lat="35.058125" lon="-85.069559"><ele>238.4</ele><time>2026-08-02T19:06:11Z</time></trkpt>
<trkpt lat="35.058155" lon="-85.069553"><ele>237.7</ele><time>2026-08-02T19:06:13Z</time></trkpt>
<trkpt lat="35.058186" lon="-85.069542"><ele>238.7</ele><time>2026-08-02T19:06:15Z</time></trkpt>
<trkpt lat="35.058216" lon="-85.06953"><ele>239.0</ele><time>2026-08-02T19:06:17Z</time></trkpt>
<trkpt lat="35.058244" lon="-85.06952"><ele>238.0</ele><time>2026-08-02T19:06:19Z</time></trkpt>
<trkpt lat="35.058273" lon="-85.069513"><ele>237.4</ele><time>2026-08-02T19:06:21Z</time></trkpt>
<trkpt lat="35.058306" lon="-85.069511"><ele>237.1</ele><time>2026-08-02T19:06:23Z</time></trkpt>
<trkpt lat="35.05834" lon="-85.069509"><ele>237.4</ele><time>2026-08-02T19:06:25Z</time></trkpt>
<trkpt lat="35.058373" lon="-85.069507"><ele>237.4</ele><time>2026-08-02T19:06:27Z</time></trkpt>
<trkpt lat="35.058406" lon="-85.069502"><ele>238.7</ele><time>2026-08-02T19:06:29Z</time></trkpt>
<trkpt lat="35.058439" lon="-85.069499"><ele>237.7</ele><time>2026-08-02T19:06:31Z</time></trkpt>
<trkpt lat="35.05847" lon="-85.069506"><ele>237.7</ele><time>2026-08-02T19:06:33Z</time></trkpt>
<trkpt lat="35.058502" lon="-85.06951"><ele>238.4</ele><time>2026-08-02T19:06:35Z</time></trkpt>
<trkpt lat="35.058533" lon="-85.069516"><ele>239.3</ele><time>2026-08-02T19:06:37Z</time></trkpt>
<trkpt lat="35.058564" lon="-85.069519"><ele>239.3</ele><time>2026-08-02T19:06:39Z</time></trkpt>
<trkpt lat="35.058593" lon="-85.069522"><ele>238.7</ele><time>2026-08-02T19:06:41Z</time></trkpt>
<trkpt lat="35.058624" lon="-85.069524"><ele>238.4</ele><time>2026-08-02T19:06:43Z</time></trkpt>
<trkpt lat="35.058654" lon="-85.069525"><ele>238.0</ele><time>2026-08-02T19:06:45Z</time></trkpt>
<trkpt lat="35.058683" lon="-85.069527"><ele>239.6</ele><time>2026-08-02T19:06:47Z</time></trkpt>
<trkpt lat="35.058715" lon="-85.069524"><ele>239.9</ele><time>2026-08-02T19:06:49Z</time></trkpt>
<trkpt lat="35.058749" lon="-85.069517"><ele>239.0</ele><time>2026-08-02T19:06:51Z</time></trkpt>
<trkpt lat="35.05878" lon="-85.06951"><ele>238.7</ele><time>2026-08-02T19:06:53Z</time></trkpt>
<trkpt lat="35.058808" lon="-85.06951"><ele>238.7</ele><time>2026-08-02T19:06:55Z</time></trkpt>
<trkpt lat="35.058838" lon="-85.069507"><ele>238.7</ele><time>2026-08-02T19:06:57Z</time></trkpt>
<trkpt lat="35.058871" lon="-85.069506"><ele>238.0</ele><time>2026-08-02T19:06:59Z</time></trkpt>
<trkpt lat="35.058902" lon="-85.069514"><ele>238.4</ele><time>2026-08-02T19:07:01Z</time></trkpt>
<trkpt lat="35.058931" lon="-85.069524"><ele>238.7</ele><time>2026-08-02T19:07:03Z</time></trkpt>
<trkpt lat="35.058959" lon="-85.069539"><ele>237.1</ele><time>2026-08-02T19:07:05Z</time></trkpt>
<trkpt lat="35.058989" lon="-85.06956"><ele>236.8</ele><time>2026-08-02T19:07:07Z</time></trkpt>
<trkpt lat="35.059011" lon="-85.069592"><ele>238.0</ele><time>2026-08-02T19:07:09Z</time></trkpt>
<trkpt lat="35.059027" lon="-85.069627"><ele>239.3</ele><time>2026-08-02T19:07:11Z</time></trkpt>
<trkpt lat="35.059045" lon="-85.069659"><ele>239.6</ele><time>2026-08-02T19:07:13Z</time></trkpt>
<trkpt lat="35.059069" lon="-85.069691"><ele>239.9</ele><time>2026-08-02T19:07:15Z</time></trkpt>
<trkpt lat="35.059096" lon="-85.069716"><ele>241.1</ele><time>2026-08-02T19:07:17Z</time></trkpt>
<trkpt lat="35.059122" lon="-85.069739"><ele>240.8</ele><time>2026-08-02T19:07:19Z</time></trkpt>
<trkpt lat="35.059147" lon="-85.06976"><ele>240.2</ele><time>2026-08-02T19:07:21Z</time></trkpt>
<trkpt lat="35.059172" lon="-85.069781"><ele>241.1</ele><time>2026-08-02T19:07:23Z</time></trkpt>
<trkpt lat="35.0592" lon="-85.069801"><ele>241.1</ele><time>2026-08-02T19:07:25Z</time></trkpt>
<trkpt lat="35.059227" lon="-85.069819"><ele>240.8</ele><time>2026-08-02T19:07:27Z</time></trkpt>
<trkpt lat="35.059257" lon="-85.069832"><ele>240.5</ele><time>2026-08-02T19:07:29Z</time></trkpt>
<trkpt lat="35.059284" lon="-85.069858"><ele>240.8</ele><time>2026-08-02T19:07:31Z</time></trkpt>
<trkpt lat="35.059311" lon="-85.069883"><ele>240.2</ele><time>2026-08-02T19:07:33Z</time></trkpt>
<trkpt lat="35.059334" lon="-85.06991"><ele>239.6</ele><time>2026-08-02T19:07:35Z</time></trkpt>
<trkpt lat="35.059353" lon="-85.069945"><ele>239.3</ele><time>2026-08-02T19:07:37Z</time></trkpt>
<trkpt lat="35.059368" lon="-85.069982"><ele>239.0</ele><time>2026-08-02T19:07:39Z</time></trkpt>
<trkpt lat="35.05938" lon="-85.070023"><ele>238.7</ele><time>2026-08-02T19:07:41Z</time></trkpt>
<trkpt lat="35.059386" lon="-85.070066"><ele>238.0</ele><time>2026-08-02T19:07:43Z</time></trkpt>
<trkpt lat="35.059399" lon="-85.070103"><ele>237.7</ele><time>2026-08-02T19:07:45Z</time></trkpt>
<trkpt lat="35.059414" lon="-85.070141"><ele>238.0</ele><time>2026-08-02T19:07:47Z</time></trkpt>
<trkpt lat="35.059441" lon="-85.070168"><ele>238.0</ele><time>2026-08-02T19:07:49Z</time></trkpt>
<trkpt lat="35.059466" lon="-85.07019"><ele>237.7</ele><time>2026-08-02T19:07:51Z</time></trkpt>
<trkpt lat="35.059493" lon="-85.070209"><ele>238.4</ele><time>2026-08-02T19:07:53Z</time></trkpt>
<trkpt lat="35.059521" lon="-85.070229"><ele>238.4</ele><time>2026-08-02T19:07:55Z</time></trkpt>
<trkpt lat="35.059552" lon="-85.070247"><ele>238.4</ele><time>2026-08-02T19:07:57Z</time></trkpt>
<trkpt lat="35.059583" lon="-85.070261"><ele>239.0</ele><time>2026-08-02T19:07:59Z</time></trkpt>
<trkpt lat="35.059614" lon="-85.070274"><ele>238.4</ele><time>2026-08-02T19:08:01Z</time></trkpt>
<trkpt lat="35.059642" lon="-85.070293"><ele>238.7</ele><time>2026-08-02T19:08:03Z</time></trkpt>
<trkpt lat="35.059664" lon="-85.07032"><ele>238.4</ele><time>2026-08-02T19:08:05Z</time></trkpt>
<trkpt lat="35.059687" lon="-85.070347"><ele>238.4</ele><time>2026-08-02T19:08:07Z</time></trkpt>
<trkpt lat="35.059707" lon="-85.070377"><ele>237.4</ele><time>2026-08-02T19:08:09Z</time></trkpt>
<trkpt lat="35.059726" lon="-85.070408"><ele>237.7</ele><time>2026-08-02T19:08:11Z</time></trkpt>
<trkpt lat="35.059752" lon="-85.070432"><ele>236.5</ele><time>2026-08-02T19:08:13Z</time></trkpt>
<trkpt lat="35.05978" lon="-85.070445"><ele>236.8</ele><time>2026-08-02T19:08:15Z</time></trkpt>
<trkpt lat="35.05981" lon="-85.070444"><ele>238.0</ele><time>2026-08-02T19:08:17Z</time></trkpt>
<trkpt lat="35.05984" lon="-85.070444"><ele>237.7</ele><time>2026-08-02T19:08:19Z</time></trkpt>
<trkpt lat="35.059868" lon="-85.070452"><ele>237.4</ele><time>2026-08-02T19:08:21Z</time></trkpt>
<trkpt lat="35.059894" lon="-85.07047"><ele>237.1</ele><time>2026-08-02T19:08:23Z</time></trkpt>
<trkpt lat="35.059931" lon="-85.07049"><ele>236.5</ele><time>2026-08-02T19:08:26Z</time></trkpt>
<trkpt lat="35.059965" lon="-85.070499"><ele>237.4</ele><time>2026-08-02T19:08:28Z</time></trkpt>
<trkpt lat="35.059996" lon="-85.070498"><ele>237.7</ele><time>2026-08-02T19:08:30Z</time></trkpt>
<trkpt lat="35.060027" lon="-85.070488"><ele>237.7</ele><time>2026-08-02T19:08:32Z</time></trkpt>
<trkpt lat="35.060056" lon="-85.070477"><ele>237.4</ele><time>2026-08-02T19:08:34Z</time></trkpt>
<trkpt lat="35.060086" lon="-85.070464"><ele>236.8</ele><time>2026-08-02T19:08:36Z</time></trkpt>
<trkpt lat="35.060113" lon="-85.070451"><ele>236.8</ele><time>2026-08-02T19:08:38Z</time></trkpt>
<trkpt lat="35.060139" lon="-85.070437"><ele>236.8</ele><time>2026-08-02T19:08:40Z</time></trkpt>
<trkpt lat="35.060166" lon="-85.070429"><ele>236.8</ele><time>2026-08-02T19:08:42Z</time></trkpt>
<trkpt lat="35.060194" lon="-85.07042"><ele>236.8</ele><time>2026-08-02T19:08:44Z</time></trkpt>
<trkpt lat="35.060223" lon="-85.070409"><ele>236.8</ele><time>2026-08-02T19:08:46Z</time></trkpt>
<trkpt lat="35.06025" lon="-85.070399"><ele>236.8</ele><time>2026-08-02T19:08:48Z</time></trkpt>
<trkpt lat="35.060274" lon="-85.070379"><ele>236.5</ele><time>2026-08-02T19:08:50Z</time></trkpt>
<trkpt lat="35.060289" lon="-85.07035"><ele>236.2</ele><time>2026-08-02T19:08:52Z</time></trkpt>
<trkpt lat="35.060304" lon="-85.070318"><ele>236.5</ele><time>2026-08-02T19:08:54Z</time></trkpt>
<trkpt lat="35.060323" lon="-85.070288"><ele>236.8</ele><time>2026-08-02T19:08:56Z</time></trkpt>
<trkpt lat="35.060345" lon="-85.070263"><ele>236.8</ele><time>2026-08-02T19:08:58Z</time></trkpt>
<trkpt lat="35.060372" lon="-85.070245"><ele>236.8</ele><time>2026-08-02T19:09:00Z</time></trkpt>
<trkpt lat="35.0604" lon="-85.070238"><ele>236.8</ele><time>2026-08-02T19:09:02Z</time></trkpt>
<trkpt lat="35.060428" lon="-85.070239"><ele>237.1</ele><time>2026-08-02T19:09:04Z</time></trkpt>
<trkpt lat="35.060469" lon="-85.07024"><ele>237.1</ele><time>2026-08-02T19:09:07Z</time></trkpt>
<trkpt lat="35.060497" lon="-85.07024"><ele>236.8</ele><time>2026-08-02T19:09:09Z</time></trkpt>
<trkpt lat="35.060539" lon="-85.070238"><ele>236.5</ele><time>2026-08-02T19:09:12Z</time></trkpt>
<trkpt lat="35.060568" lon="-85.070233"><ele>236.5</ele><time>2026-08-02T19:09:14Z</time></trkpt>
<trkpt lat="35.060596" lon="-85.070231"><ele>236.2</ele><time>2026-08-02T19:09:16Z</time></trkpt>
<trkpt lat="35.060626" lon="-85.070233"><ele>236.2</ele><time>2026-08-02T19:09:18Z</time></trkpt>
<trkpt lat="35.060655" lon="-85.070233"><ele>235.9</ele><time>2026-08-02T19:09:20Z</time></trkpt>
<trkpt lat="35.060686" lon="-85.070236"><ele>235.6</ele><time>2026-08-02T19:09:22Z</time></trkpt>
<trkpt lat="35.060716" lon="-85.070243"><ele>235.3</ele><time>2026-08-02T19:09:24Z</time></trkpt>
<trkpt lat="35.060747" lon="-85.070251"><ele>235.0</ele><time>2026-08-02T19:09:26Z</time></trkpt>
<trkpt lat="35.060776" lon="-85.070243"><ele>234.7</ele><time>2026-08-02T19:09:28Z</time></trkpt>
<trkpt lat="35.060803" lon="-85.070222"><ele>234.4</ele><time>2026-08-02T19:09:30Z</time></trkpt>
<trkpt lat="35.060828" lon="-85.070202"><ele>233.8</ele><time>2026-08-02T19:09:32Z</time></trkpt>
<trkpt lat="35.060854" lon="-85.070185"><ele>233.8</ele><time>2026-08-02T19:09:34Z</time></trkpt>
<trkpt lat="35.060885" lon="-85.070174"><ele>234.1</ele><time>2026-08-02T19:09:36Z</time></trkpt>
<trkpt lat="35.060918" lon="-85.070177"><ele>233.5</ele><time>2026-08-02T19:09:38Z</time></trkpt>
<trkpt lat="35.060948" lon="-85.070181"><ele>233.5</ele><time>2026-08-02T19:09:40Z</time></trkpt>
<trkpt lat="35.060979" lon="-85.070179"><ele>233.8</ele><time>2026-08-02T19:09:42Z</time></trkpt>
<trkpt lat="35.06101" lon="-85.070184"><ele>232.3</ele><time>2026-08-02T19:09:44Z</time></trkpt>
<trkpt lat="35.061039" lon="-85.070186"><ele>232.9</ele><time>2026-08-02T19:09:46Z</time></trkpt>
<trkpt lat="35.06107" lon="-85.070187"><ele>232.0</ele><time>2026-08-02T19:09:48Z</time></trkpt>
<trkpt lat="35.0611" lon="-85.070177"><ele>231.3</ele><time>2026-08-02T19:09:50Z</time></trkpt>
<trkpt lat="35.061132" lon="-85.070178"><ele>231.0</ele><time>2026-08-02T19:09:52Z</time></trkpt>
<trkpt lat="35.061159" lon="-85.070186"><ele>231.0</ele><time>2026-08-02T19:09:54Z</time></trkpt>
<trkpt lat="35.061199" lon="-85.070187"><ele>230.1</ele><time>2026-08-02T19:09:57Z</time></trkpt>
<trkpt lat="35.061235" lon="-85.070186"><ele>230.1</ele><time>2026-08-02T19:10:00Z</time></trkpt>
<trkpt lat="35.061271" lon="-85.07018"><ele>229.8</ele><time>2026-08-02T19:10:03Z</time></trkpt>
<trkpt lat="35.061313" lon="-85.070171"><ele>231.0</ele><time>2026-08-02T19:10:06Z</time></trkpt>
<trkpt lat="35.061342" lon="-85.070166"><ele>231.3</ele><time>2026-08-02T19:10:08Z</time></trkpt>
<trkpt lat="35.06137" lon="-85.070163"><ele>231.6</ele><time>2026-08-02T19:10:10Z</time></trkpt>
<trkpt lat="35.061403" lon="-85.07016"><ele>232.6</ele><time>2026-08-02T19:10:12Z</time></trkpt>
<trkpt lat="35.061435" lon="-85.07016"><ele>233.8</ele><time>2026-08-02T19:10:14Z</time></trkpt>
<trkpt lat="35.061467" lon="-85.070168"><ele>234.4</ele><time>2026-08-02T19:10:16Z</time></trkpt>
<trkpt lat="35.061501" lon="-85.070174"><ele>234.4</ele><time>2026-08-02T19:10:18Z</time></trkpt>
<trkpt lat="35.061534" lon="-85.070181"><ele>235.0</ele><time>2026-08-02T19:10:20Z</time></trkpt>
<trkpt lat="35.061565" lon="-85.070188"><ele>235.0</ele><time>2026-08-02T19:10:22Z</time></trkpt>
<trkpt lat="35.061597" lon="-85.070195"><ele>234.1</ele><time>2026-08-02T19:10:24Z</time></trkpt>
<trkpt lat="35.061634" lon="-85.070196"><ele>234.4</ele><time>2026-08-02T19:10:26Z</time></trkpt>
<trkpt lat="35.061666" lon="-85.070189"><ele>234.1</ele><time>2026-08-02T19:10:28Z</time></trkpt>
<trkpt lat="35.061697" lon="-85.070183"><ele>233.8</ele><time>2026-08-02T19:10:30Z</time></trkpt>
<trkpt lat="35.061728" lon="-85.070172"><ele>234.1</ele><time>2026-08-02T19:10:32Z</time></trkpt>
<trkpt lat="35.061759" lon="-85.070162"><ele>233.8</ele><time>2026-08-02T19:10:34Z</time></trkpt>
<trkpt lat="35.061788" lon="-85.070154"><ele>233.5</ele><time>2026-08-02T19:10:36Z</time></trkpt>
<trkpt lat="35.061819" lon="-85.070146"><ele>233.2</ele><time>2026-08-02T19:10:38Z</time></trkpt>
<trkpt lat="35.06185" lon="-85.070138"><ele>232.6</ele><time>2026-08-02T19:10:40Z</time></trkpt>
<trkpt lat="35.061882" lon="-85.070131"><ele>232.6</ele><time>2026-08-02T19:10:42Z</time></trkpt>
<trkpt lat="35.061914" lon="-85.070129"><ele>232.3</ele><time>2026-08-02T19:10:44Z</time></trkpt>
<trkpt lat="35.061945" lon="-85.070132"><ele>232.3</ele><time>2026-08-02T19:10:46Z</time></trkpt>
<trkpt lat="35.061976" lon="-85.070139"><ele>232.3</ele><time>2026-08-02T19:10:48Z</time></trkpt>
<trkpt lat="35.062006" lon="-85.070139"><ele>232.3</ele><time>2026-08-02T19:10:50Z</time></trkpt>
<trkpt lat="35.062036" lon="-85.070129"><ele>231.3</ele><time>2026-08-02T19:10:52Z</time></trkpt>
<trkpt lat="35.062063" lon="-85.070113"><ele>231.0</ele><time>2026-08-02T19:10:54Z</time></trkpt>
<trkpt lat="35.062093" lon="-85.0701"><ele>230.4</ele><time>2026-08-02T19:10:56Z</time></trkpt>
<trkpt lat="35.062122" lon="-85.070086"><ele>230.1</ele><time>2026-08-02T19:10:58Z</time></trkpt>
<trkpt lat="35.06215" lon="-85.07007"><ele>229.5</ele><time>2026-08-02T19:11:00Z</time></trkpt>
<trkpt lat="35.062179" lon="-85.07005"><ele>229.8</ele><time>2026-08-02T19:11:02Z</time></trkpt>
<trkpt lat="35.062206" lon="-85.070034"><ele>230.1</ele><time>2026-08-02T19:11:04Z</time></trkpt>
<trkpt lat="35.062234" lon="-85.070014"><ele>230.4</ele><time>2026-08-02T19:11:06Z</time></trkpt>
<trkpt lat="35.062258" lon="-85.069994"><ele>230.7</ele><time>2026-08-02T19:11:08Z</time></trkpt>
<trkpt lat="35.062282" lon="-85.069972"><ele>230.7</ele><time>2026-08-02T19:11:10Z</time></trkpt>
<trkpt lat="35.062309" lon="-85.069953"><ele>230.7</ele><time>2026-08-02T19:11:12Z</time></trkpt>
<trkpt lat="35.062335" lon="-85.069936"><ele>230.4</ele><time>2026-08-02T19:11:14Z</time></trkpt>
<trkpt lat="35.062363" lon="-85.06992"><ele>230.1</ele><time>2026-08-02T19:11:16Z</time></trkpt>
<trkpt lat="35.062394" lon="-85.069905"><ele>229.8</ele><time>2026-08-02T19:11:18Z</time></trkpt>
<trkpt lat="35.062424" lon="-85.069892"><ele>229.5</ele><time>2026-08-02T19:11:20Z</time></trkpt>
<trkpt lat="35.062457" lon="-85.069883"><ele>230.4</ele><time>2026-08-02T19:11:22Z</time></trkpt>
<trkpt lat="35.062488" lon="-85.069873"><ele>230.1</ele><time>2026-08-02T19:11:24Z</time></trkpt>
<trkpt lat="35.062519" lon="-85.069862"><ele>230.1</ele><time>2026-08-02T19:11:26Z</time></trkpt>
<trkpt lat="35.06255" lon="-85.069855"><ele>230.4</ele><time>2026-08-02T19:11:28Z</time></trkpt>
<trkpt lat="35.062582" lon="-85.069849"><ele>230.4</ele><time>2026-08-02T19:11:30Z</time></trkpt>
<trkpt lat="35.062615" lon="-85.069845"><ele>230.7</ele><time>2026-08-02T19:11:32Z</time></trkpt>
<trkpt lat="35.062642" lon="-85.069831"><ele>230.4</ele><time>2026-08-02T19:11:34Z</time></trkpt>
<trkpt lat="35.062662" lon="-85.069803"><ele>231.0</ele><time>2026-08-02T19:11:36Z</time></trkpt>
<trkpt lat="35.062667" lon="-85.069769"><ele>231.3</ele><time>2026-08-02T19:11:38Z</time></trkpt>
<trkpt lat="35.06267" lon="-85.069735"><ele>231.6</ele><time>2026-08-02T19:11:40Z</time></trkpt>
<trkpt lat="35.062668" lon="-85.069699"><ele>232.3</ele><time>2026-08-02T19:11:42Z</time></trkpt>
<trkpt lat="35.062667" lon="-85.069663"><ele>232.6</ele><time>2026-08-02T19:11:44Z</time></trkpt>
<trkpt lat="35.062669" lon="-85.069628"><ele>232.9</ele><time>2026-08-02T19:11:46Z</time></trkpt>
<trkpt lat="35.062666" lon="-85.069594"><ele>233.5</ele><time>2026-08-02T19:11:48Z</time></trkpt>
<trkpt lat="35.062635" lon="-85.069574"><ele>233.8</ele><time>2026-08-02T19:11:51Z</time></trkpt>
<trkpt lat="35.062595" lon="-85.069572"><ele>234.4</ele><time>2026-08-02T19:11:54Z</time></trkpt>
<trkpt lat="35.062567" lon="-85.069581"><ele>235.0</ele><time>2026-08-02T19:11:56Z</time></trkpt>
<trkpt lat="35.062538" lon="-85.069587"><ele>235.3</ele><time>2026-08-02T19:11:58Z</time></trkpt>
<trkpt lat="35.06251" lon="-85.06959"><ele>235.3</ele><time>2026-08-02T19:12:00Z</time></trkpt>
<trkpt lat="35.062482" lon="-85.069587"><ele>235.6</ele><time>2026-08-02T19:12:02Z</time></trkpt>
<trkpt lat="35.062456" lon="-85.069577"><ele>235.3</ele><time>2026-08-02T19:12:04Z</time></trkpt>
<trkpt lat="35.062431" lon="-85.069559"><ele>235.6</ele><time>2026-08-02T19:12:06Z</time></trkpt>
<trkpt lat="35.0624" lon="-85.069527"><ele>235.6</ele><time>2026-08-02T19:12:09Z</time></trkpt>
<trkpt lat="35.062381" lon="-85.069501"><ele>235.6</ele><time>2026-08-02T19:12:11Z</time></trkpt>
<trkpt lat="35.062365" lon="-85.069472"><ele>235.3</ele><time>2026-08-02T19:12:13Z</time></trkpt>
<trkpt lat="35.062347" lon="-85.069442"><ele>235.6</ele><time>2026-08-02T19:12:15Z</time></trkpt>
<trkpt lat="35.062333" lon="-85.069411"><ele>235.3</ele><time>2026-08-02T19:12:17Z</time></trkpt>
<trkpt lat="35.062321" lon="-85.069379"><ele>235.6</ele><time>2026-08-02T19:12:19Z</time></trkpt>
<trkpt lat="35.062312" lon="-85.069347"><ele>235.6</ele><time>2026-08-02T19:12:21Z</time></trkpt>
<trkpt lat="35.062303" lon="-85.069313"><ele>235.6</ele><time>2026-08-02T19:12:23Z</time></trkpt>
<trkpt lat="35.062297" lon="-85.069277"><ele>235.6</ele><time>2026-08-02T19:12:25Z</time></trkpt>
<trkpt lat="35.062289" lon="-85.069241"><ele>235.9</ele><time>2026-08-02T19:12:27Z</time></trkpt>
<trkpt lat="35.062283" lon="-85.069205"><ele>235.9</ele><time>2026-08-02T19:12:29Z</time></trkpt>
<trkpt lat="35.062277" lon="-85.069169"><ele>236.2</ele><time>2026-08-02T19:12:31Z</time></trkpt>
<trkpt lat="35.062277" lon="-85.069133"><ele>235.9</ele><time>2026-08-02T19:12:33Z</time></trkpt>
<trkpt lat="35.062278" lon="-85.0691"><ele>235.9</ele><time>2026-08-02T19:12:35Z</time></trkpt>
<trkpt lat="35.062287" lon="-85.06905"><ele>235.6</ele><time>2026-08-02T19:12:38Z</time></trkpt>
<trkpt lat="35.062296" lon="-85.069001"><ele>235.0</ele><time>2026-08-02T19:12:41Z</time></trkpt>
<trkpt lat="35.062301" lon="-85.068968"><ele>235.3</ele><time>2026-08-02T19:12:43Z</time></trkpt>
<trkpt lat="35.062309" lon="-85.068936"><ele>234.7</ele><time>2026-08-02T19:12:45Z</time></trkpt>
<trkpt lat="35.062319" lon="-85.068888"><ele>235.0</ele><time>2026-08-02T19:12:48Z</time></trkpt>
<trkpt lat="35.062325" lon="-85.068853"><ele>235.0</ele><time>2026-08-02T19:12:50Z</time></trkpt>
<trkpt lat="35.062332" lon="-85.068818"><ele>235.0</ele><time>2026-08-02T19:12:52Z</time></trkpt>
<trkpt lat="35.062341" lon="-85.068782"><ele>235.0</ele><time>2026-08-02T19:12:54Z</time></trkpt>
<trkpt lat="35.062351" lon="-85.068749"><ele>235.0</ele><time>2026-08-02T19:12:56Z</time></trkpt>
<trkpt lat="35.062363" lon="-85.068717"><ele>235.3</ele><time>2026-08-02T19:12:58Z</time></trkpt>
<trkpt lat="35.062374" lon="-85.068682"><ele>235.6</ele><time>2026-08-02T19:13:00Z</time></trkpt>
<trkpt lat="35.062372" lon="-85.068645"><ele>235.0</ele><time>2026-08-02T19:13:02Z</time></trkpt>
<trkpt lat="35.062353" lon="-85.068615"><ele>235.3</ele><time>2026-08-02T19:13:04Z</time></trkpt>
<trkpt lat="35.062327" lon="-85.06859"><ele>235.6</ele><time>2026-08-02T19:13:06Z</time></trkpt>
<trkpt lat="35.062303" lon="-85.068563"><ele>235.9</ele><time>2026-08-02T19:13:08Z</time></trkpt>
<trkpt lat="35.062282" lon="-85.068532"><ele>236.2</ele><time>2026-08-02T19:13:10Z</time></trkpt>
<trkpt lat="35.062265" lon="-85.068503"><ele>236.8</ele><time>2026-08-02T19:13:12Z</time></trkpt>
<trkpt lat="35.06225" lon="-85.068471"><ele>237.1</ele><time>2026-08-02T19:13:14Z</time></trkpt>
<trkpt lat="35.062236" lon="-85.068437"><ele>237.1</ele><time>2026-08-02T19:13:16Z</time></trkpt>
<trkpt lat="35.062222" lon="-85.068404"><ele>237.4</ele><time>2026-08-02T19:13:18Z</time></trkpt>
<trkpt lat="35.06221" lon="-85.068367"><ele>237.1</ele><time>2026-08-02T19:13:20Z</time></trkpt>
<trkpt lat="35.062198" lon="-85.068331"><ele>237.1</ele><time>2026-08-02T19:13:22Z</time></trkpt>
<trkpt lat="35.062188" lon="-85.068295"><ele>236.8</ele><time>2026-08-02T19:13:24Z</time></trkpt>
<trkpt lat="35.06218" lon="-85.06826"><ele>236.8</ele><time>2026-08-02T19:13:26Z</time></trkpt>
<trkpt lat="35.062171" lon="-85.068227"><ele>237.1</ele><time>2026-08-02T19:13:28Z</time></trkpt>
<trkpt lat="35.062162" lon="-85.068189"><ele>237.1</ele><time>2026-08-02T19:13:30Z</time></trkpt>
<trkpt lat="35.062157" lon="-85.068152"><ele>237.1</ele><time>2026-08-02T19:13:32Z</time></trkpt>
<trkpt lat="35.062151" lon="-85.068117"><ele>236.8</ele><time>2026-08-02T19:13:34Z</time></trkpt>
<trkpt lat="35.062146" lon="-85.068083"><ele>236.5</ele><time>2026-08-02T19:13:36Z</time></trkpt>
<trkpt lat="35.062139" lon="-85.068046"><ele>236.2</ele><time>2026-08-02T19:13:38Z</time></trkpt>
<trkpt lat="35.062133" lon="-85.068011"><ele>236.2</ele><time>2026-08-02T19:13:40Z</time></trkpt>
<trkpt lat="35.062131" lon="-85.067975"><ele>236.5</ele><time>2026-08-02T19:13:42Z</time></trkpt>
<trkpt lat="35.062122" lon="-85.06794"><ele>236.2</ele><time>2026-08-02T19:13:44Z</time></trkpt>
<trkpt lat="35.062116" lon="-85.0679"><ele>235.9</ele><time>2026-08-02T19:13:46Z</time></trkpt>
<trkpt lat="35.062114" lon="-85.067861"><ele>235.6</ele><time>2026-08-02T19:13:48Z</time></trkpt>
<trkpt lat="35.062114" lon="-85.067822"><ele>235.9</ele><time>2026-08-02T19:13:50Z</time></trkpt>
<trkpt lat="35.062114" lon="-85.067784"><ele>235.3</ele><time>2026-08-02T19:13:52Z</time></trkpt>
<trkpt lat="35.062117" lon="-85.067745"><ele>235.3</ele><time>2026-08-02T19:13:54Z</time></trkpt>
<trkpt lat="35.06212" lon="-85.067708"><ele>235.3</ele><time>2026-08-02T19:13:56Z</time></trkpt>
<trkpt lat="35.06213" lon="-85.067671"><ele>235.0</ele><time>2026-08-02T19:13:58Z</time></trkpt>
<trkpt lat="35.062137" lon="-85.067637"><ele>235.3</ele><time>2026-08-02T19:14:00Z</time></trkpt>
<trkpt lat="35.062143" lon="-85.0676"><ele>234.7</ele><time>2026-08-02T19:14:02Z</time></trkpt>
<trkpt lat="35.062145" lon="-85.067564"><ele>234.7</ele><time>2026-08-02T19:14:04Z</time></trkpt>
<trkpt lat="35.062147" lon="-85.067526"><ele>235.3</ele><time>2026-08-02T19:14:06Z</time></trkpt>
<trkpt lat="35.062146" lon="-85.067489"><ele>236.2</ele><time>2026-08-02T19:14:08Z</time></trkpt>
<trkpt lat="35.062139" lon="-85.067454"><ele>236.5</ele><time>2026-08-02T19:14:10Z</time></trkpt>
<trkpt lat="35.062132" lon="-85.067417"><ele>236.8</ele><time>2026-08-02T19:14:12Z</time></trkpt>
<trkpt lat="35.062124" lon="-85.067381"><ele>236.8</ele><time>2026-08-02T19:14:14Z</time></trkpt>
<trkpt lat="35.062111" lon="-85.067349"><ele>236.5</ele><time>2026-08-02T19:14:16Z</time></trkpt>
<trkpt lat="35.062089" lon="-85.067317"><ele>236.8</ele><time>2026-08-02T19:14:18Z</time></trkpt>
<trkpt lat="35.062071" lon="-85.067286"><ele>237.4</ele><time>2026-08-02T19:14:20Z</time></trkpt>
<trkpt lat="35.062057" lon="-85.067253"><ele>237.7</ele><time>2026-08-02T19:14:22Z</time></trkpt>
<trkpt lat="35.062052" lon="-85.067215"><ele>238.0</ele><time>2026-08-02T19:14:24Z</time></trkpt>
<trkpt lat="35.06205" lon="-85.06718"><ele>237.4</ele><time>2026-08-02T19:14:26Z</time></trkpt>
<trkpt lat="35.062037" lon="-85.067148"><ele>237.7</ele><time>2026-08-02T19:14:28Z</time></trkpt>
<trkpt lat="35.062025" lon="-85.067115"><ele>237.7</ele><time>2026-08-02T19:14:30Z</time></trkpt>
<trkpt lat="35.062015" lon="-85.067078"><ele>237.7</ele><time>2026-08-02T19:14:32Z</time></trkpt>
<trkpt lat="35.062009" lon="-85.067042"><ele>236.8</ele><time>2026-08-02T19:14:34Z</time></trkpt>
<trkpt lat="35.062004" lon="-85.067003"><ele>238.0</ele><time>2026-08-02T19:14:36Z</time></trkpt>
<trkpt lat="35.062005" lon="-85.066967"><ele>237.7</ele><time>2026-08-02T19:14:38Z</time></trkpt>
<trkpt lat="35.062012" lon="-85.066932"><ele>237.1</ele><time>2026-08-02T19:14:40Z</time></trkpt>
<trkpt lat="35.062017" lon="-85.066895"><ele>237.1</ele><time>2026-08-02T19:14:42Z</time></trkpt>
<trkpt lat="35.062018" lon="-85.066858"><ele>237.1</ele><time>2026-08-02T19:14:44Z</time></trkpt>
<trkpt lat="35.062017" lon="-85.066819"><ele>236.8</ele><time>2026-08-02T19:14:46Z</time></trkpt>
<trkpt lat="35.062014" lon="-85.066779"><ele>237.1</ele><time>2026-08-02T19:14:48Z</time></trkpt>
<trkpt lat="35.062013" lon="-85.066742"><ele>237.7</ele><time>2026-08-02T19:14:50Z</time></trkpt>
<trkpt lat="35.062011" lon="-85.066704"><ele>236.8</ele><time>2026-08-02T19:14:52Z</time></trkpt>
<trkpt lat="35.06201" lon="-85.066667"><ele>237.4</ele><time>2026-08-02T19:14:54Z</time></trkpt>
<trkpt lat="35.062007" lon="-85.066631"><ele>237.4</ele><time>2026-08-02T19:14:56Z</time></trkpt>
<trkpt lat="35.062001" lon="-85.066581"><ele>236.5</ele><time>2026-08-02T19:14:59Z</time></trkpt>
<trkpt lat="35.061998" lon="-85.066543"><ele>236.2</ele><time>2026-08-02T19:15:01Z</time></trkpt>
<trkpt lat="35.061993" lon="-85.066509"><ele>235.9</ele><time>2026-08-02T19:15:03Z</time></trkpt>
<trkpt lat="35.061991" lon="-85.066475"><ele>235.6</ele><time>2026-08-02T19:15:05Z</time></trkpt>
<trkpt lat="35.061988" lon="-85.066442"><ele>235.9</ele><time>2026-08-02T19:15:07Z</time></trkpt>
<trkpt lat="35.061986" lon="-85.066407"><ele>236.2</ele><time>2026-08-02T19:15:09Z</time></trkpt>
<trkpt lat="35.06198" lon="-85.06636"><ele>235.0</ele><time>2026-08-02T19:15:12Z</time></trkpt>
<trkpt lat="35.061973" lon="-85.066327"><ele>237.1</ele><time>2026-08-02T19:15:14Z</time></trkpt>
<trkpt lat="35.061973" lon="-85.066291"><ele>237.7</ele><time>2026-08-02T19:15:16Z</time></trkpt>
<trkpt lat="35.061966" lon="-85.066254"><ele>237.7</ele><time>2026-08-02T19:15:18Z</time></trkpt>
<trkpt lat="35.061956" lon="-85.066216"><ele>237.7</ele><time>2026-08-02T19:15:20Z</time></trkpt>
<trkpt lat="35.061929" lon="-85.066189"><ele>237.4</ele><time>2026-08-02T19:15:22Z</time></trkpt>
<trkpt lat="35.061895" lon="-85.066186"><ele>238.0</ele><time>2026-08-02T19:15:24Z</time></trkpt>
<trkpt lat="35.061865" lon="-85.066187"><ele>238.4</ele><time>2026-08-02T19:15:26Z</time></trkpt>
<trkpt lat="35.061836" lon="-85.06619"><ele>238.7</ele><time>2026-08-02T19:15:28Z</time></trkpt>
<trkpt lat="35.061808" lon="-85.066191"><ele>239.0</ele><time>2026-08-02T19:15:30Z</time></trkpt>
<trkpt lat="35.061769" lon="-85.066189"><ele>239.3</ele><time>2026-08-02T19:15:33Z</time></trkpt>
<trkpt lat="35.061741" lon="-85.066188"><ele>239.6</ele><time>2026-08-02T19:15:35Z</time></trkpt>
<trkpt lat="35.061712" lon="-85.066186"><ele>238.7</ele><time>2026-08-02T19:15:37Z</time></trkpt>
<trkpt lat="35.061685" lon="-85.066177"><ele>238.0</ele><time>2026-08-02T19:15:39Z</time></trkpt>
<trkpt lat="35.061659" lon="-85.06616"><ele>237.7</ele><time>2026-08-02T19:15:41Z</time></trkpt>
<trkpt lat="35.061637" lon="-85.066141"><ele>237.7</ele><time>2026-08-02T19:15:43Z</time></trkpt>
<trkpt lat="35.061609" lon="-85.066127"><ele>237.7</ele><time>2026-08-02T19:15:45Z</time></trkpt>
<trkpt lat="35.061578" lon="-85.066121"><ele>237.7</ele><time>2026-08-02T19:15:47Z</time></trkpt>
<trkpt lat="35.061549" lon="-85.066112"><ele>237.4</ele><time>2026-08-02T19:15:49Z</time></trkpt>
<trkpt lat="35.061525" lon="-85.066092"><ele>236.2</ele><time>2026-08-02T19:15:51Z</time></trkpt>
<trkpt lat="35.0615" lon="-85.066076"><ele>236.5</ele><time>2026-08-02T19:15:53Z</time></trkpt>
<trkpt lat="35.061469" lon="-85.066073"><ele>237.1</ele><time>2026-08-02T19:15:55Z</time></trkpt>
<trkpt lat="35.061438" lon="-85.066066"><ele>238.0</ele><time>2026-08-02T19:15:57Z</time></trkpt>
<trkpt lat="35.06141" lon="-85.066055"><ele>238.0</ele><time>2026-08-02T19:15:59Z</time></trkpt>
<trkpt lat="35.061382" lon="-85.066045"><ele>237.4</ele><time>2026-08-02T19:16:01Z</time></trkpt>
<trkpt lat="35.061357" lon="-85.066027"><ele>236.8</ele><time>2026-08-02T19:16:03Z</time></trkpt>
<trkpt lat="35.061326" lon="-85.065996"><ele>236.5</ele><time>2026-08-02T19:16:06Z</time></trkpt>
<trkpt lat="35.0613" lon="-85.06596"><ele>236.5</ele><time>2026-08-02T19:16:09Z</time></trkpt>
<trkpt lat="35.06128" lon="-85.065935"><ele>236.5</ele><time>2026-08-02T19:16:11Z</time></trkpt>
<trkpt lat="35.061268" lon="-85.065901"><ele>236.5</ele><time>2026-08-02T19:16:13Z</time></trkpt>
<trkpt lat="35.061253" lon="-85.06587"><ele>235.9</ele><time>2026-08-02T19:16:15Z</time></trkpt>
<trkpt lat="35.061232" lon="-85.065847"><ele>235.3</ele><time>2026-08-02T19:16:17Z</time></trkpt>
<trkpt lat="35.061212" lon="-85.065823"><ele>235.3</ele><time>2026-08-02T19:16:19Z</time></trkpt>
<trkpt lat="35.061198" lon="-85.065787"><ele>234.7</ele><time>2026-08-02T19:16:21Z</time></trkpt>
<trkpt lat="35.061187" lon="-85.065751"><ele>234.4</ele><time>2026-08-02T19:16:23Z</time></trkpt>
<trkpt lat="35.061188" lon="-85.065714"><ele>234.4</ele><time>2026-08-02T19:16:25Z</time></trkpt>
<trkpt lat="35.061202" lon="-85.065681"><ele>234.7</ele><time>2026-08-02T19:16:27Z</time></trkpt>
<trkpt lat="35.061225" lon="-85.065656"><ele>234.4</ele><time>2026-08-02T19:16:29Z</time></trkpt>
<trkpt lat="35.061254" lon="-85.065642"><ele>234.4</ele><time>2026-08-02T19:16:31Z</time></trkpt>
<trkpt lat="35.061283" lon="-85.065628"><ele>234.4</ele><time>2026-08-02T19:16:33Z</time></trkpt>
<trkpt lat="35.061308" lon="-85.065611"><ele>233.8</ele><time>2026-08-02T19:16:35Z</time></trkpt>
<trkpt lat="35.061336" lon="-85.065573"><ele>234.1</ele><time>2026-08-02T19:16:38Z</time></trkpt>
<trkpt lat="35.061352" lon="-85.065538"><ele>234.4</ele><time>2026-08-02T19:16:40Z</time></trkpt>
<trkpt lat="35.061367" lon="-85.065507"><ele>234.4</ele><time>2026-08-02T19:16:42Z</time></trkpt>
<trkpt lat="35.061385" lon="-85.065479"><ele>234.1</ele><time>2026-08-02T19:16:44Z</time></trkpt>
<trkpt lat="35.061408" lon="-85.065457"><ele>234.1</ele><time>2026-08-02T19:16:46Z</time></trkpt>
<trkpt lat="35.061445" lon="-85.06544"><ele>235.0</ele><time>2026-08-02T19:16:49Z</time></trkpt>
<trkpt lat="35.061484" lon="-85.065434"><ele>235.9</ele><time>2026-08-02T19:16:52Z</time></trkpt>
<trkpt lat="35.061513" lon="-85.06544"><ele>237.1</ele><time>2026-08-02T19:16:54Z</time></trkpt>
<trkpt lat="35.061554" lon="-85.065449"><ele>237.4</ele><time>2026-08-02T19:16:57Z</time></trkpt>
<trkpt lat="35.061582" lon="-85.065456"><ele>236.2</ele><time>2026-08-02T19:16:59Z</time></trkpt>
<trkpt lat="35.061608" lon="-85.06547"><ele>236.8</ele><time>2026-08-02T19:17:01Z</time></trkpt>
<trkpt lat="35.061634" lon="-85.065488"><ele>237.1</ele><time>2026-08-02T19:17:03Z</time></trkpt>
<trkpt lat="35.061658" lon="-85.065511"><ele>236.8</ele><time>2026-08-02T19:17:05Z</time></trkpt>
<trkpt lat="35.061675" lon="-85.065547"><ele>238.0</ele><time>2026-08-02T19:17:07Z</time></trkpt>
<trkpt lat="35.061694" lon="-85.065575"><ele>239.9</ele><time>2026-08-02T19:17:09Z</time></trkpt>
<trkpt lat="35.061711" lon="-85.065603"><ele>241.1</ele><time>2026-08-02T19:17:11Z</time></trkpt>
<trkpt lat="35.06173" lon="-85.065634"><ele>240.2</ele><time>2026-08-02T19:17:13Z</time></trkpt>
<trkpt lat="35.061747" lon="-85.065665"><ele>239.9</ele><time>2026-08-02T19:17:15Z</time></trkpt>
<trkpt lat="35.061764" lon="-85.065703"><ele>238.7</ele><time>2026-08-02T19:17:17Z</time></trkpt>
<trkpt lat="35.061777" lon="-85.065736"><ele>238.7</ele><time>2026-08-02T19:17:19Z</time></trkpt>
<trkpt lat="35.061794" lon="-85.065768"><ele>238.4</ele><time>2026-08-02T19:17:21Z</time></trkpt>
<trkpt lat="35.061813" lon="-85.065802"><ele>238.0</ele><time>2026-08-02T19:17:23Z</time></trkpt>
<trkpt lat="35.061827" lon="-85.065834"><ele>238.0</ele><time>2026-08-02T19:17:25Z</time></trkpt>
<trkpt lat="35.061841" lon="-85.065866"><ele>239.0</ele><time>2026-08-02T19:17:27Z</time></trkpt>
<trkpt lat="35.061859" lon="-85.065909"><ele>238.7</ele><time>2026-08-02T19:17:30Z</time></trkpt>
<trkpt lat="35.06187" lon="-85.065941"><ele>239.0</ele><time>2026-08-02T19:17:32Z</time></trkpt>
<trkpt lat="35.061887" lon="-85.065985"><ele>238.4</ele><time>2026-08-02T19:17:35Z</time></trkpt>
<trkpt lat="35.061896" lon="-85.066033"><ele>238.7</ele><time>2026-08-02T19:17:38Z</time></trkpt>
<trkpt lat="35.0619" lon="-85.066081"><ele>238.7</ele><time>2026-08-02T19:17:41Z</time></trkpt>
<trkpt lat="35.061896" lon="-85.066129"><ele>239.9</ele><time>2026-08-02T19:17:44Z</time></trkpt>
<trkpt lat="35.061892" lon="-85.066175"><ele>240.2</ele><time>2026-08-02T19:17:47Z</time></trkpt>
<trkpt lat="35.061876" lon="-85.066209"><ele>240.8</ele><time>2026-08-02T19:17:50Z</time></trkpt>
<trkpt lat="35.061857" lon="-85.066243"><ele>240.2</ele><time>2026-08-02T19:17:53Z</time></trkpt>
<trkpt lat="35.061824" lon="-85.066264"><ele>240.2</ele><time>2026-08-02T19:17:56Z</time></trkpt>
<trkpt lat="35.06179" lon="-85.066268"><ele>239.6</ele><time>2026-08-02T19:17:59Z</time></trkpt>
<trkpt lat="35.061758" lon="-85.066259"><ele>238.4</ele><time>2026-08-02T19:18:02Z</time></trkpt>
<trkpt lat="35.061732" lon="-85.066243"><ele>237.1</ele><time>2026-08-02T19:18:05Z</time></trkpt>
<trkpt lat="35.061701" lon="-85.066219"><ele>237.1</ele><time>2026-08-02T19:18:08Z</time></trkpt>
<trkpt lat="35.061671" lon="-85.066195"><ele>236.8</ele><time>2026-08-02T19:18:11Z</time></trkpt>
<trkpt lat="35.061649" lon="-85.066175"><ele>236.5</ele><time>2026-08-02T19:18:13Z</time></trkpt>
<trkpt lat="35.061618" lon="-85.066154"><ele>237.4</ele><time>2026-08-02T19:18:15Z</time></trkpt>
<trkpt lat="35.061584" lon="-85.066138"><ele>237.1</ele><time>2026-08-02T19:18:17Z</time></trkpt>
<trkpt lat="35.061553" lon="-85.066127"><ele>236.5</ele><time>2026-08-02T19:18:19Z</time></trkpt>
<trkpt lat="35.061524" lon="-85.066117"><ele>236.5</ele><time>2026-08-02T19:18:21Z</time></trkpt>
<trkpt lat="35.061492" lon="-85.066105"><ele>236.5</ele><time>2026-08-02T19:18:23Z</time></trkpt>
<trkpt lat="35.06146" lon="-85.066094"><ele>236.8</ele><time>2026-08-02T19:18:25Z</time></trkpt>
<trkpt lat="35.06143" lon="-85.066082"><ele>237.4</ele><time>2026-08-02T19:18:27Z</time></trkpt>
<trkpt lat="35.061402" lon="-85.066065"><ele>238.0</ele><time>2026-08-02T19:18:29Z</time></trkpt>
<trkpt lat="35.061375" lon="-85.066055"><ele>237.4</ele><time>2026-08-02T19:18:31Z</time></trkpt>
<trkpt lat="35.061348" lon="-85.066038"><ele>236.5</ele><time>2026-08-02T19:18:33Z</time></trkpt>
<trkpt lat="35.061328" lon="-85.066008"><ele>236.5</ele><time>2026-08-02T19:18:35Z</time></trkpt>
<trkpt lat="35.061309" lon="-85.065979"><ele>236.2</ele><time>2026-08-02T19:18:37Z</time></trkpt>
<trkpt lat="35.061293" lon="-85.065945"><ele>236.5</ele><time>2026-08-02T19:18:39Z</time></trkpt>
<trkpt lat="35.061281" lon="-85.065914"><ele>235.9</ele><time>2026-08-02T19:18:41Z</time></trkpt>
<trkpt lat="35.061268" lon="-85.065878"><ele>236.8</ele><time>2026-08-02T19:18:43Z</time></trkpt>
<trkpt lat="35.061236" lon="-85.06586"><ele>237.1</ele><time>2026-08-02T19:18:45Z</time></trkpt>
<trkpt lat="35.06121" lon="-85.065888"><ele>238.4</ele><time>2026-08-02T19:18:47Z</time></trkpt>
<trkpt lat="35.0612" lon="-85.065935"><ele>237.7</ele><time>2026-08-02T19:18:49Z</time></trkpt>
<trkpt lat="35.061197" lon="-85.06598"><ele>237.4</ele><time>2026-08-02T19:18:51Z</time></trkpt>
<trkpt lat="35.061198" lon="-85.066023"><ele>237.1</ele><time>2026-08-02T19:18:53Z</time></trkpt>
<trkpt lat="35.061204" lon="-85.066066"><ele>236.8</ele><time>2026-08-02T19:18:55Z</time></trkpt>
<trkpt lat="35.061217" lon="-85.066107"><ele>236.5</ele><time>2026-08-02T19:18:57Z</time></trkpt>
<trkpt lat="35.061231" lon="-85.066147"><ele>236.5</ele><time>2026-08-02T19:18:59Z</time></trkpt>
<trkpt lat="35.061246" lon="-85.066183"><ele>236.2</ele><time>2026-08-02T19:19:01Z</time></trkpt>
<trkpt lat="35.061259" lon="-85.06622"><ele>236.2</ele><time>2026-08-02T19:19:03Z</time></trkpt>
<trkpt lat="35.061273" lon="-85.066255"><ele>235.9</ele><time>2026-08-02T19:19:05Z</time></trkpt>
<trkpt lat="35.061289" lon="-85.066289"><ele>235.6</ele><time>2026-08-02T19:19:07Z</time></trkpt>
<trkpt lat="35.06131" lon="-85.066318"><ele>235.6</ele><time>2026-08-02T19:19:09Z</time></trkpt>
<trkpt lat="35.061335" lon="-85.066339"><ele>235.6</ele><time>2026-08-02T19:19:11Z</time></trkpt>
<trkpt lat="35.061362" lon="-85.066353"><ele>236.5</ele><time>2026-08-02T19:19:13Z</time></trkpt>
<trkpt lat="35.06139" lon="-85.066353"><ele>236.5</ele><time>2026-08-02T19:19:15Z</time></trkpt>
<trkpt lat="35.061419" lon="-85.066351"><ele>237.1</ele><time>2026-08-02T19:19:17Z</time></trkpt>
<trkpt lat="35.061448" lon="-85.066347"><ele>237.1</ele><time>2026-08-02T19:19:19Z</time></trkpt>
<trkpt lat="35.061478" lon="-85.066345"><ele>237.1</ele><time>2026-08-02T19:19:21Z</time></trkpt>
<trkpt lat="35.061506" lon="-85.066341"><ele>237.1</ele><time>2026-08-02T19:19:23Z</time></trkpt>
<trkpt lat="35.061547" lon="-85.066337"><ele>236.5</ele><time>2026-08-02T19:19:26Z</time></trkpt>
<trkpt lat="35.061586" lon="-85.066328"><ele>236.5</ele><time>2026-08-02T19:19:29Z</time></trkpt>
<trkpt lat="35.061614" lon="-85.066319"><ele>235.9</ele><time>2026-08-02T19:19:31Z</time></trkpt>
<trkpt lat="35.061642" lon="-85.066313"><ele>235.9</ele><time>2026-08-02T19:19:33Z</time></trkpt>
<trkpt lat="35.061671" lon="-85.066305"><ele>235.6</ele><time>2026-08-02T19:19:35Z</time></trkpt>
<trkpt lat="35.0617" lon="-85.0663"><ele>235.0</ele><time>2026-08-02T19:19:37Z</time></trkpt>
<trkpt lat="35.061728" lon="-85.066295"><ele>235.3</ele><time>2026-08-02T19:19:39Z</time></trkpt>
<trkpt lat="35.061756" lon="-85.066289"><ele>235.3</ele><time>2026-08-02T19:19:41Z</time></trkpt>
<trkpt lat="35.061785" lon="-85.066286"><ele>235.3</ele><time>2026-08-02T19:19:43Z</time></trkpt>
<trkpt lat="35.061815" lon="-85.066279"><ele>235.3</ele><time>2026-08-02T19:19:45Z</time></trkpt>
<trkpt lat="35.061845" lon="-85.066273"><ele>235.0</ele><time>2026-08-02T19:19:47Z</time></trkpt>
<trkpt lat="35.061875" lon="-85.066268"><ele>235.0</ele><time>2026-08-02T19:19:49Z</time></trkpt>
<trkpt lat="35.061905" lon="-85.066263"><ele>234.7</ele><time>2026-08-02T19:19:51Z</time></trkpt>
<trkpt lat="35.061935" lon="-85.066258"><ele>234.7</ele><time>2026-08-02T19:19:53Z</time></trkpt>
<trkpt lat="35.061967" lon="-85.066254"><ele>234.4</ele><time>2026-08-02T19:19:55Z</time></trkpt>
<trkpt lat="35.061997" lon="-85.06625"><ele>234.7</ele><time>2026-08-02T19:19:57Z</time></trkpt>
<trkpt lat="35.062027" lon="-85.066246"><ele>234.7</ele><time>2026-08-02T19:19:59Z</time></trkpt>
<trkpt lat="35.062057" lon="-85.06624"><ele>234.7</ele><time>2026-08-02T19:20:01Z</time></trkpt>
<trkpt lat="35.062085" lon="-85.066236"><ele>234.7</ele><time>2026-08-02T19:20:03Z</time></trkpt>
<trkpt lat="35.062115" lon="-85.066228"><ele>234.7</ele><time>2026-08-02T19:20:05Z</time></trkpt>
<trkpt lat="35.062144" lon="-85.066223"><ele>234.4</ele><time>2026-08-02T19:20:07Z</time></trkpt>
<trkpt lat="35.062173" lon="-85.066218"><ele>234.4</ele><time>2026-08-02T19:20:09Z</time></trkpt>
<trkpt lat="35.062202" lon="-85.066213"><ele>234.4</ele><time>2026-08-02T19:20:11Z</time></trkpt>
<trkpt lat="35.062232" lon="-85.066205"><ele>234.4</ele><time>2026-08-02T19:20:13Z</time></trkpt>
<trkpt lat="35.062261" lon="-85.066198"><ele>234.1</ele><time>2026-08-02T19:20:15Z</time></trkpt>
<trkpt lat="35.062288" lon="-85.066186"><ele>234.1</ele><time>2026-08-02T19:20:17Z</time></trkpt>
<trkpt lat="35.062296" lon="-85.066153"><ele>234.7</ele><time>2026-08-02T19:20:19Z</time></trkpt>
<trkpt lat="35.062283" lon="-85.066121"><ele>235.0</ele><time>2026-08-02T19:20:21Z</time></trkpt>
<trkpt lat="35.062266" lon="-85.066093"><ele>235.6</ele><time>2026-08-02T19:20:23Z</time></trkpt>
<trkpt lat="35.06225" lon="-85.066065"><ele>236.2</ele><time>2026-08-02T19:20:25Z</time></trkpt>
<trkpt lat="35.062221" lon="-85.066029"><ele>236.2</ele><time>2026-08-02T19:20:28Z</time></trkpt>
<trkpt lat="35.062203" lon="-85.065998"><ele>235.9</ele><time>2026-08-02T19:20:30Z</time></trkpt>
<trkpt lat="35.062186" lon="-85.065967"><ele>235.9</ele><time>2026-08-02T19:20:32Z</time></trkpt>
<trkpt lat="35.06217" lon="-85.065937"><ele>235.9</ele><time>2026-08-02T19:20:34Z</time></trkpt>
<trkpt lat="35.062151" lon="-85.065908"><ele>235.9</ele><time>2026-08-02T19:20:36Z</time></trkpt>
<trkpt lat="35.062131" lon="-85.065882"><ele>236.2</ele><time>2026-08-02T19:20:38Z</time></trkpt>
<trkpt lat="35.062111" lon="-85.065851"><ele>235.6</ele><time>2026-08-02T19:20:40Z</time></trkpt>
<trkpt lat="35.062099" lon="-85.065816"><ele>235.0</ele><time>2026-08-02T19:20:42Z</time></trkpt>
<trkpt lat="35.062084" lon="-85.065782"><ele>234.7</ele><time>2026-08-02T19:20:44Z</time></trkpt>
<trkpt lat="35.06207" lon="-85.065747"><ele>235.0</ele><time>2026-08-02T19:20:46Z</time></trkpt>
<trkpt lat="35.062057" lon="-85.065712"><ele>235.0</ele><time>2026-08-02T19:20:48Z</time></trkpt>
<trkpt lat="35.062039" lon="-85.065682"><ele>234.4</ele><time>2026-08-02T19:20:50Z</time></trkpt>
<trkpt lat="35.062022" lon="-85.065652"><ele>234.1</ele><time>2026-08-02T19:20:52Z</time></trkpt>
<trkpt lat="35.062001" lon="-85.065623"><ele>233.8</ele><time>2026-08-02T19:20:54Z</time></trkpt>
<trkpt lat="35.061985" lon="-85.06559"><ele>234.1</ele><time>2026-08-02T19:20:56Z</time></trkpt>
<trkpt lat="35.061969" lon="-85.065559"><ele>234.1</ele><time>2026-08-02T19:20:58Z</time></trkpt>
<trkpt lat="35.061953" lon="-85.065528"><ele>234.7</ele><time>2026-08-02T19:21:00Z</time></trkpt>
<trkpt lat="35.061935" lon="-85.065498"><ele>234.7</ele><time>2026-08-02T19:21:02Z</time></trkpt>
<trkpt lat="35.061922" lon="-85.065465"><ele>234.4</ele><time>2026-08-02T19:21:04Z</time></trkpt>
<trkpt lat="35.061912" lon="-85.06543"><ele>235.3</ele><time>2026-08-02T19:21:06Z</time></trkpt>
<trkpt lat="35.0619" lon="-85.065395"><ele>235.6</ele><time>2026-08-02T19:21:08Z</time></trkpt>
<trkpt lat="35.06189" lon="-85.065361"><ele>235.3</ele><time>2026-08-02T19:21:10Z</time></trkpt>
<trkpt lat="35.061876" lon="-85.06533"><ele>235.9</ele><time>2026-08-02T19:21:12Z</time></trkpt>
<trkpt lat="35.06186" lon="-85.065299"><ele>236.8</ele><time>2026-08-02T19:21:14Z</time></trkpt>
<trkpt lat="35.061842" lon="-85.065267"><ele>237.4</ele><time>2026-08-02T19:21:16Z</time></trkpt>
<trkpt lat="35.06182" lon="-85.06524"><ele>236.5</ele><time>2026-08-02T19:21:18Z</time></trkpt>
<trkpt lat="35.061799" lon="-85.065209"><ele>236.2</ele><time>2026-08-02T19:21:20Z</time></trkpt>
<trkpt lat="35.061781" lon="-85.065175"><ele>236.2</ele><time>2026-08-02T19:21:22Z</time></trkpt>
<trkpt lat="35.061764" lon="-85.06514"><ele>236.5</ele><time>2026-08-02T19:21:24Z</time></trkpt>
<trkpt lat="35.061742" lon="-85.065106"><ele>236.5</ele><time>2026-08-02T19:21:26Z</time></trkpt>
<trkpt lat="35.061719" lon="-85.065073"><ele>236.5</ele><time>2026-08-02T19:21:28Z</time></trkpt>
<trkpt lat="35.061697" lon="-85.065038"><ele>237.4</ele><time>2026-08-02T19:21:30Z</time></trkpt>
<trkpt lat="35.061674" lon="-85.065006"><ele>237.7</ele><time>2026-08-02T19:21:32Z</time></trkpt>
<trkpt lat="35.061653" lon="-85.064973"><ele>237.4</ele><time>2026-08-02T19:21:34Z</time></trkpt>
<trkpt lat="35.061634" lon="-85.064939"><ele>237.1</ele><time>2026-08-02T19:21:36Z</time></trkpt>
<trkpt lat="35.06161" lon="-85.064909"><ele>238.4</ele><time>2026-08-02T19:21:38Z</time></trkpt>
<trkpt lat="35.061587" lon="-85.064879"><ele>238.7</ele><time>2026-08-02T19:21:40Z</time></trkpt>
<trkpt lat="35.061562" lon="-85.064855"><ele>238.0</ele><time>2026-08-02T19:21:42Z</time></trkpt>
<trkpt lat="35.061538" lon="-85.064828"><ele>238.0</ele><time>2026-08-02T19:21:44Z</time></trkpt>
<trkpt lat="35.061514" lon="-85.064805"><ele>238.4</ele><time>2026-08-02T19:21:46Z</time></trkpt>
<trkpt lat="35.06149" lon="-85.064778"><ele>238.7</ele><time>2026-08-02T19:21:48Z</time></trkpt>
<trkpt lat="35.061468" lon="-85.064748"><ele>238.4</ele><time>2026-08-02T19:21:50Z</time></trkpt>
<trkpt lat="35.061446" lon="-85.064717"><ele>239.3</ele><time>2026-08-02T19:21:52Z</time></trkpt>
<trkpt lat="35.061429" lon="-85.064685"><ele>239.9</ele><time>2026-08-02T19:21:54Z</time></trkpt>
<trkpt lat="35.061414" lon="-85.064651"><ele>241.4</ele><time>2026-08-02T19:21:56Z</time></trkpt>
<trkpt lat="35.061397" lon="-85.064619"><ele>241.1</ele><time>2026-08-02T19:21:58Z</time></trkpt>
<trkpt lat="35.06138" lon="-85.064585"><ele>240.5</ele><time>2026-08-02T19:22:00Z</time></trkpt>
<trkpt lat="35.061361" lon="-85.064556"><ele>239.3</ele><time>2026-08-02T19:22:02Z</time></trkpt>
<trkpt lat="35.061342" lon="-85.064526"><ele>239.9</ele><time>2026-08-02T19:22:04Z</time></trkpt>
<trkpt lat="35.061326" lon="-85.064495"><ele>238.7</ele><time>2026-08-02T19:22:06Z</time></trkpt>
<trkpt lat="35.061305" lon="-85.064469"><ele>239.3</ele><time>2026-08-02T19:22:08Z</time></trkpt>
<trkpt lat="35.061286" lon="-85.064437"><ele>239.3</ele><time>2026-08-02T19:22:10Z</time></trkpt>
<trkpt lat="35.061268" lon="-85.064403"><ele>239.9</ele><time>2026-08-02T19:22:12Z</time></trkpt>
<trkpt lat="35.061254" lon="-85.064369"><ele>239.9</ele><time>2026-08-02T19:22:14Z</time></trkpt>
<trkpt lat="35.061237" lon="-85.064334"><ele>239.6</ele><time>2026-08-02T19:22:16Z</time></trkpt>
<trkpt lat="35.061216" lon="-85.064305"><ele>239.0</ele><time>2026-08-02T19:22:18Z</time></trkpt>
<trkpt lat="35.061199" lon="-85.064273"><ele>239.0</ele><time>2026-08-02T19:22:20Z</time></trkpt>
<trkpt lat="35.061182" lon="-85.064243"><ele>239.6</ele><time>2026-08-02T19:22:22Z</time></trkpt>
<trkpt lat="35.06116" lon="-85.064215"><ele>238.7</ele><time>2026-08-02T19:22:24Z</time></trkpt>
<trkpt lat="35.061137" lon="-85.064188"><ele>237.7</ele><time>2026-08-02T19:22:26Z</time></trkpt>
<trkpt lat="35.061118" lon="-85.064153"><ele>238.4</ele><time>2026-08-02T19:22:28Z</time></trkpt>
<trkpt lat="35.0611" lon="-85.06412"><ele>237.4</ele><time>2026-08-02T19:22:30Z</time></trkpt>
<trkpt lat="35.06108" lon="-85.06409"><ele>237.1</ele><time>2026-08-02T19:22:32Z</time></trkpt>
<trkpt lat="35.06106" lon="-85.064058"><ele>237.1</ele><time>2026-08-02T19:22:34Z</time></trkpt>
<trkpt lat="35.06104" lon="-85.064031"><ele>237.7</ele><time>2026-08-02T19:22:36Z</time></trkpt>
<trkpt lat="35.061021" lon="-85.064002"><ele>238.0</ele><time>2026-08-02T19:22:38Z</time></trkpt>
<trkpt lat="35.061004" lon="-85.063971"><ele>237.7</ele><time>2026-08-02T19:22:40Z</time></trkpt>
<trkpt lat="35.060986" lon="-85.063938"><ele>239.3</ele><time>2026-08-02T19:22:42Z</time></trkpt>
<trkpt lat="35.060971" lon="-85.063906"><ele>240.2</ele><time>2026-08-02T19:22:44Z</time></trkpt>
<trkpt lat="35.060952" lon="-85.063862"><ele>237.7</ele><time>2026-08-02T19:22:47Z</time></trkpt>
<trkpt lat="35.060939" lon="-85.06383"><ele>237.4</ele><time>2026-08-02T19:22:49Z</time></trkpt>
<trkpt lat="35.060921" lon="-85.063801"><ele>237.1</ele><time>2026-08-02T19:22:51Z</time></trkpt>
<trkpt lat="35.060901" lon="-85.063774"><ele>237.7</ele><time>2026-08-02T19:22:53Z</time></trkpt>
<trkpt lat="35.060882" lon="-85.063743"><ele>237.7</ele><time>2026-08-02T19:22:55Z</time></trkpt>
<trkpt lat="35.060867" lon="-85.063708"><ele>236.5</ele><time>2026-08-02T19:22:57Z</time></trkpt>
<trkpt lat="35.06085" lon="-85.063675"><ele>236.5</ele><time>2026-08-02T19:22:59Z</time></trkpt>
<trkpt lat="35.060838" lon="-85.063639"><ele>237.4</ele><time>2026-08-02T19:23:01Z</time></trkpt>
<trkpt lat="35.060821" lon="-85.063609"><ele>237.7</ele><time>2026-08-02T19:23:03Z</time></trkpt>
<trkpt lat="35.060804" lon="-85.063576"><ele>239.0</ele><time>2026-08-02T19:23:05Z</time></trkpt>
<trkpt lat="35.060787" lon="-85.063546"><ele>238.4</ele><time>2026-08-02T19:23:07Z</time></trkpt>
<trkpt lat="35.060772" lon="-85.063516"><ele>239.0</ele><time>2026-08-02T19:23:09Z</time></trkpt>
<trkpt lat="35.060758" lon="-85.063483"><ele>239.9</ele><time>2026-08-02T19:23:11Z</time></trkpt>
<trkpt lat="35.060739" lon="-85.063454"><ele>240.5</ele><time>2026-08-02T19:23:13Z</time></trkpt>
<trkpt lat="35.060716" lon="-85.063425"><ele>240.8</ele><time>2026-08-02T19:23:15Z</time></trkpt>
<trkpt lat="35.060693" lon="-85.0634"><ele>240.2</ele><time>2026-08-02T19:23:17Z</time></trkpt>
<trkpt lat="35.060673" lon="-85.063374"><ele>239.6</ele><time>2026-08-02T19:23:19Z</time></trkpt>
<trkpt lat="35.06066" lon="-85.063343"><ele>238.4</ele><time>2026-08-02T19:23:21Z</time></trkpt>
<trkpt lat="35.060646" lon="-85.063313"><ele>237.7</ele><time>2026-08-02T19:23:23Z</time></trkpt>
<trkpt lat="35.060629" lon="-85.063284"><ele>237.4</ele><time>2026-08-02T19:23:25Z</time></trkpt>
<trkpt lat="35.06061" lon="-85.063257"><ele>237.1</ele><time>2026-08-02T19:23:27Z</time></trkpt>
<trkpt lat="35.060587" lon="-85.063234"><ele>237.4</ele><time>2026-08-02T19:23:29Z</time></trkpt>
<trkpt lat="35.060563" lon="-85.063209"><ele>237.4</ele><time>2026-08-02T19:23:31Z</time></trkpt>
<trkpt lat="35.060538" lon="-85.063184"><ele>237.4</ele><time>2026-08-02T19:23:33Z</time></trkpt>
<trkpt lat="35.060512" lon="-85.063159"><ele>235.9</ele><time>2026-08-02T19:23:35Z</time></trkpt>
<trkpt lat="35.060483" lon="-85.063139"><ele>236.5</ele><time>2026-08-02T19:23:37Z</time></trkpt>
<trkpt lat="35.060455" lon="-85.063122"><ele>237.1</ele><time>2026-08-02T19:23:39Z</time></trkpt>
<trkpt lat="35.06043" lon="-85.063098"><ele>238.7</ele><time>2026-08-02T19:23:41Z</time></trkpt>
<trkpt lat="35.060404" lon="-85.063075"><ele>239.9</ele><time>2026-08-02T19:23:43Z</time></trkpt>
<trkpt lat="35.060375" lon="-85.063054"><ele>239.6</ele><time>2026-08-02T19:23:45Z</time></trkpt>
<trkpt lat="35.060351" lon="-85.063029"><ele>239.9</ele><time>2026-08-02T19:23:47Z</time></trkpt>
<trkpt lat="35.060327" lon="-85.063"><ele>241.7</ele><time>2026-08-02T19:23:49Z</time></trkpt>
<trkpt lat="35.060301" lon="-85.062979"><ele>241.7</ele><time>2026-08-02T19:23:51Z</time></trkpt>
<trkpt lat="35.060274" lon="-85.06296"><ele>242.0</ele><time>2026-08-02T19:23:53Z</time></trkpt>
<trkpt lat="35.060248" lon="-85.062939"><ele>242.0</ele><time>2026-08-02T19:23:55Z</time></trkpt>
<trkpt lat="35.060225" lon="-85.062915"><ele>242.6</ele><time>2026-08-02T19:23:57Z</time></trkpt>
<trkpt lat="35.060203" lon="-85.06289"><ele>242.6</ele><time>2026-08-02T19:23:59Z</time></trkpt>
<trkpt lat="35.06018" lon="-85.062865"><ele>242.6</ele><time>2026-08-02T19:24:01Z</time></trkpt>
<trkpt lat="35.060152" lon="-85.062847"><ele>244.1</ele><time>2026-08-02T19:24:03Z</time></trkpt>
<trkpt lat="35.060123" lon="-85.062828"><ele>244.4</ele><time>2026-08-02T19:24:05Z</time></trkpt>
<trkpt lat="35.060095" lon="-85.062813"><ele>245.1</ele><time>2026-08-02T19:24:07Z</time></trkpt>
<trkpt lat="35.060076" lon="-85.062787"><ele>245.4</ele><time>2026-08-02T19:24:09Z</time></trkpt>
<trkpt lat="35.060048" lon="-85.062749"><ele>245.1</ele><time>2026-08-02T19:24:12Z</time></trkpt>
<trkpt lat="35.060025" lon="-85.062722"><ele>247.2</ele><time>2026-08-02T19:24:14Z</time></trkpt>
<trkpt lat="35.060003" lon="-85.062695"><ele>247.5</ele><time>2026-08-02T19:24:16Z</time></trkpt>
<trkpt lat="35.059985" lon="-85.062663"><ele>245.1</ele><time>2026-08-02T19:24:18Z</time></trkpt>
<trkpt lat="35.059969" lon="-85.062633"><ele>243.2</ele><time>2026-08-02T19:24:20Z</time></trkpt>
<trkpt lat="35.059946" lon="-85.062612"><ele>242.9</ele><time>2026-08-02T19:24:22Z</time></trkpt>
<trkpt lat="35.059922" lon="-85.062592"><ele>243.5</ele><time>2026-08-02T19:24:24Z</time></trkpt>
<trkpt lat="35.059902" lon="-85.062565"><ele>244.1</ele><time>2026-08-02T19:24:26Z</time></trkpt>
<trkpt lat="35.059884" lon="-85.062535"><ele>244.8</ele><time>2026-08-02T19:24:28Z</time></trkpt>
<trkpt lat="35.059869" lon="-85.062491"><ele>243.8</ele><time>2026-08-02T19:24:31Z</time></trkpt>
<trkpt lat="35.05986" lon="-85.062459"><ele>242.9</ele><time>2026-08-02T19:24:33Z</time></trkpt>
<trkpt lat="35.059859" lon="-85.062423"><ele>242.6</ele><time>2026-08-02T19:24:35Z</time></trkpt>
<trkpt lat="35.059857" lon="-85.062389"><ele>242.9</ele><time>2026-08-02T19:24:37Z</time></trkpt>
<trkpt lat="35.059854" lon="-85.062354"><ele>243.8</ele><time>2026-08-02T19:24:39Z</time></trkpt>
<trkpt lat="35.05985" lon="-85.062319"><ele>243.5</ele><time>2026-08-02T19:24:41Z</time></trkpt>
<trkpt lat="35.059843" lon="-85.062283"><ele>243.8</ele><time>2026-08-02T19:24:43Z</time></trkpt>
<trkpt lat="35.059831" lon="-85.062247"><ele>243.8</ele><time>2026-08-02T19:24:45Z</time></trkpt>
<trkpt lat="35.059821" lon="-85.062211"><ele>243.8</ele><time>2026-08-02T19:24:47Z</time></trkpt>
<trkpt lat="35.059814" lon="-85.062174"><ele>242.3</ele><time>2026-08-02T19:24:49Z</time></trkpt>
<trkpt lat="35.059811" lon="-85.062135"><ele>242.0</ele><time>2026-08-02T19:24:51Z</time></trkpt>
<trkpt lat="35.059814" lon="-85.062094"><ele>242.3</ele><time>2026-08-02T19:24:53Z</time></trkpt>
<trkpt lat="35.059816" lon="-85.062057"><ele>242.3</ele><time>2026-08-02T19:24:55Z</time></trkpt>
<trkpt lat="35.059803" lon="-85.062022"><ele>242.6</ele><time>2026-08-02T19:24:57Z</time></trkpt>
<trkpt lat="35.059783" lon="-85.061988"><ele>242.3</ele><time>2026-08-02T19:24:59Z</time></trkpt>
<trkpt lat="35.059764" lon="-85.061955"><ele>241.7</ele><time>2026-08-02T19:25:01Z</time></trkpt>
<trkpt lat="35.059748" lon="-85.061919"><ele>241.7</ele><time>2026-08-02T19:25:03Z</time></trkpt>
<trkpt lat="35.05974" lon="-85.061879"><ele>242.0</ele><time>2026-08-02T19:25:05Z</time></trkpt>
<trkpt lat="35.059731" lon="-85.061843"><ele>242.3</ele><time>2026-08-02T19:25:07Z</time></trkpt>
<trkpt lat="35.059725" lon="-85.061808"><ele>244.4</ele><time>2026-08-02T19:25:09Z</time></trkpt>
<trkpt lat="35.059726" lon="-85.061771"><ele>244.4</ele><time>2026-08-02T19:25:11Z</time></trkpt>
<trkpt lat="35.059722" lon="-85.061732"><ele>243.8</ele><time>2026-08-02T19:25:13Z</time></trkpt>
<trkpt lat="35.059716" lon="-85.061699"><ele>242.0</ele><time>2026-08-02T19:25:15Z</time></trkpt>
<trkpt lat="35.059709" lon="-85.06166"><ele>242.0</ele><time>2026-08-02T19:25:17Z</time></trkpt>
<trkpt lat="35.059701" lon="-85.061626"><ele>242.6</ele><time>2026-08-02T19:25:19Z</time></trkpt>
<trkpt lat="35.059687" lon="-85.061593"><ele>244.4</ele><time>2026-08-02T19:25:21Z</time></trkpt>
<trkpt lat="35.05968" lon="-85.061556"><ele>245.4</ele><time>2026-08-02T19:25:23Z</time></trkpt>
<trkpt lat="35.05967" lon="-85.061524"><ele>244.8</ele><time>2026-08-02T19:25:25Z</time></trkpt>
<trkpt lat="35.059661" lon="-85.061489"><ele>245.4</ele><time>2026-08-02T19:25:27Z</time></trkpt>
<trkpt lat="35.059649" lon="-85.061453"><ele>245.4</ele><time>2026-08-02T19:25:29Z</time></trkpt>
<trkpt lat="35.059632" lon="-85.06142"><ele>245.4</ele><time>2026-08-02T19:25:31Z</time></trkpt>
<trkpt lat="35.059615" lon="-85.061386"><ele>245.1</ele><time>2026-08-02T19:25:33Z</time></trkpt>
<trkpt lat="35.059599" lon="-85.061355"><ele>246.0</ele><time>2026-08-02T19:25:35Z</time></trkpt>
<trkpt lat="35.059587" lon="-85.06132"><ele>245.4</ele><time>2026-08-02T19:25:37Z</time></trkpt>
<trkpt lat="35.059572" lon="-85.061288"><ele>245.1</ele><time>2026-08-02T19:25:39Z</time></trkpt>
<trkpt lat="35.059565" lon="-85.061253"><ele>245.7</ele><time>2026-08-02T19:25:41Z</time></trkpt>
<trkpt lat="35.059557" lon="-85.061218"><ele>246.6</ele><time>2026-08-02T19:25:43Z</time></trkpt>
<trkpt lat="35.059548" lon="-85.061175"><ele>244.8</ele><time>2026-08-02T19:25:46Z</time></trkpt>
<trkpt lat="35.059544" lon="-85.061139"><ele>244.4</ele><time>2026-08-02T19:25:48Z</time></trkpt>
<trkpt lat="35.059542" lon="-85.061103"><ele>244.1</ele><time>2026-08-02T19:25:50Z</time></trkpt>
<trkpt lat="35.059536" lon="-85.061056"><ele>242.9</ele><time>2026-08-02T19:25:53Z</time></trkpt>
<trkpt lat="35.059526" lon="-85.061007"><ele>242.6</ele><time>2026-08-02T19:25:56Z</time></trkpt>
<trkpt lat="35.059512" lon="-85.060973"><ele>242.0</ele><time>2026-08-02T19:25:58Z</time></trkpt>
<trkpt lat="35.059504" lon="-85.060935"><ele>242.6</ele><time>2026-08-02T19:26:00Z</time></trkpt>
<trkpt lat="35.059501" lon="-85.060896"><ele>241.7</ele><time>2026-08-02T19:26:02Z</time></trkpt>
<trkpt lat="35.059495" lon="-85.060858"><ele>240.5</ele><time>2026-08-02T19:26:04Z</time></trkpt>
<trkpt lat="35.059484" lon="-85.060819"><ele>239.6</ele><time>2026-08-02T19:26:06Z</time></trkpt>
<trkpt lat="35.059478" lon="-85.06077"><ele>238.4</ele><time>2026-08-02T19:26:08Z</time></trkpt>
<trkpt lat="35.059467" lon="-85.060715"><ele>238.0</ele><time>2026-08-02T19:26:10Z</time></trkpt>
<trkpt lat="35.059454" lon="-85.060681"><ele>238.0</ele><time>2026-08-02T19:26:11Z</time></trkpt>
<trkpt lat="35.059444" lon="-85.060649"><ele>238.4</ele><time>2026-08-02T19:26:12Z</time></trkpt>
<trkpt lat="35.059432" lon="-85.060612"><ele>238.4</ele><time>2026-08-02T19:26:13Z</time></trkpt>
<trkpt lat="35.059427" lon="-85.060575"><ele>238.4</ele><time>2026-08-02T19:26:14Z</time></trkpt>
<trkpt lat="35.059423" lon="-85.060537"><ele>237.7</ele><time>2026-08-02T19:26:15Z</time></trkpt>
<trkpt lat="35.059407" lon="-85.060471"><ele>238.7</ele><time>2026-08-02T19:26:17Z</time></trkpt>
<trkpt lat="35.059398" lon="-85.060427"><ele>239.0</ele><time>2026-08-02T19:26:18Z</time></trkpt>
<trkpt lat="35.059388" lon="-85.060386"><ele>239.6</ele><time>2026-08-02T19:26:19Z</time></trkpt>
<trkpt lat="35.059377" lon="-85.060344"><ele>239.9</ele><time>2026-08-02T19:26:20Z</time></trkpt>
<trkpt lat="35.059383" lon="-85.060299"><ele>240.2</ele><time>2026-08-02T19:26:21Z</time></trkpt>
<trkpt lat="35.059389" lon="-85.060239"><ele>238.0</ele><time>2026-08-02T19:26:23Z</time></trkpt>
<trkpt lat="35.059388" lon="-85.060183"><ele>239.3</ele><time>2026-08-02T19:26:25Z</time></trkpt>
<trkpt lat="35.059377" lon="-85.060132"><ele>241.1</ele><time>2026-08-02T19:26:27Z</time></trkpt>
<trkpt lat="35.059354" lon="-85.060085"><ele>242.9</ele><time>2026-08-02T19:26:29Z</time></trkpt>
<trkpt lat="35.059336" lon="-85.060057"><ele>242.6</ele><time>2026-08-02T19:26:30Z</time></trkpt>
<trkpt lat="35.059322" lon="-85.060004"><ele>242.6</ele><time>2026-08-02T19:26:32Z</time></trkpt>
<trkpt lat="35.059307" lon="-85.059955"><ele>245.7</ele><time>2026-08-02T19:26:34Z</time></trkpt>
<trkpt lat="35.059294" lon="-85.05992"><ele>247.2</ele><time>2026-08-02T19:26:36Z</time></trkpt>
<trkpt lat="35.059279" lon="-85.059887"><ele>248.4</ele><time>2026-08-02T19:26:38Z</time></trkpt>
<trkpt lat="35.059255" lon="-85.059855"><ele>247.8</ele><time>2026-08-02T19:26:40Z</time></trkpt>
<trkpt lat="35.059219" lon="-85.059821"><ele>248.7</ele><time>2026-08-02T19:26:42Z</time></trkpt>
<trkpt lat="35.059189" lon="-85.0598"><ele>245.7</ele><time>2026-08-02T19:26:44Z</time></trkpt>
<trkpt lat="35.059162" lon="-85.059772"><ele>244.1</ele><time>2026-08-02T19:26:46Z</time></trkpt>
<trkpt lat="35.059152" lon="-85.059737"><ele>243.8</ele><time>2026-08-02T19:26:48Z</time></trkpt>
<trkpt lat="35.059137" lon="-85.059702"><ele>242.9</ele><time>2026-08-02T19:26:50Z</time></trkpt>
<trkpt lat="35.059106" lon="-85.059668"><ele>244.1</ele><time>2026-08-02T19:26:53Z</time></trkpt>
<trkpt lat="35.059068" lon="-85.05965"><ele>241.4</ele><time>2026-08-02T19:26:56Z</time></trkpt>
<trkpt lat="35.059046" lon="-85.059626"><ele>239.6</ele><time>2026-08-02T19:26:58Z</time></trkpt>
<trkpt lat="35.059046" lon="-85.059587"><ele>238.4</ele><time>2026-08-02T19:27:00Z</time></trkpt>
<trkpt lat="35.059021" lon="-85.059551"><ele>238.4</ele><time>2026-08-02T19:27:02Z</time></trkpt>
<trkpt lat="35.058998" lon="-85.059518"><ele>236.2</ele><time>2026-08-02T19:27:04Z</time></trkpt>
<trkpt lat="35.058964" lon="-85.059484"><ele>235.0</ele><time>2026-08-02T19:27:06Z</time></trkpt>
<trkpt lat="35.058927" lon="-85.059443"><ele>235.0</ele><time>2026-08-02T19:27:08Z</time></trkpt>
<trkpt lat="35.058898" lon="-85.059399"><ele>234.7</ele><time>2026-08-02T19:27:10Z</time></trkpt>
<trkpt lat="35.058871" lon="-85.059365"><ele>235.0</ele><time>2026-08-02T19:27:12Z</time></trkpt>
<trkpt lat="35.058841" lon="-85.059327"><ele>235.0</ele><time>2026-08-02T19:27:14Z</time></trkpt>
<trkpt lat="35.058811" lon="-85.059297"><ele>235.9</ele><time>2026-08-02T19:27:16Z</time></trkpt>
<trkpt lat="35.058793" lon="-85.059256"><ele>237.4</ele><time>2026-08-02T19:27:18Z</time></trkpt>
<trkpt lat="35.058777" lon="-85.05922"><ele>237.7</ele><time>2026-08-02T19:27:20Z</time></trkpt>
<trkpt lat="35.05875" lon="-85.059192"><ele>237.4</ele><time>2026-08-02T19:27:22Z</time></trkpt>
<trkpt lat="35.058734" lon="-85.059156"><ele>237.1</ele><time>2026-08-02T19:27:24Z</time></trkpt>
<trkpt lat="35.05871" lon="-85.059135"><ele>236.8</ele><time>2026-08-02T19:27:26Z</time></trkpt>
<trkpt lat="35.058686" lon="-85.059107"><ele>237.1</ele><time>2026-08-02T19:27:28Z</time></trkpt>
<trkpt lat="35.058665" lon="-85.059079"><ele>237.4</ele><time>2026-08-02T19:27:30Z</time></trkpt>
<trkpt lat="35.058647" lon="-85.059049"><ele>237.7</ele><time>2026-08-02T19:27:32Z</time></trkpt>
<trkpt lat="35.058628" lon="-85.059018"><ele>238.4</ele><time>2026-08-02T19:27:34Z</time></trkpt>
<trkpt lat="35.058609" lon="-85.058989"><ele>238.0</ele><time>2026-08-02T19:27:36Z</time></trkpt>
<trkpt lat="35.058592" lon="-85.05896"><ele>240.2</ele><time>2026-08-02T19:27:38Z</time></trkpt>
<trkpt lat="35.05857" lon="-85.058933"><ele>239.9</ele><time>2026-08-02T19:27:40Z</time></trkpt>
<trkpt lat="35.058546" lon="-85.058907"><ele>239.6</ele><time>2026-08-02T19:27:42Z</time></trkpt>
<trkpt lat="35.058519" lon="-85.058875"><ele>239.3</ele><time>2026-08-02T19:27:44Z</time></trkpt>
<trkpt lat="35.058499" lon="-85.058845"><ele>237.1</ele><time>2026-08-02T19:27:45Z</time></trkpt>
<trkpt lat="35.058478" lon="-85.058812"><ele>236.8</ele><time>2026-08-02T19:27:46Z</time></trkpt>
<trkpt lat="35.058455" lon="-85.058781"><ele>237.1</ele><time>2026-08-02T19:27:47Z</time></trkpt>
<trkpt lat="35.058432" lon="-85.058754"><ele>237.4</ele><time>2026-08-02T19:27:48Z</time></trkpt>
<trkpt lat="35.058409" lon="-85.058725"><ele>237.7</ele><time>2026-08-02T19:27:49Z</time></trkpt>
<trkpt lat="35.058383" lon="-85.058686"><ele>238.0</ele><time>2026-08-02T19:27:50Z</time></trkpt>
<trkpt lat="35.058358" lon="-85.058645"><ele>238.4</ele><time>2026-08-02T19:27:51Z</time></trkpt>
<trkpt lat="35.058336" lon="-85.058608"><ele>238.7</ele><time>2026-08-02T19:27:52Z</time></trkpt>
<trkpt lat="35.058311" lon="-85.058573"><ele>238.7</ele><time>2026-08-02T19:27:53Z</time></trkpt>
<trkpt lat="35.058283" lon="-85.058538"><ele>239.9</ele><time>2026-08-02T19:27:54Z</time></trkpt>
<trkpt lat="35.058253" lon="-85.058502"><ele>240.5</ele><time>2026-08-02T19:27:55Z</time></trkpt>
<trkpt lat="35.058227" lon="-85.058473"><ele>241.7</ele><time>2026-08-02T19:27:56Z</time></trkpt>
<trkpt lat="35.058206" lon="-85.058445"><ele>240.2</ele><time>2026-08-02T19:27:57Z</time></trkpt>
<trkpt lat="35.058182" lon="-85.058419"><ele>239.9</ele><time>2026-08-02T19:27:58Z</time></trkpt>
<trkpt lat="35.058153" lon="-85.058394"><ele>240.5</ele><time>2026-08-02T19:27:59Z</time></trkpt>
<trkpt lat="35.058127" lon="-85.058374"><ele>239.9</ele><time>2026-08-02T19:28:00Z</time></trkpt>
<trkpt lat="35.058103" lon="-85.058355"><ele>239.3</ele><time>2026-08-02T19:28:01Z</time></trkpt>
<trkpt lat="35.058082" lon="-85.058333"><ele>239.3</ele><time>2026-08-02T19:28:02Z</time></trkpt>
<trkpt lat="35.058052" lon="-85.058278"><ele>239.6</ele><time>2026-08-02T19:28:04Z</time></trkpt>
<trkpt lat="35.058035" lon="-85.058235"><ele>239.9</ele><time>2026-08-02T19:28:06Z</time></trkpt>
<trkpt lat="35.058023" lon="-85.058202"><ele>238.7</ele><time>2026-08-02T19:28:08Z</time></trkpt>
<trkpt lat="35.058002" lon="-85.058177"><ele>239.3</ele><time>2026-08-02T19:28:11Z</time></trkpt>
<trkpt lat="35.057981" lon="-85.05815"><ele>239.6</ele><time>2026-08-02T19:28:14Z</time></trkpt>
<trkpt lat="35.057957" lon="-85.058138"><ele>242.3</ele><time>2026-08-02T19:28:17Z</time></trkpt>
<trkpt lat="35.057967" lon="-85.058155"><ele>242.9</ele><time>2026-08-02T19:28:18Z</time></trkpt>
<trkpt lat="35.057969" lon="-85.05816"><ele>242.9</ele><time>2026-08-02T19:28:19Z</time></trkpt>
<trkpt lat="35.057968" lon="-85.05816"><ele>242.9</ele><time>2026-08-02T19:28:20Z</time></trkpt>
<trkpt lat="35.057953" lon="-85.058122"><ele>243.2</ele><time>2026-08-02T19:28:23Z</time></trkpt>
<trkpt lat="35.057932" lon="-85.058091"><ele>241.4</ele><time>2026-08-02T19:28:26Z</time></trkpt>
<trkpt lat="35.057904" lon="-85.05807"><ele>239.6</ele><time>2026-08-02T19:28:28Z</time></trkpt>
<trkpt lat="35.057881" lon="-85.058042"><ele>238.7</ele><time>2026-08-02T19:28:30Z</time></trkpt>
<trkpt lat="35.057855" lon="-85.058013"><ele>236.2</ele><time>2026-08-02T19:28:33Z</time></trkpt>
<trkpt lat="35.057823" lon="-85.058014"><ele>234.1</ele><time>2026-08-02T19:28:35Z</time></trkpt>
<trkpt lat="35.05779" lon="-85.058002"><ele>233.2</ele><time>2026-08-02T19:28:37Z</time></trkpt>
<trkpt lat="35.057761" lon="-85.057989"><ele>230.4</ele><time>2026-08-02T19:28:39Z</time></trkpt>
<trkpt lat="35.057724" lon="-85.057972"><ele>232.0</ele><time>2026-08-02T19:28:42Z</time></trkpt>
<trkpt lat="35.057706" lon="-85.057936"><ele>231.6</ele><time>2026-08-02T19:28:44Z</time></trkpt>
<trkpt lat="35.057692" lon="-85.057895"><ele>235.3</ele><time>2026-08-02T19:28:47Z</time></trkpt>
<trkpt lat="35.057684" lon="-85.057844"><ele>239.9</ele><time>2026-08-02T19:28:50Z</time></trkpt>
<trkpt lat="35.0577" lon="-85.057814"><ele>238.0</ele><time>2026-08-02T19:28:52Z</time></trkpt>
<trkpt lat="35.057733" lon="-85.057794"><ele>239.3</ele><time>2026-08-02T19:28:54Z</time></trkpt>
<trkpt lat="35.057773" lon="-85.057775"><ele>241.1</ele><time>2026-08-02T19:28:56Z</time></trkpt>
<trkpt lat="35.057808" lon="-85.057745"><ele>244.4</ele><time>2026-08-02T19:28:58Z</time></trkpt>
<trkpt lat="35.057832" lon="-85.057717"><ele>243.2</ele><time>2026-08-02T19:29:00Z</time></trkpt>
<trkpt lat="35.057849" lon="-85.057681"><ele>242.9</ele><time>2026-08-02T19:29:03Z</time></trkpt>
<trkpt lat="35.057854" lon="-85.057642"><ele>243.2</ele><time>2026-08-02T19:29:06Z</time></trkpt>
<trkpt lat="35.057855" lon="-85.057593"><ele>244.1</ele><time>2026-08-02T19:29:09Z</time></trkpt>
<trkpt lat="35.05786" lon="-85.057545"><ele>244.1</ele><time>2026-08-02T19:29:11Z</time></trkpt>
<trkpt lat="35.057857" lon="-85.057499"><ele>244.4</ele><time>2026-08-02T19:29:13Z</time></trkpt>
<trkpt lat="35.057842" lon="-85.05746"><ele>243.8</ele><time>2026-08-02T19:29:15Z</time></trkpt>
<trkpt lat="35.057835" lon="-85.057415"><ele>244.1</ele><time>2026-08-02T19:29:17Z</time></trkpt>
<trkpt lat="35.057832" lon="-85.057369"><ele>242.9</ele><time>2026-08-02T19:29:19Z</time></trkpt>
<trkpt lat="35.057819" lon="-85.057331"><ele>242.9</ele><time>2026-08-02T19:29:21Z</time></trkpt>
<trkpt lat="35.057804" lon="-85.057301"><ele>244.1</ele><time>2026-08-02T19:29:23Z</time></trkpt>
<trkpt lat="35.057789" lon="-85.057252"><ele>242.3</ele><time>2026-08-02T19:29:26Z</time></trkpt>
<trkpt lat="35.057773" lon="-85.057215"><ele>240.2</ele><time>2026-08-02T19:29:28Z</time></trkpt>
<trkpt lat="35.057757" lon="-85.057183"><ele>240.5</ele><time>2026-08-02T19:29:30Z</time></trkpt>
<trkpt lat="35.057741" lon="-85.05715"><ele>240.2</ele><time>2026-08-02T19:29:32Z</time></trkpt>
<trkpt lat="35.057719" lon="-85.057123"><ele>239.6</ele><time>2026-08-02T19:29:34Z</time></trkpt>
<trkpt lat="35.057691" lon="-85.057104"><ele>240.2</ele><time>2026-08-02T19:29:36Z</time></trkpt>
<trkpt lat="35.057662" lon="-85.057091"><ele>240.8</ele><time>2026-08-02T19:29:38Z</time></trkpt>
<trkpt lat="35.057641" lon="-85.057049"><ele>239.6</ele><time>2026-08-02T19:29:40Z</time></trkpt>
<trkpt lat="35.057619" lon="-85.057021"><ele>239.9</ele><time>2026-08-02T19:29:42Z</time></trkpt>
<trkpt lat="35.057588" lon="-85.057008"><ele>239.3</ele><time>2026-08-02T19:29:44Z</time></trkpt>
<trkpt lat="35.057565" lon="-85.056979"><ele>240.5</ele><time>2026-08-02T19:29:46Z</time></trkpt>
<trkpt lat="35.057553" lon="-85.056932"><ele>240.8</ele><time>2026-08-02T19:29:48Z</time></trkpt>
<trkpt lat="35.057551" lon="-85.056879"><ele>241.7</ele><time>2026-08-02T19:29:50Z</time></trkpt>
<trkpt lat="35.057563" lon="-85.056848"><ele>241.4</ele><time>2026-08-02T19:29:51Z</time></trkpt>
<trkpt lat="35.057579" lon="-85.056796"><ele>240.8</ele><time>2026-08-02T19:29:53Z</time></trkpt>
<trkpt lat="35.057573" lon="-85.056752"><ele>241.4</ele><time>2026-08-02T19:29:55Z</time></trkpt>
<trkpt lat="35.057555" lon="-85.056708"><ele>240.8</ele><time>2026-08-02T19:29:57Z</time></trkpt>
<trkpt lat="35.057535" lon="-85.056672"><ele>240.8</ele><time>2026-08-02T19:29:59Z</time></trkpt>
<trkpt lat="35.057518" lon="-85.056638"><ele>241.4</ele><time>2026-08-02T19:30:01Z</time></trkpt>
<trkpt lat="35.057498" lon="-85.05661"><ele>241.1</ele><time>2026-08-02T19:30:03Z</time></trkpt>
<trkpt lat="35.057472" lon="-85.056587"><ele>242.6</ele><time>2026-08-02T19:30:05Z</time></trkpt>
<trkpt lat="35.057441" lon="-85.056566"><ele>243.5</ele><time>2026-08-02T19:30:07Z</time></trkpt>
<trkpt lat="35.057421" lon="-85.056536"><ele>245.4</ele><time>2026-08-02T19:30:09Z</time></trkpt>
<trkpt lat="35.057407" lon="-85.056502"><ele>244.8</ele><time>2026-08-02T19:30:11Z</time></trkpt>
<trkpt lat="35.057397" lon="-85.05647"><ele>242.6</ele><time>2026-08-02T19:30:13Z</time></trkpt>
<trkpt lat="35.057388" lon="-85.056438"><ele>242.9</ele><time>2026-08-02T19:30:15Z</time></trkpt>
<trkpt lat="35.057372" lon="-85.056409"><ele>242.9</ele><time>2026-08-02T19:30:17Z</time></trkpt>
<trkpt lat="35.057359" lon="-85.056373"><ele>242.6</ele><time>2026-08-02T19:30:19Z</time></trkpt>
<trkpt lat="35.057348" lon="-85.056337"><ele>242.3</ele><time>2026-08-02T19:30:21Z</time></trkpt>
<trkpt lat="35.057333" lon="-85.056305"><ele>242.6</ele><time>2026-08-02T19:30:23Z</time></trkpt>
<trkpt lat="35.057314" lon="-85.056275"><ele>242.9</ele><time>2026-08-02T19:30:25Z</time></trkpt>
<trkpt lat="35.0573" lon="-85.056241"><ele>243.2</ele><time>2026-08-02T19:30:27Z</time></trkpt>
<trkpt lat="35.057284" lon="-85.056212"><ele>242.9</ele><time>2026-08-02T19:30:29Z</time></trkpt>
<trkpt lat="35.057251" lon="-85.056179"><ele>242.6</ele><time>2026-08-02T19:30:32Z</time></trkpt>
<trkpt lat="35.057233" lon="-85.056146"><ele>242.6</ele><time>2026-08-02T19:30:34Z</time></trkpt>
<trkpt lat="35.057213" lon="-85.056116"><ele>242.9</ele><time>2026-08-02T19:30:36Z</time></trkpt>
<trkpt lat="35.057192" lon="-85.056092"><ele>242.9</ele><time>2026-08-02T19:30:38Z</time></trkpt>
<trkpt lat="35.057168" lon="-85.056066"><ele>244.1</ele><time>2026-08-02T19:30:40Z</time></trkpt>
<trkpt lat="35.057142" lon="-85.056042"><ele>244.8</ele><time>2026-08-02T19:30:42Z</time></trkpt>
<trkpt lat="35.057118" lon="-85.056017"><ele>244.4</ele><time>2026-08-02T19:30:44Z</time></trkpt>
<trkpt lat="35.057094" lon="-85.055996"><ele>244.8</ele><time>2026-08-02T19:30:46Z</time></trkpt>
<trkpt lat="35.057067" lon="-85.055979"><ele>244.4</ele><time>2026-08-02T19:30:48Z</time></trkpt>
<trkpt lat="35.057033" lon="-85.055969"><ele>244.1</ele><time>2026-08-02T19:30:50Z</time></trkpt>
<trkpt lat="35.057006" lon="-85.055954"><ele>245.4</ele><time>2026-08-02T19:30:52Z</time></trkpt>
<trkpt lat="35.056981" lon="-85.055935"><ele>245.7</ele><time>2026-08-02T19:30:54Z</time></trkpt>
<trkpt lat="35.056963" lon="-85.055897"><ele>245.7</ele><time>2026-08-02T19:30:56Z</time></trkpt>
<trkpt lat="35.056918" lon="-85.055897"><ele>245.7</ele><time>2026-08-02T19:30:59Z</time></trkpt>
<trkpt lat="35.056881" lon="-85.055903"><ele>246.6</ele><time>2026-08-02T19:31:01Z</time></trkpt>
<trkpt lat="35.056854" lon="-85.055914"><ele>245.7</ele><time>2026-08-02T19:31:03Z</time></trkpt>
<trkpt lat="35.056827" lon="-85.05592"><ele>245.4</ele><time>2026-08-02T19:31:05Z</time></trkpt>
<trkpt lat="35.056801" lon="-85.055896"><ele>244.1</ele><time>2026-08-02T19:31:08Z</time></trkpt>
<trkpt lat="35.056779" lon="-85.055873"><ele>243.8</ele><time>2026-08-02T19:31:10Z</time></trkpt>
<trkpt lat="35.056758" lon="-85.055843"><ele>243.2</ele><time>2026-08-02T19:31:12Z</time></trkpt>
<trkpt lat="35.056733" lon="-85.055821"><ele>242.9</ele><time>2026-08-02T19:31:14Z</time></trkpt>
<trkpt lat="35.056708" lon="-85.055801"><ele>242.6</ele><time>2026-08-02T19:31:16Z</time></trkpt>
<trkpt lat="35.056682" lon="-85.055786"><ele>242.6</ele><time>2026-08-02T19:31:18Z</time></trkpt>
<trkpt lat="35.05665" lon="-85.055798"><ele>242.3</ele><time>2026-08-02T19:31:20Z</time></trkpt>
<trkpt lat="35.056625" lon="-85.055764"><ele>242.3</ele><time>2026-08-02T19:31:23Z</time></trkpt>
<trkpt lat="35.056605" lon="-85.055739"><ele>241.7</ele><time>2026-08-02T19:31:25Z</time></trkpt>
<trkpt lat="35.056579" lon="-85.055722"><ele>240.5</ele><time>2026-08-02T19:31:29Z</time></trkpt>
<trkpt lat="35.056557" lon="-85.055699"><ele>240.5</ele><time>2026-08-02T19:31:31Z</time></trkpt>
<trkpt lat="35.056532" lon="-85.055673"><ele>240.8</ele><time>2026-08-02T19:31:33Z</time></trkpt>
<trkpt lat="35.056505" lon="-85.055655"><ele>241.7</ele><time>2026-08-02T19:31:35Z</time></trkpt>
<trkpt lat="35.056483" lon="-85.055634"><ele>241.4</ele><time>2026-08-02T19:31:37Z</time></trkpt>
<trkpt lat="35.056454" lon="-85.055597"><ele>241.7</ele><time>2026-08-02T19:31:40Z</time></trkpt>
<trkpt lat="35.056436" lon="-85.055571"><ele>241.4</ele><time>2026-08-02T19:31:42Z</time></trkpt>
<trkpt lat="35.056423" lon="-85.055541"><ele>241.7</ele><time>2026-08-02T19:31:44Z</time></trkpt>
<trkpt lat="35.056401" lon="-85.055514"><ele>243.2</ele><time>2026-08-02T19:31:46Z</time></trkpt>
<trkpt lat="35.056376" lon="-85.055499"><ele>243.2</ele><time>2026-08-02T19:31:48Z</time></trkpt>
<trkpt lat="35.056347" lon="-85.05547"><ele>242.6</ele><time>2026-08-02T19:31:51Z</time></trkpt>
<trkpt lat="35.056323" lon="-85.055448"><ele>243.8</ele><time>2026-08-02T19:31:53Z</time></trkpt>
<trkpt lat="35.056302" lon="-85.055425"><ele>243.8</ele><time>2026-08-02T19:31:55Z</time></trkpt>
<trkpt lat="35.056274" lon="-85.055392"><ele>244.4</ele><time>2026-08-02T19:31:58Z</time></trkpt>
<trkpt lat="35.056244" lon="-85.05537"><ele>243.5</ele><time>2026-08-02T19:32:01Z</time></trkpt>
<trkpt lat="35.056219" lon="-85.055355"><ele>243.5</ele><time>2026-08-02T19:32:03Z</time></trkpt>
<trkpt lat="35.056192" lon="-85.05534"><ele>243.2</ele><time>2026-08-02T19:32:05Z</time></trkpt>
<trkpt lat="35.056168" lon="-85.055323"><ele>242.3</ele><time>2026-08-02T19:32:07Z</time></trkpt>
<trkpt lat="35.056141" lon="-85.055308"><ele>242.0</ele><time>2026-08-02T19:32:09Z</time></trkpt>
<trkpt lat="35.056113" lon="-85.0553"><ele>241.1</ele><time>2026-08-02T19:32:11Z</time></trkpt>
<trkpt lat="35.056087" lon="-85.055288"><ele>240.8</ele><time>2026-08-02T19:32:13Z</time></trkpt>
<trkpt lat="35.056062" lon="-85.055269"><ele>240.8</ele><time>2026-08-02T19:32:15Z</time></trkpt>
<trkpt lat="35.056039" lon="-85.055246"><ele>239.9</ele><time>2026-08-02T19:32:17Z</time></trkpt>
<trkpt lat="35.056019" lon="-85.055217"><ele>240.8</ele><time>2026-08-02T19:32:19Z</time></trkpt>
<trkpt lat="35.055996" lon="-85.055187"><ele>242.3</ele><time>2026-08-02T19:32:21Z</time></trkpt>
<trkpt lat="35.055972" lon="-85.055165"><ele>242.6</ele><time>2026-08-02T19:32:23Z</time></trkpt>
<trkpt lat="35.055943" lon="-85.055193"><ele>240.8</ele><time>2026-08-02T19:32:25Z</time></trkpt>
<trkpt lat="35.055931" lon="-85.055094"><ele>247.2</ele><time>2026-08-02T19:32:26Z</time></trkpt>
<trkpt lat="35.055902" lon="-85.055088"><ele>246.9</ele><time>2026-08-02T19:32:28Z</time></trkpt>
<trkpt lat="35.055872" lon="-85.05508"><ele>246.9</ele><time>2026-08-02T19:32:30Z</time></trkpt>
<trkpt lat="35.055839" lon="-85.05507"><ele>244.8</ele><time>2026-08-02T19:32:33Z</time></trkpt>
<trkpt lat="35.05581" lon="-85.055059"><ele>244.1</ele><time>2026-08-02T19:32:35Z</time></trkpt>
<trkpt lat="35.05578" lon="-85.055051"><ele>244.1</ele><time>2026-08-02T19:32:37Z</time></trkpt>
<trkpt lat="35.055749" lon="-85.055042"><ele>244.1</ele><time>2026-08-02T19:32:39Z</time></trkpt>
<trkpt lat="35.05572" lon="-85.055024"><ele>244.1</ele><time>2026-08-02T19:32:41Z</time></trkpt>
<trkpt lat="35.055697" lon="-85.054999"><ele>244.8</ele><time>2026-08-02T19:32:43Z</time></trkpt>
<trkpt lat="35.055675" lon="-85.054975"><ele>244.8</ele><time>2026-08-02T19:32:45Z</time></trkpt>
<trkpt lat="35.055651" lon="-85.054954"><ele>245.1</ele><time>2026-08-02T19:32:47Z</time></trkpt>
<trkpt lat="35.055625" lon="-85.054935"><ele>245.1</ele><time>2026-08-02T19:32:49Z</time></trkpt>
<trkpt lat="35.055603" lon="-85.054911"><ele>245.4</ele><time>2026-08-02T19:32:51Z</time></trkpt>
<trkpt lat="35.055583" lon="-85.054879"><ele>245.1</ele><time>2026-08-02T19:32:53Z</time></trkpt>
<trkpt lat="35.055561" lon="-85.054849"><ele>245.4</ele><time>2026-08-02T19:32:55Z</time></trkpt>
<trkpt lat="35.055534" lon="-85.054809"><ele>245.4</ele><time>2026-08-02T19:32:58Z</time></trkpt>
<trkpt lat="35.055518" lon="-85.054781"><ele>245.1</ele><time>2026-08-02T19:33:00Z</time></trkpt>
<trkpt lat="35.0555" lon="-85.054756"><ele>245.1</ele><time>2026-08-02T19:33:02Z</time></trkpt>
<trkpt lat="35.055466" lon="-85.054728"><ele>245.1</ele><time>2026-08-02T19:33:05Z</time></trkpt>
<trkpt lat="35.055442" lon="-85.054708"><ele>244.8</ele><time>2026-08-02T19:33:07Z</time></trkpt>
<trkpt lat="35.055416" lon="-85.054692"><ele>245.1</ele><time>2026-08-02T19:33:09Z</time></trkpt>
<trkpt lat="35.055392" lon="-85.054675"><ele>245.4</ele><time>2026-08-02T19:33:11Z</time></trkpt>
<trkpt lat="35.055366" lon="-85.054656"><ele>245.4</ele><time>2026-08-02T19:33:13Z</time></trkpt>
<trkpt lat="35.055343" lon="-85.05463"><ele>245.4</ele><time>2026-08-02T19:33:15Z</time></trkpt>
<trkpt lat="35.05532" lon="-85.054604"><ele>245.1</ele><time>2026-08-02T19:33:17Z</time></trkpt>
<trkpt lat="35.055297" lon="-85.054579"><ele>244.8</ele><time>2026-08-02T19:33:19Z</time></trkpt>
<trkpt lat="35.055276" lon="-85.054553"><ele>243.8</ele><time>2026-08-02T19:33:21Z</time></trkpt>
<trkpt lat="35.055255" lon="-85.054524"><ele>243.8</ele><time>2026-08-02T19:33:23Z</time></trkpt>
<trkpt lat="35.055232" lon="-85.054499"><ele>243.5</ele><time>2026-08-02T19:33:25Z</time></trkpt>
<trkpt lat="35.055212" lon="-85.054474"><ele>243.2</ele><time>2026-08-02T19:33:27Z</time></trkpt>
<trkpt lat="35.055191" lon="-85.054447"><ele>242.9</ele><time>2026-08-02T19:33:29Z</time></trkpt>
<trkpt lat="35.05517" lon="-85.054422"><ele>242.6</ele><time>2026-08-02T19:33:31Z</time></trkpt>
<trkpt lat="35.055149" lon="-85.054398"><ele>242.3</ele><time>2026-08-02T19:33:33Z</time></trkpt>
<trkpt lat="35.055128" lon="-85.054373"><ele>242.3</ele><time>2026-08-02T19:33:35Z</time></trkpt>
<trkpt lat="35.055108" lon="-85.054345"><ele>241.7</ele><time>2026-08-02T19:33:37Z</time></trkpt>
<trkpt lat="35.055087" lon="-85.05432"><ele>241.7</ele><time>2026-08-02T19:33:39Z</time></trkpt>
<trkpt lat="35.055065" lon="-85.054296"><ele>241.4</ele><time>2026-08-02T19:33:41Z</time></trkpt>
<trkpt lat="35.055045" lon="-85.054273"><ele>241.4</ele><time>2026-08-02T19:33:43Z</time></trkpt>
<trkpt lat="35.055025" lon="-85.054244"><ele>241.1</ele><time>2026-08-02T19:33:45Z</time></trkpt>
<trkpt lat="35.055003" lon="-85.054218"><ele>240.8</ele><time>2026-08-02T19:33:47Z</time></trkpt>
<trkpt lat="35.054982" lon="-85.054191"><ele>241.1</ele><time>2026-08-02T19:33:49Z</time></trkpt>
<trkpt lat="35.054964" lon="-85.054163"><ele>241.4</ele><time>2026-08-02T19:33:51Z</time></trkpt>
<trkpt lat="35.054945" lon="-85.054135"><ele>242.0</ele><time>2026-08-02T19:33:53Z</time></trkpt>
<trkpt lat="35.054929" lon="-85.054103"><ele>242.0</ele><time>2026-08-02T19:33:55Z</time></trkpt>
<trkpt lat="35.054909" lon="-85.054072"><ele>242.3</ele><time>2026-08-02T19:33:57Z</time></trkpt>
<trkpt lat="35.05489" lon="-85.054041"><ele>242.6</ele><time>2026-08-02T19:33:59Z</time></trkpt>
<trkpt lat="35.054871" lon="-85.054011"><ele>242.6</ele><time>2026-08-02T19:34:01Z</time></trkpt>
<trkpt lat="35.054853" lon="-85.053982"><ele>242.9</ele><time>2026-08-02T19:34:03Z</time></trkpt>
<trkpt lat="35.054835" lon="-85.053952"><ele>243.2</ele><time>2026-08-02T19:34:05Z</time></trkpt>
<trkpt lat="35.054816" lon="-85.053923"><ele>242.9</ele><time>2026-08-02T19:34:07Z</time></trkpt>
<trkpt lat="35.054797" lon="-85.053893"><ele>243.2</ele><time>2026-08-02T19:34:09Z</time></trkpt>
<trkpt lat="35.054779" lon="-85.053864"><ele>243.2</ele><time>2026-08-02T19:34:11Z</time></trkpt>
<trkpt lat="35.054762" lon="-85.053836"><ele>243.2</ele><time>2026-08-02T19:34:13Z</time></trkpt>
<trkpt lat="35.054744" lon="-85.053808"><ele>243.8</ele><time>2026-08-02T19:34:15Z</time></trkpt>
<trkpt lat="35.054726" lon="-85.053779"><ele>243.8</ele><time>2026-08-02T19:34:17Z</time></trkpt>
<trkpt lat="35.05471" lon="-85.053749"><ele>244.1</ele><time>2026-08-02T19:34:19Z</time></trkpt>
<trkpt lat="35.054692" lon="-85.053719"><ele>244.1</ele><time>2026-08-02T19:34:21Z</time></trkpt>
<trkpt lat="35.054672" lon="-85.053691"><ele>244.4</ele><time>2026-08-02T19:34:23Z</time></trkpt>
<trkpt lat="35.054654" lon="-85.053661"><ele>244.1</ele><time>2026-08-02T19:34:25Z</time></trkpt>
<trkpt lat="35.054637" lon="-85.05363"><ele>244.8</ele><time>2026-08-02T19:34:27Z</time></trkpt>
<trkpt lat="35.054618" lon="-85.053598"><ele>245.1</ele><time>2026-08-02T19:34:29Z</time></trkpt>
<trkpt lat="35.054602" lon="-85.053566"><ele>245.1</ele><time>2026-08-02T19:34:31Z</time></trkpt>
<trkpt lat="35.054584" lon="-85.053533"><ele>245.1</ele><time>2026-08-02T19:34:33Z</time></trkpt>
<trkpt lat="35.054565" lon="-85.053502"><ele>245.4</ele><time>2026-08-02T19:34:35Z</time></trkpt>
<trkpt lat="35.054546" lon="-85.053468"><ele>245.7</ele><time>2026-08-02T19:34:37Z</time></trkpt>
<trkpt lat="35.05453" lon="-85.053434"><ele>245.7</ele><time>2026-08-02T19:34:39Z</time></trkpt>
<trkpt lat="35.054514" lon="-85.0534"><ele>245.7</ele><time>2026-08-02T19:34:41Z</time></trkpt>
<trkpt lat="35.054502" lon="-85.053365"><ele>245.4</ele><time>2026-08-02T19:34:43Z</time></trkpt>
<trkpt lat="35.054489" lon="-85.053329"><ele>245.1</ele><time>2026-08-02T19:34:45Z</time></trkpt>
<trkpt lat="35.054479" lon="-85.053294"><ele>244.8</ele><time>2026-08-02T19:34:47Z</time></trkpt>
<trkpt lat="35.054466" lon="-85.053264"><ele>245.1</ele><time>2026-08-02T19:34:49Z</time></trkpt>
<trkpt lat="35.054452" lon="-85.053231"><ele>244.8</ele><time>2026-08-02T19:34:51Z</time></trkpt>
<trkpt lat="35.05444" lon="-85.0532"><ele>245.1</ele><time>2026-08-02T19:34:53Z</time></trkpt>
<trkpt lat="35.054429" lon="-85.053167"><ele>245.1</ele><time>2026-08-02T19:34:55Z</time></trkpt>
<trkpt lat="35.054417" lon="-85.053135"><ele>244.8</ele><time>2026-08-02T19:34:57Z</time></trkpt>
<trkpt lat="35.054405" lon="-85.0531"><ele>245.1</ele><time>2026-08-02T19:34:59Z</time></trkpt>
<trkpt lat="35.054395" lon="-85.053065"><ele>244.8</ele><time>2026-08-02T19:35:01Z</time></trkpt>
<trkpt lat="35.054381" lon="-85.05303"><ele>244.4</ele><time>2026-08-02T19:35:03Z</time></trkpt>
<trkpt lat="35.054367" lon="-85.052995"><ele>244.1</ele><time>2026-08-02T19:35:05Z</time></trkpt>
<trkpt lat="35.054357" lon="-85.05296"><ele>243.8</ele><time>2026-08-02T19:35:07Z</time></trkpt>
<trkpt lat="35.054349" lon="-85.052923"><ele>244.1</ele><time>2026-08-02T19:35:09Z</time></trkpt>
<trkpt lat="35.054341" lon="-85.052886"><ele>244.1</ele><time>2026-08-02T19:35:11Z</time></trkpt>
<trkpt lat="35.054339" lon="-85.052847"><ele>243.8</ele><time>2026-08-02T19:35:13Z</time></trkpt>
<trkpt lat="35.054343" lon="-85.052811"><ele>243.8</ele><time>2026-08-02T19:35:15Z</time></trkpt>
<trkpt lat="35.054349" lon="-85.052775"><ele>244.4</ele><time>2026-08-02T19:35:17Z</time></trkpt>
<trkpt lat="35.054353" lon="-85.052741"><ele>244.8</ele><time>2026-08-02T19:35:19Z</time></trkpt>
<trkpt lat="35.054352" lon="-85.052704"><ele>244.4</ele><time>2026-08-02T19:35:21Z</time></trkpt>
<trkpt lat="35.054355" lon="-85.052668"><ele>244.8</ele><time>2026-08-02T19:35:23Z</time></trkpt>
<trkpt lat="35.054357" lon="-85.052633"><ele>244.8</ele><time>2026-08-02T19:35:25Z</time></trkpt>
<trkpt lat="35.054356" lon="-85.052598"><ele>244.8</ele><time>2026-08-02T19:35:27Z</time></trkpt>
<trkpt lat="35.054349" lon="-85.052547"><ele>245.1</ele><time>2026-08-02T19:35:30Z</time></trkpt>
<trkpt lat="35.054333" lon="-85.052514"><ele>245.1</ele><time>2026-08-02T19:35:32Z</time></trkpt>
<trkpt lat="35.054307" lon="-85.052491"><ele>245.1</ele><time>2026-08-02T19:35:34Z</time></trkpt>
<trkpt lat="35.05428" lon="-85.052473"><ele>245.7</ele><time>2026-08-02T19:35:36Z</time></trkpt>
<trkpt lat="35.05425" lon="-85.052461"><ele>246.3</ele><time>2026-08-02T19:35:38Z</time></trkpt>
<trkpt lat="35.054225" lon="-85.05244"><ele>246.6</ele><time>2026-08-02T19:35:40Z</time></trkpt>
<trkpt lat="35.054201" lon="-85.052417"><ele>246.9</ele><time>2026-08-02T19:35:42Z</time></trkpt>
<trkpt lat="35.054181" lon="-85.052393"><ele>247.5</ele><time>2026-08-02T19:35:44Z</time></trkpt>
<trkpt lat="35.054183" lon="-85.052358"><ele>248.1</ele><time>2026-08-02T19:35:46Z</time></trkpt>
<trkpt lat="35.054185" lon="-85.052325"><ele>247.2</ele><time>2026-08-02T19:35:48Z</time></trkpt>
<trkpt lat="35.054187" lon="-85.05229"><ele>246.6</ele><time>2026-08-02T19:35:50Z</time></trkpt>
<trkpt lat="35.054191" lon="-85.052253"><ele>246.3</ele><time>2026-08-02T19:35:52Z</time></trkpt>
<trkpt lat="35.054195" lon="-85.052215"><ele>246.0</ele><time>2026-08-02T19:35:54Z</time></trkpt>
<trkpt lat="35.054195" lon="-85.052178"><ele>246.3</ele><time>2026-08-02T19:35:56Z</time></trkpt>
<trkpt lat="35.054198" lon="-85.052143"><ele>246.3</ele><time>2026-08-02T19:35:58Z</time></trkpt>
<trkpt lat="35.054203" lon="-85.052105"><ele>246.3</ele><time>2026-08-02T19:36:00Z</time></trkpt>
<trkpt lat="35.054203" lon="-85.052071"><ele>245.7</ele><time>2026-08-02T19:36:02Z</time></trkpt>
<trkpt lat="35.054204" lon="-85.052023"><ele>245.4</ele><time>2026-08-02T19:36:05Z</time></trkpt>
<trkpt lat="35.054207" lon="-85.051973"><ele>245.4</ele><time>2026-08-02T19:36:08Z</time></trkpt>
<trkpt lat="35.054212" lon="-85.051936"><ele>245.1</ele><time>2026-08-02T19:36:10Z</time></trkpt>
<trkpt lat="35.05421" lon="-85.051899"><ele>244.4</ele><time>2026-08-02T19:36:12Z</time></trkpt>
<trkpt lat="35.05421" lon="-85.051861"><ele>243.8</ele><time>2026-08-02T19:36:14Z</time></trkpt>
<trkpt lat="35.05421" lon="-85.051826"><ele>243.2</ele><time>2026-08-02T19:36:16Z</time></trkpt>
<trkpt lat="35.054218" lon="-85.051792"><ele>242.9</ele><time>2026-08-02T19:36:18Z</time></trkpt>
<trkpt lat="35.054228" lon="-85.051757"><ele>242.6</ele><time>2026-08-02T19:36:20Z</time></trkpt>
<trkpt lat="35.054242" lon="-85.051725"><ele>242.6</ele><time>2026-08-02T19:36:22Z</time></trkpt>
<trkpt lat="35.05426" lon="-85.051692"><ele>242.6</ele><time>2026-08-02T19:36:24Z</time></trkpt>
<trkpt lat="35.054278" lon="-85.051662"><ele>242.9</ele><time>2026-08-02T19:36:26Z</time></trkpt>
<trkpt lat="35.054307" lon="-85.051635"><ele>243.2</ele><time>2026-08-02T19:36:29Z</time></trkpt>
<trkpt lat="35.054342" lon="-85.051665"><ele>240.8</ele><time>2026-08-02T19:36:31Z</time></trkpt>
<trkpt lat="35.054339" lon="-85.051652"><ele>243.2</ele><time>2026-08-02T19:36:32Z</time></trkpt>
<trkpt lat="35.054335" lon="-85.051644"><ele>242.6</ele><time>2026-08-02T19:36:40Z</time></trkpt>
<trkpt lat="35.054335" lon="-85.051644"><ele>242.3</ele><time>2026-08-02T19:36:41Z</time></trkpt>
<trkpt lat="35.054333" lon="-85.051649"><ele>242.3</ele><time>2026-08-02T19:36:42Z</time></trkpt>
<trkpt lat="35.054331" lon="-85.051649"><ele>242.3</ele><time>2026-08-02T19:36:43Z</time></trkpt>
<trkpt lat="35.054324" lon="-85.051611"><ele>241.4</ele><time>2026-08-02T19:36:46Z</time></trkpt>
<trkpt lat="35.05433" lon="-85.051578"><ele>241.4</ele><time>2026-08-02T19:36:48Z</time></trkpt>
<trkpt lat="35.054329" lon="-85.051541"><ele>242.0</ele><time>2026-08-02T19:36:50Z</time></trkpt>
<trkpt lat="35.054328" lon="-85.051507"><ele>242.6</ele><time>2026-08-02T19:36:52Z</time></trkpt>
<trkpt lat="35.054328" lon="-85.051473"><ele>243.8</ele><time>2026-08-02T19:36:54Z</time></trkpt>
<trkpt lat="35.054331" lon="-85.051435"><ele>245.1</ele><time>2026-08-02T19:36:56Z</time></trkpt>
<trkpt lat="35.054333" lon="-85.0514"><ele>245.4</ele><time>2026-08-02T19:36:58Z</time></trkpt>
<trkpt lat="35.054337" lon="-85.051365"><ele>245.1</ele><time>2026-08-02T19:37:00Z</time></trkpt>
<trkpt lat="35.054335" lon="-85.051329"><ele>244.8</ele><time>2026-08-02T19:37:02Z</time></trkpt>
<trkpt lat="35.054336" lon="-85.051295"><ele>245.1</ele><time>2026-08-02T19:37:04Z</time></trkpt>
<trkpt lat="35.054339" lon="-85.05126"><ele>245.4</ele><time>2026-08-02T19:37:06Z</time></trkpt>
<trkpt lat="35.054343" lon="-85.051227"><ele>246.0</ele><time>2026-08-02T19:37:08Z</time></trkpt>
<trkpt lat="35.054349" lon="-85.051192"><ele>246.6</ele><time>2026-08-02T19:37:10Z</time></trkpt>
<trkpt lat="35.054353" lon="-85.051143"><ele>246.6</ele><time>2026-08-02T19:37:13Z</time></trkpt>
<trkpt lat="35.054351" lon="-85.051108"><ele>246.9</ele><time>2026-08-02T19:37:15Z</time></trkpt>
<trkpt lat="35.054348" lon="-85.051072"><ele>246.9</ele><time>2026-08-02T19:37:17Z</time></trkpt>
<trkpt lat="35.054344" lon="-85.051038"><ele>247.2</ele><time>2026-08-02T19:37:19Z</time></trkpt>
<trkpt lat="35.05434" lon="-85.051002"><ele>247.5</ele><time>2026-08-02T19:37:21Z</time></trkpt>
<trkpt lat="35.054334" lon="-85.050966"><ele>248.1</ele><time>2026-08-02T19:37:23Z</time></trkpt>
<trkpt lat="35.054327" lon="-85.05093"><ele>248.7</ele><time>2026-08-02T19:37:25Z</time></trkpt>
<trkpt lat="35.05432" lon="-85.050893"><ele>249.0</ele><time>2026-08-02T19:37:27Z</time></trkpt>
<trkpt lat="35.054317" lon="-85.050856"><ele>248.7</ele><time>2026-08-02T19:37:29Z</time></trkpt>
<trkpt lat="35.054315" lon="-85.050821"><ele>249.0</ele><time>2026-08-02T19:37:31Z</time></trkpt>
<trkpt lat="35.054313" lon="-85.050785"><ele>248.7</ele><time>2026-08-02T19:37:33Z</time></trkpt>
<trkpt lat="35.054309" lon="-85.050745"><ele>248.4</ele><time>2026-08-02T19:37:35Z</time></trkpt>
<trkpt lat="35.054299" lon="-85.050707"><ele>249.0</ele><time>2026-08-02T19:37:37Z</time></trkpt>
<trkpt lat="35.054283" lon="-85.050674"><ele>250.2</ele><time>2026-08-02T19:37:39Z</time></trkpt>
<trkpt lat="35.054259" lon="-85.050653"><ele>250.5</ele><time>2026-08-02T19:37:41Z</time></trkpt>
<trkpt lat="35.054254" lon="-85.050656"><ele>249.9</ele><time>2026-08-02T19:37:42Z</time></trkpt>
<trkpt lat="35.054252" lon="-85.050656"><ele>250.2</ele><time>2026-08-02T19:37:46Z</time></trkpt>
<trkpt lat="35.054252" lon="-85.050656"><ele>249.9</ele><time>2026-08-02T19:37:47Z</time></trkpt>
<trkpt lat="35.054251" lon="-85.050663"><ele>249.9</ele><time>2026-08-02T19:37:48Z</time></trkpt>
<trkpt lat="35.054251" lon="-85.050666"><ele>250.2</ele><time>2026-08-02T19:37:49Z</time></trkpt>
<trkpt lat="35.054243" lon="-85.050669"><ele>249.9</ele><time>2026-08-02T19:37:50Z</time></trkpt>
<trkpt lat="35.054241" lon="-85.050672"><ele>249.9</ele><time>2026-08-02T19:37:51Z</time></trkpt>
<trkpt lat="35.054241" lon="-85.05067"><ele>249.6</ele><time>2026-08-02T19:37:52Z</time></trkpt>
<trkpt lat="35.054241" lon="-85.050667"><ele>249.9</ele><time>2026-08-02T19:37:53Z</time></trkpt>
<trkpt lat="35.054243" lon="-85.050668"><ele>249.9</ele><time>2026-08-02T19:37:54Z</time></trkpt>
<trkpt lat="35.054243" lon="-85.050668"><ele>249.9</ele><time>2026-08-02T19:38:02Z</time></trkpt>
<trkpt lat="35.054242" lon="-85.050663"><ele>249.9</ele><time>2026-08-02T19:38:03Z</time></trkpt>
<trkpt lat="35.05425" lon="-85.05062"><ele>249.6</ele><time>2026-08-02T19:38:06Z</time></trkpt>
<trkpt lat="35.054252" lon="-85.05057"><ele>250.5</ele><time>2026-08-02T19:38:09Z</time></trkpt>
<trkpt lat="35.054243" lon="-85.050538"><ele>250.5</ele><time>2026-08-02T19:38:11Z</time></trkpt>
<trkpt lat="35.054223" lon="-85.050496"><ele>249.9</ele><time>2026-08-02T19:38:14Z</time></trkpt>
<trkpt lat="35.054194" lon="-85.050461"><ele>250.2</ele><time>2026-08-02T19:38:17Z</time></trkpt>
<trkpt lat="35.054169" lon="-85.050445"><ele>249.9</ele><time>2026-08-02T19:38:19Z</time></trkpt>
<trkpt lat="35.054141" lon="-85.050441"><ele>249.3</ele><time>2026-08-02T19:38:21Z</time></trkpt>
<trkpt lat="35.054102" lon="-85.050438"><ele>248.4</ele><time>2026-08-02T19:38:24Z</time></trkpt>
<trkpt lat="35.05406" lon="-85.050437"><ele>247.5</ele><time>2026-08-02T19:38:27Z</time></trkpt>
<trkpt lat="35.05403" lon="-85.050435"><ele>246.9</ele><time>2026-08-02T19:38:29Z</time></trkpt>
<trkpt lat="35.053999" lon="-85.050432"><ele>246.9</ele><time>2026-08-02T19:38:31Z</time></trkpt>
<trkpt lat="35.053967" lon="-85.050428"><ele>247.2</ele><time>2026-08-02T19:38:33Z</time></trkpt>
<trkpt lat="35.053936" lon="-85.050429"><ele>247.5</ele><time>2026-08-02T19:38:35Z</time></trkpt>
<trkpt lat="35.053907" lon="-85.050425"><ele>248.1</ele><time>2026-08-02T19:38:37Z</time></trkpt>
<trkpt lat="35.053879" lon="-85.050416"><ele>248.1</ele><time>2026-08-02T19:38:39Z</time></trkpt>
<trkpt lat="35.053853" lon="-85.050401"><ele>247.8</ele><time>2026-08-02T19:38:41Z</time></trkpt>
<trkpt lat="35.053831" lon="-85.050378"><ele>247.2</ele><time>2026-08-02T19:38:43Z</time></trkpt>
<trkpt lat="35.053818" lon="-85.050344"><ele>246.9</ele><time>2026-08-02T19:38:45Z</time></trkpt>
<trkpt lat="35.053812" lon="-85.050305"><ele>247.2</ele><time>2026-08-02T19:38:47Z</time></trkpt>
<trkpt lat="35.053808" lon="-85.050263"><ele>246.9</ele><time>2026-08-02T19:38:49Z</time></trkpt>
<trkpt lat="35.053804" lon="-85.050228"><ele>246.9</ele><time>2026-08-02T19:38:51Z</time></trkpt>
<trkpt lat="35.0538" lon="-85.050192"><ele>246.6</ele><time>2026-08-02T19:38:53Z</time></trkpt>
<trkpt lat="35.053795" lon="-85.050156"><ele>246.3</ele><time>2026-08-02T19:38:55Z</time></trkpt>
<trkpt lat="35.053793" lon="-85.050122"><ele>245.7</ele><time>2026-08-02T19:38:57Z</time></trkpt>
<trkpt lat="35.053786" lon="-85.050088"><ele>245.7</ele><time>2026-08-02T19:38:59Z</time></trkpt>
<trkpt lat="35.053775" lon="-85.050042"><ele>245.7</ele><time>2026-08-02T19:39:02Z</time></trkpt>
<trkpt lat="35.053775" lon="-85.050008"><ele>245.1</ele><time>2026-08-02T19:39:04Z</time></trkpt>
<trkpt lat="35.05378" lon="-85.04997"><ele>245.1</ele><time>2026-08-02T19:39:06Z</time></trkpt>
<trkpt lat="35.053779" lon="-85.049931"><ele>245.4</ele><time>2026-08-02T19:39:08Z</time></trkpt>
<trkpt lat="35.053772" lon="-85.049895"><ele>245.4</ele><time>2026-08-02T19:39:10Z</time></trkpt>
<trkpt lat="35.053763" lon="-85.049862"><ele>246.0</ele><time>2026-08-02T19:39:12Z</time></trkpt>
<trkpt lat="35.053757" lon="-85.049828"><ele>246.0</ele><time>2026-08-02T19:39:14Z</time></trkpt>
<trkpt lat="35.053755" lon="-85.049791"><ele>246.6</ele><time>2026-08-02T19:39:16Z</time></trkpt>
<trkpt lat="35.053762" lon="-85.049755"><ele>248.1</ele><time>2026-08-02T19:39:18Z</time></trkpt>
<trkpt lat="35.053791" lon="-85.049764"><ele>248.1</ele><time>2026-08-02T19:39:19Z</time></trkpt>
<trkpt lat="35.053789" lon="-85.049806"><ele>246.9</ele><time>2026-08-02T19:39:21Z</time></trkpt>
<trkpt lat="35.053791" lon="-85.049846"><ele>246.3</ele><time>2026-08-02T19:39:23Z</time></trkpt>
<trkpt lat="35.053792" lon="-85.049885"><ele>245.7</ele><time>2026-08-02T19:39:25Z</time></trkpt>
<trkpt lat="35.05379" lon="-85.049926"><ele>245.7</ele><time>2026-08-02T19:39:27Z</time></trkpt>
<trkpt lat="35.053785" lon="-85.049962"><ele>245.7</ele><time>2026-08-02T19:39:29Z</time></trkpt>
<trkpt lat="35.053779" lon="-85.049999"><ele>245.4</ele><time>2026-08-02T19:39:31Z</time></trkpt>
<trkpt lat="35.053783" lon="-85.050036"><ele>244.8</ele><time>2026-08-02T19:39:33Z</time></trkpt>
<trkpt lat="35.053791" lon="-85.050074"><ele>244.8</ele><time>2026-08-02T19:39:35Z</time></trkpt>
<trkpt lat="35.053798" lon="-85.05011"><ele>244.4</ele><time>2026-08-02T19:39:37Z</time></trkpt>
<trkpt lat="35.053806" lon="-85.050147"><ele>243.8</ele><time>2026-08-02T19:39:39Z</time></trkpt>
<trkpt lat="35.053811" lon="-85.050187"><ele>243.5</ele><time>2026-08-02T19:39:41Z</time></trkpt>
<trkpt lat="35.053817" lon="-85.050223"><ele>243.5</ele><time>2026-08-02T19:39:43Z</time></trkpt>
<trkpt lat="35.053825" lon="-85.050258"><ele>243.2</ele><time>2026-08-02T19:39:45Z</time></trkpt>
<trkpt lat="35.05383" lon="-85.050295"><ele>242.9</ele><time>2026-08-02T19:39:47Z</time></trkpt>
<trkpt lat="35.053844" lon="-85.050342"><ele>242.9</ele><time>2026-08-02T19:39:50Z</time></trkpt>
<trkpt lat="35.05387" lon="-85.05038"><ele>243.5</ele><time>2026-08-02T19:39:53Z</time></trkpt>
<trkpt lat="35.053895" lon="-85.050398"><ele>243.5</ele><time>2026-08-02T19:39:55Z</time></trkpt>
<trkpt lat="35.053923" lon="-85.050411"><ele>243.5</ele><time>2026-08-02T19:39:57Z</time></trkpt>
<trkpt lat="35.053951" lon="-85.050419"><ele>243.8</ele><time>2026-08-02T19:39:59Z</time></trkpt>
<trkpt lat="35.05398" lon="-85.050422"><ele>243.8</ele><time>2026-08-02T19:40:01Z</time></trkpt>
<trkpt lat="35.054012" lon="-85.050424"><ele>244.1</ele><time>2026-08-02T19:40:03Z</time></trkpt>
<trkpt lat="35.054043" lon="-85.050424"><ele>244.4</ele><time>2026-08-02T19:40:05Z</time></trkpt>
<trkpt lat="35.054072" lon="-85.050422"><ele>244.8</ele><time>2026-08-02T19:40:07Z</time></trkpt>
<trkpt lat="35.054101" lon="-85.050422"><ele>245.1</ele><time>2026-08-02T19:40:09Z</time></trkpt>
<trkpt lat="35.054131" lon="-85.050422"><ele>245.4</ele><time>2026-08-02T19:40:11Z</time></trkpt>
<trkpt lat="35.054161" lon="-85.050422"><ele>245.4</ele><time>2026-08-02T19:40:13Z</time></trkpt>
<trkpt lat="35.054189" lon="-85.050422"><ele>246.0</ele><time>2026-08-02T19:40:15Z</time></trkpt>
<trkpt lat="35.054218" lon="-85.050427"><ele>246.3</ele><time>2026-08-02T19:40:17Z</time></trkpt>
<trkpt lat="35.054242" lon="-85.050446"><ele>246.3</ele><time>2026-08-02T19:40:19Z</time></trkpt>
<trkpt lat="35.054259" lon="-85.050473"><ele>246.6</ele><time>2026-08-02T19:40:21Z</time></trkpt>
<trkpt lat="35.054271" lon="-85.050504"><ele>247.2</ele><time>2026-08-02T19:40:23Z</time></trkpt>
<trkpt lat="35.054282" lon="-85.050535"><ele>247.2</ele><time>2026-08-02T19:40:25Z</time></trkpt>
<trkpt lat="35.054294" lon="-85.05058"><ele>246.6</ele><time>2026-08-02T19:40:28Z</time></trkpt>
<trkpt lat="35.054299" lon="-85.050626"><ele>246.9</ele><time>2026-08-02T19:40:31Z</time></trkpt>
<trkpt lat="35.054308" lon="-85.050659"><ele>246.0</ele><time>2026-08-02T19:40:33Z</time></trkpt>
<trkpt lat="35.054314" lon="-85.050693"><ele>246.3</ele><time>2026-08-02T19:40:35Z</time></trkpt>
<trkpt lat="35.054313" lon="-85.050728"><ele>246.9</ele><time>2026-08-02T19:40:37Z</time></trkpt>
<trkpt lat="35.054324" lon="-85.050777"><ele>246.9</ele><time>2026-08-02T19:40:40Z</time></trkpt>
<trkpt lat="35.054331" lon="-85.050811"><ele>247.5</ele><time>2026-08-02T19:40:42Z</time></trkpt>
<trkpt lat="35.054331" lon="-85.050847"><ele>248.7</ele><time>2026-08-02T19:40:44Z</time></trkpt>
<trkpt lat="35.054337" lon="-85.050883"><ele>247.8</ele><time>2026-08-02T19:40:46Z</time></trkpt>
<trkpt lat="35.054347" lon="-85.050915"><ele>246.9</ele><time>2026-08-02T19:40:48Z</time></trkpt>
<trkpt lat="35.054362" lon="-85.050948"><ele>246.3</ele><time>2026-08-02T19:40:50Z</time></trkpt>
<trkpt lat="35.054364" lon="-85.050986"><ele>246.6</ele><time>2026-08-02T19:40:52Z</time></trkpt>
<trkpt lat="35.054363" lon="-85.051025"><ele>246.6</ele><time>2026-08-02T19:40:54Z</time></trkpt>
<trkpt lat="35.054372" lon="-85.051062"><ele>246.0</ele><time>2026-08-02T19:40:56Z</time></trkpt>
<trkpt lat="35.054376" lon="-85.051097"><ele>246.3</ele><time>2026-08-02T19:40:58Z</time></trkpt>
<trkpt lat="35.054373" lon="-85.051135"><ele>246.0</ele><time>2026-08-02T19:41:00Z</time></trkpt>
<trkpt lat="35.05437" lon="-85.051174"><ele>245.1</ele><time>2026-08-02T19:41:02Z</time></trkpt>
<trkpt lat="35.054362" lon="-85.051211"><ele>245.7</ele><time>2026-08-02T19:41:04Z</time></trkpt>
<trkpt lat="35.054353" lon="-85.051247"><ele>244.8</ele><time>2026-08-02T19:41:06Z</time></trkpt>
<trkpt lat="35.054343" lon="-85.051282"><ele>244.4</ele><time>2026-08-02T19:41:08Z</time></trkpt>
<trkpt lat="35.054334" lon="-85.051317"><ele>244.8</ele><time>2026-08-02T19:41:10Z</time></trkpt>
<trkpt lat="35.05433" lon="-85.051354"><ele>244.1</ele><time>2026-08-02T19:41:12Z</time></trkpt>
<trkpt lat="35.054326" lon="-85.051388"><ele>245.1</ele><time>2026-08-02T19:41:14Z</time></trkpt>
<trkpt lat="35.054324" lon="-85.051425"><ele>244.8</ele><time>2026-08-02T19:41:16Z</time></trkpt>
<trkpt lat="35.054322" lon="-85.051462"><ele>244.1</ele><time>2026-08-02T19:41:18Z</time></trkpt>
<trkpt lat="35.054316" lon="-85.051498"><ele>243.2</ele><time>2026-08-02T19:41:20Z</time></trkpt>
<trkpt lat="35.05431" lon="-85.051533"><ele>243.2</ele><time>2026-08-02T19:41:22Z</time></trkpt>
<trkpt lat="35.054306" lon="-85.051567"><ele>243.5</ele><time>2026-08-02T19:41:24Z</time></trkpt>
<trkpt lat="35.054298" lon="-85.0516"><ele>243.2</ele><time>2026-08-02T19:41:26Z</time></trkpt>
<trkpt lat="35.054286" lon="-85.051634"><ele>242.3</ele><time>2026-08-02T19:41:28Z</time></trkpt>
<trkpt lat="35.054268" lon="-85.051665"><ele>242.3</ele><time>2026-08-02T19:41:30Z</time></trkpt>
<trkpt lat="35.054252" lon="-85.051699"><ele>242.0</ele><time>2026-08-02T19:41:32Z</time></trkpt>
<trkpt lat="35.054237" lon="-85.051731"><ele>242.0</ele><time>2026-08-02T19:41:34Z</time></trkpt>
<trkpt lat="35.054221" lon="-85.051762"><ele>242.6</ele><time>2026-08-02T19:41:36Z</time></trkpt>
<trkpt lat="35.054207" lon="-85.051791"><ele>242.6</ele><time>2026-08-02T19:41:38Z</time></trkpt>
<trkpt lat="35.0542" lon="-85.051827"><ele>242.6</ele><time>2026-08-02T19:41:40Z</time></trkpt>
<trkpt lat="35.054199" lon="-85.051863"><ele>242.3</ele><time>2026-08-02T19:41:42Z</time></trkpt>
<trkpt lat="35.054197" lon="-85.051913"><ele>242.9</ele><time>2026-08-02T19:41:45Z</time></trkpt>
<trkpt lat="35.054198" lon="-85.051947"><ele>243.5</ele><time>2026-08-02T19:41:47Z</time></trkpt>
<trkpt lat="35.054199" lon="-85.051982"><ele>243.5</ele><time>2026-08-02T19:41:49Z</time></trkpt>
<trkpt lat="35.0542" lon="-85.052017"><ele>243.8</ele><time>2026-08-02T19:41:51Z</time></trkpt>
<trkpt lat="35.0542" lon="-85.052054"><ele>244.1</ele><time>2026-08-02T19:41:53Z</time></trkpt>
<trkpt lat="35.054202" lon="-85.052089"><ele>245.1</ele><time>2026-08-02T19:41:55Z</time></trkpt>
<trkpt lat="35.054201" lon="-85.052141"><ele>245.1</ele><time>2026-08-02T19:41:58Z</time></trkpt>
<trkpt lat="35.054201" lon="-85.052176"><ele>245.1</ele><time>2026-08-02T19:42:00Z</time></trkpt>
<trkpt lat="35.054203" lon="-85.052226"><ele>245.4</ele><time>2026-08-02T19:42:03Z</time></trkpt>
<trkpt lat="35.0542" lon="-85.052261"><ele>245.7</ele><time>2026-08-02T19:42:05Z</time></trkpt>
<trkpt lat="35.054199" lon="-85.052298"><ele>245.7</ele><time>2026-08-02T19:42:07Z</time></trkpt>
<trkpt lat="35.054199" lon="-85.052334"><ele>246.0</ele><time>2026-08-02T19:42:09Z</time></trkpt>
<trkpt lat="35.054197" lon="-85.052369"><ele>246.0</ele><time>2026-08-02T19:42:11Z</time></trkpt>
<trkpt lat="35.054194" lon="-85.052406"><ele>245.7</ele><time>2026-08-02T19:42:13Z</time></trkpt>
<trkpt lat="35.054206" lon="-85.05244"><ele>245.4</ele><time>2026-08-02T19:42:15Z</time></trkpt>
<trkpt lat="35.054234" lon="-85.052454"><ele>245.4</ele><time>2026-08-02T19:42:17Z</time></trkpt>
<trkpt lat="35.054262" lon="-85.052472"><ele>244.8</ele><time>2026-08-02T19:42:19Z</time></trkpt>
<trkpt lat="35.054288" lon="-85.05249"><ele>245.4</ele><time>2026-08-02T19:42:21Z</time></trkpt>
<trkpt lat="35.054312" lon="-85.052509"><ele>246.3</ele><time>2026-08-02T19:42:23Z</time></trkpt>
<trkpt lat="35.054337" lon="-85.052532"><ele>245.4</ele><time>2026-08-02T19:42:25Z</time></trkpt>
<trkpt lat="35.054349" lon="-85.052565"><ele>246.0</ele><time>2026-08-02T19:42:27Z</time></trkpt>
<trkpt lat="35.054351" lon="-85.052613"><ele>246.3</ele><time>2026-08-02T19:42:30Z</time></trkpt>
<trkpt lat="35.054349" lon="-85.052651"><ele>245.1</ele><time>2026-08-02T19:42:32Z</time></trkpt>
<trkpt lat="35.054348" lon="-85.052691"><ele>243.5</ele><time>2026-08-02T19:42:34Z</time></trkpt>
<trkpt lat="35.054346" lon="-85.052727"><ele>242.6</ele><time>2026-08-02T19:42:36Z</time></trkpt>
<trkpt lat="35.054344" lon="-85.052765"><ele>242.0</ele><time>2026-08-02T19:42:38Z</time></trkpt>
<trkpt lat="35.054342" lon="-85.052801"><ele>241.4</ele><time>2026-08-02T19:42:40Z</time></trkpt>
<trkpt lat="35.054342" lon="-85.052836"><ele>241.4</ele><time>2026-08-02T19:42:42Z</time></trkpt>
<trkpt lat="35.054341" lon="-85.05287"><ele>241.4</ele><time>2026-08-02T19:42:44Z</time></trkpt>
<trkpt lat="35.054342" lon="-85.052906"><ele>241.1</ele><time>2026-08-02T19:42:46Z</time></trkpt>
<trkpt lat="35.05435" lon="-85.05294"><ele>242.0</ele><time>2026-08-02T19:42:48Z</time></trkpt>
<trkpt lat="35.054359" lon="-85.052975"><ele>242.9</ele><time>2026-08-02T19:42:50Z</time></trkpt>
<trkpt lat="35.054367" lon="-85.05301"><ele>242.9</ele><time>2026-08-02T19:42:52Z</time></trkpt>
<trkpt lat="35.054378" lon="-85.053041"><ele>243.5</ele><time>2026-08-02T19:42:54Z</time></trkpt>
<trkpt lat="35.054391" lon="-85.053075"><ele>243.8</ele><time>2026-08-02T19:42:56Z</time></trkpt>
<trkpt lat="35.054407" lon="-85.053107"><ele>244.8</ele><time>2026-08-02T19:42:58Z</time></trkpt>
<trkpt lat="35.054419" lon="-85.053141"><ele>245.1</ele><time>2026-08-02T19:43:00Z</time></trkpt>
<trkpt lat="35.054434" lon="-85.053173"><ele>245.1</ele><time>2026-08-02T19:43:02Z</time></trkpt>
<trkpt lat="35.054451" lon="-85.053203"><ele>245.4</ele><time>2026-08-02T19:43:04Z</time></trkpt>
<trkpt lat="35.054464" lon="-85.053236"><ele>245.1</ele><time>2026-08-02T19:43:06Z</time></trkpt>
<trkpt lat="35.05448" lon="-85.053267"><ele>245.4</ele><time>2026-08-02T19:43:08Z</time></trkpt>
<trkpt lat="35.054495" lon="-85.053298"><ele>246.0</ele><time>2026-08-02T19:43:10Z</time></trkpt>
<trkpt lat="35.054507" lon="-85.053332"><ele>246.0</ele><time>2026-08-02T19:43:12Z</time></trkpt>
<trkpt lat="35.054519" lon="-85.053367"><ele>246.3</ele><time>2026-08-02T19:43:14Z</time></trkpt>
<trkpt lat="35.054534" lon="-85.053397"><ele>246.3</ele><time>2026-08-02T19:43:16Z</time></trkpt>
<trkpt lat="35.054549" lon="-85.053425"><ele>246.3</ele><time>2026-08-02T19:43:18Z</time></trkpt>
<trkpt lat="35.054564" lon="-85.053456"><ele>246.6</ele><time>2026-08-02T19:43:20Z</time></trkpt>
<trkpt lat="35.054578" lon="-85.053487"><ele>246.3</ele><time>2026-08-02T19:43:22Z</time></trkpt>
<trkpt lat="35.054595" lon="-85.053516"><ele>246.0</ele><time>2026-08-02T19:43:24Z</time></trkpt>
<trkpt lat="35.054608" lon="-85.053548"><ele>245.7</ele><time>2026-08-02T19:43:26Z</time></trkpt>
<trkpt lat="35.054621" lon="-85.053579"><ele>245.7</ele><time>2026-08-02T19:43:28Z</time></trkpt>
<trkpt lat="35.054638" lon="-85.053608"><ele>245.4</ele><time>2026-08-02T19:43:30Z</time></trkpt>
<trkpt lat="35.054657" lon="-85.053638"><ele>244.8</ele><time>2026-08-02T19:43:32Z</time></trkpt>
<trkpt lat="35.054673" lon="-85.053669"><ele>243.8</ele><time>2026-08-02T19:43:34Z</time></trkpt>
<trkpt lat="35.054691" lon="-85.053696"><ele>243.5</ele><time>2026-08-02T19:43:36Z</time></trkpt>
<trkpt lat="35.05471" lon="-85.053727"><ele>243.2</ele><time>2026-08-02T19:43:38Z</time></trkpt>
<trkpt lat="35.05473" lon="-85.053756"><ele>242.3</ele><time>2026-08-02T19:43:40Z</time></trkpt>
<trkpt lat="35.054749" lon="-85.053789"><ele>242.3</ele><time>2026-08-02T19:43:42Z</time></trkpt>
<trkpt lat="35.054769" lon="-85.053823"><ele>242.0</ele><time>2026-08-02T19:43:44Z</time></trkpt>
<trkpt lat="35.054789" lon="-85.053854"><ele>241.7</ele><time>2026-08-02T19:43:46Z</time></trkpt>
<trkpt lat="35.054808" lon="-85.053887"><ele>241.7</ele><time>2026-08-02T19:43:48Z</time></trkpt>
<trkpt lat="35.054827" lon="-85.053918"><ele>241.7</ele><time>2026-08-02T19:43:50Z</time></trkpt>
<trkpt lat="35.054846" lon="-85.053949"><ele>241.7</ele><time>2026-08-02T19:43:52Z</time></trkpt>
<trkpt lat="35.054865" lon="-85.053981"><ele>241.7</ele><time>2026-08-02T19:43:54Z</time></trkpt>
<trkpt lat="35.054884" lon="-85.054011"><ele>241.4</ele><time>2026-08-02T19:43:56Z</time></trkpt>
<trkpt lat="35.054902" lon="-85.054039"><ele>241.1</ele><time>2026-08-02T19:43:58Z</time></trkpt>
<trkpt lat="35.05492" lon="-85.054067"><ele>241.1</ele><time>2026-08-02T19:44:00Z</time></trkpt>
<trkpt lat="35.054941" lon="-85.054095"><ele>241.1</ele><time>2026-08-02T19:44:02Z</time></trkpt>
<trkpt lat="35.05496" lon="-85.054123"><ele>241.1</ele><time>2026-08-02T19:44:04Z</time></trkpt>
<trkpt lat="35.054978" lon="-85.054151"><ele>241.1</ele><time>2026-08-02T19:44:06Z</time></trkpt>
<trkpt lat="35.054998" lon="-85.054179"><ele>240.8</ele><time>2026-08-02T19:44:08Z</time></trkpt>
<trkpt lat="35.055018" lon="-85.054207"><ele>240.5</ele><time>2026-08-02T19:44:10Z</time></trkpt>
<trkpt lat="35.055038" lon="-85.054234"><ele>240.5</ele><time>2026-08-02T19:44:12Z</time></trkpt>
<trkpt lat="35.05506" lon="-85.054262"><ele>240.2</ele><time>2026-08-02T19:44:14Z</time></trkpt>
<trkpt lat="35.055083" lon="-85.054292"><ele>240.2</ele><time>2026-08-02T19:44:16Z</time></trkpt>
<trkpt lat="35.055105" lon="-85.054319"><ele>240.5</ele><time>2026-08-02T19:44:18Z</time></trkpt>
<trkpt lat="35.055127" lon="-85.054347"><ele>240.5</ele><time>2026-08-02T19:44:20Z</time></trkpt>
<trkpt lat="35.05515" lon="-85.054375"><ele>240.5</ele><time>2026-08-02T19:44:22Z</time></trkpt>
<trkpt lat="35.055174" lon="-85.054405"><ele>240.8</ele><time>2026-08-02T19:44:24Z</time></trkpt>
<trkpt lat="35.055195" lon="-85.054434"><ele>240.8</ele><time>2026-08-02T19:44:26Z</time></trkpt>
<trkpt lat="35.055219" lon="-85.054462"><ele>240.8</ele><time>2026-08-02T19:44:28Z</time></trkpt>
<trkpt lat="35.055242" lon="-85.05449"><ele>240.8</ele><time>2026-08-02T19:44:30Z</time></trkpt>
<trkpt lat="35.055264" lon="-85.054518"><ele>241.1</ele><time>2026-08-02T19:44:32Z</time></trkpt>
<trkpt lat="35.055286" lon="-85.054544"><ele>241.1</ele><time>2026-08-02T19:44:34Z</time></trkpt>
<trkpt lat="35.055309" lon="-85.054571"><ele>241.1</ele><time>2026-08-02T19:44:36Z</time></trkpt>
<trkpt lat="35.05533" lon="-85.054597"><ele>241.1</ele><time>2026-08-02T19:44:38Z</time></trkpt>
<trkpt lat="35.055352" lon="-85.054622"><ele>240.8</ele><time>2026-08-02T19:44:40Z</time></trkpt>
<trkpt lat="35.055375" lon="-85.054647"><ele>240.8</ele><time>2026-08-02T19:44:42Z</time></trkpt>
<trkpt lat="35.055398" lon="-85.054672"><ele>240.5</ele><time>2026-08-02T19:44:44Z</time></trkpt>
<trkpt lat="35.055423" lon="-85.05469"><ele>240.5</ele><time>2026-08-02T19:44:46Z</time></trkpt>
<trkpt lat="35.055449" lon="-85.054709"><ele>240.5</ele><time>2026-08-02T19:44:48Z</time></trkpt>
<trkpt lat="35.055479" lon="-85.054727"><ele>240.2</ele><time>2026-08-02T19:44:50Z</time></trkpt>
<trkpt lat="35.055505" lon="-85.054747"><ele>240.5</ele><time>2026-08-02T19:44:52Z</time></trkpt>
<trkpt lat="35.055526" lon="-85.054774"><ele>240.5</ele><time>2026-08-02T19:44:54Z</time></trkpt>
<trkpt lat="35.055546" lon="-85.054802"><ele>240.5</ele><time>2026-08-02T19:44:56Z</time></trkpt>
<trkpt lat="35.055566" lon="-85.054829"><ele>240.2</ele><time>2026-08-02T19:44:58Z</time></trkpt>
<trkpt lat="35.055586" lon="-85.054854"><ele>240.2</ele><time>2026-08-02T19:45:00Z</time></trkpt>
<trkpt lat="35.055608" lon="-85.05488"><ele>240.2</ele><time>2026-08-02T19:45:02Z</time></trkpt>
<trkpt lat="35.055631" lon="-85.0549"><ele>240.5</ele><time>2026-08-02T19:45:04Z</time></trkpt>
<trkpt lat="35.055655" lon="-85.054923"><ele>240.8</ele><time>2026-08-02T19:45:06Z</time></trkpt>
<trkpt lat="35.055681" lon="-85.054946"><ele>240.8</ele><time>2026-08-02T19:45:08Z</time></trkpt>
<trkpt lat="35.055702" lon="-85.054975"><ele>241.4</ele><time>2026-08-02T19:45:10Z</time></trkpt>
<trkpt lat="35.055726" lon="-85.054998"><ele>241.1</ele><time>2026-08-02T19:45:12Z</time></trkpt>
<trkpt lat="35.055751" lon="-85.055021"><ele>240.8</ele><time>2026-08-02T19:45:14Z</time></trkpt>
<trkpt lat="35.055779" lon="-85.055036"><ele>240.5</ele><time>2026-08-02T19:45:16Z</time></trkpt>
<trkpt lat="35.055807" lon="-85.055047"><ele>240.5</ele><time>2026-08-02T19:45:18Z</time></trkpt>
<trkpt lat="35.055836" lon="-85.055053"><ele>240.8</ele><time>2026-08-02T19:45:20Z</time></trkpt>
<trkpt lat="35.055865" lon="-85.055061"><ele>241.1</ele><time>2026-08-02T19:45:22Z</time></trkpt>
<trkpt lat="35.055895" lon="-85.055072"><ele>241.1</ele><time>2026-08-02T19:45:24Z</time></trkpt>
<trkpt lat="35.055924" lon="-85.05508"><ele>241.4</ele><time>2026-08-02T19:45:26Z</time></trkpt>
<trkpt lat="35.055953" lon="-85.055091"><ele>241.4</ele><time>2026-08-02T19:45:28Z</time></trkpt>
<trkpt lat="35.055979" lon="-85.055109"><ele>241.4</ele><time>2026-08-02T19:45:30Z</time></trkpt>
<trkpt lat="35.056" lon="-85.055133"><ele>242.0</ele><time>2026-08-02T19:45:32Z</time></trkpt>
<trkpt lat="35.056022" lon="-85.055158"><ele>241.7</ele><time>2026-08-02T19:45:34Z</time></trkpt>
<trkpt lat="35.056043" lon="-85.055188"><ele>242.0</ele><time>2026-08-02T19:45:36Z</time></trkpt>
<trkpt lat="35.056059" lon="-85.055216"><ele>242.3</ele><time>2026-08-02T19:45:38Z</time></trkpt>
<trkpt lat="35.05608" lon="-85.055239"><ele>242.3</ele><time>2026-08-02T19:45:40Z</time></trkpt>
<trkpt lat="35.056107" lon="-85.055249"><ele>242.3</ele><time>2026-08-02T19:45:42Z</time></trkpt>
<trkpt lat="35.056136" lon="-85.055255"><ele>242.6</ele><time>2026-08-02T19:45:44Z</time></trkpt>
<trkpt lat="35.056166" lon="-85.055265"><ele>242.9</ele><time>2026-08-02T19:45:46Z</time></trkpt>
<trkpt lat="35.056195" lon="-85.055284"><ele>242.9</ele><time>2026-08-02T19:45:48Z</time></trkpt>
<trkpt lat="35.056227" lon="-85.055309"><ele>242.6</ele><time>2026-08-02T19:45:50Z</time></trkpt>
<trkpt lat="35.056248" lon="-85.055336"><ele>243.5</ele><time>2026-08-02T19:45:52Z</time></trkpt>
<trkpt lat="35.056273" lon="-85.055366"><ele>242.3</ele><time>2026-08-02T19:45:54Z</time></trkpt>
<trkpt lat="35.056297" lon="-85.055396"><ele>241.7</ele><time>2026-08-02T19:45:56Z</time></trkpt>
<trkpt lat="35.056321" lon="-85.055424"><ele>241.1</ele><time>2026-08-02T19:45:58Z</time></trkpt>
<trkpt lat="35.056342" lon="-85.055454"><ele>240.8</ele><time>2026-08-02T19:46:00Z</time></trkpt>
<trkpt lat="35.056363" lon="-85.055483"><ele>240.2</ele><time>2026-08-02T19:46:02Z</time></trkpt>
<trkpt lat="35.056385" lon="-85.055507"><ele>239.6</ele><time>2026-08-02T19:46:04Z</time></trkpt>
<trkpt lat="35.056407" lon="-85.055534"><ele>239.3</ele><time>2026-08-02T19:46:06Z</time></trkpt>
<trkpt lat="35.05643" lon="-85.055559"><ele>239.0</ele><time>2026-08-02T19:46:08Z</time></trkpt>
<trkpt lat="35.056446" lon="-85.055591"><ele>239.3</ele><time>2026-08-02T19:46:10Z</time></trkpt>
<trkpt lat="35.056464" lon="-85.05562"><ele>239.0</ele><time>2026-08-02T19:46:12Z</time></trkpt>
<trkpt lat="35.056482" lon="-85.055647"><ele>238.0</ele><time>2026-08-02T19:46:14Z</time></trkpt>
<trkpt lat="35.056503" lon="-85.055673"><ele>237.7</ele><time>2026-08-02T19:46:16Z</time></trkpt>
<trkpt lat="35.056528" lon="-85.055692"><ele>237.7</ele><time>2026-08-02T19:46:18Z</time></trkpt>
<trkpt lat="35.056552" lon="-85.05571"><ele>238.4</ele><time>2026-08-02T19:46:20Z</time></trkpt>
<trkpt lat="35.056578" lon="-85.055722"><ele>238.4</ele><time>2026-08-02T19:46:22Z</time></trkpt>
<trkpt lat="35.056614" lon="-85.055744"><ele>238.7</ele><time>2026-08-02T19:46:25Z</time></trkpt>
<trkpt lat="35.056643" lon="-85.055753"><ele>238.0</ele><time>2026-08-02T19:46:27Z</time></trkpt>
<trkpt lat="35.05667" lon="-85.055765"><ele>238.0</ele><time>2026-08-02T19:46:29Z</time></trkpt>
<trkpt lat="35.056696" lon="-85.055779"><ele>238.0</ele><time>2026-08-02T19:46:31Z</time></trkpt>
<trkpt lat="35.056733" lon="-85.055804"><ele>238.0</ele><time>2026-08-02T19:46:34Z</time></trkpt>
<trkpt lat="35.056759" lon="-85.055822"><ele>238.4</ele><time>2026-08-02T19:46:36Z</time></trkpt>
<trkpt lat="35.056784" lon="-85.055839"><ele>238.7</ele><time>2026-08-02T19:46:38Z</time></trkpt>
<trkpt lat="35.056809" lon="-85.055857"><ele>238.0</ele><time>2026-08-02T19:46:40Z</time></trkpt>
<trkpt lat="35.056833" lon="-85.05588"><ele>237.1</ele><time>2026-08-02T19:46:42Z</time></trkpt>
<trkpt lat="35.056872" lon="-85.0559"><ele>237.1</ele><time>2026-08-02T19:46:45Z</time></trkpt>
<trkpt lat="35.056898" lon="-85.055913"><ele>236.5</ele><time>2026-08-02T19:46:47Z</time></trkpt>
<trkpt lat="35.056926" lon="-85.055922"><ele>236.2</ele><time>2026-08-02T19:46:49Z</time></trkpt>
<trkpt lat="35.056954" lon="-85.055929"><ele>235.6</ele><time>2026-08-02T19:46:51Z</time></trkpt>
<trkpt lat="35.056982" lon="-85.055935"><ele>235.6</ele><time>2026-08-02T19:46:53Z</time></trkpt>
<trkpt lat="35.057012" lon="-85.055946"><ele>235.3</ele><time>2026-08-02T19:46:55Z</time></trkpt>
<trkpt lat="35.057038" lon="-85.055961"><ele>235.9</ele><time>2026-08-02T19:46:57Z</time></trkpt>
<trkpt lat="35.057061" lon="-85.055982"><ele>235.6</ele><time>2026-08-02T19:46:59Z</time></trkpt>
<trkpt lat="35.057089" lon="-85.056001"><ele>235.9</ele><time>2026-08-02T19:47:01Z</time></trkpt>
<trkpt lat="35.057114" lon="-85.056018"><ele>236.8</ele><time>2026-08-02T19:47:03Z</time></trkpt>
<trkpt lat="35.057139" lon="-85.056043"><ele>237.4</ele><time>2026-08-02T19:47:05Z</time></trkpt>
<trkpt lat="35.057166" lon="-85.056065"><ele>238.0</ele><time>2026-08-02T19:47:07Z</time></trkpt>
<trkpt lat="35.057192" lon="-85.05609"><ele>238.7</ele><time>2026-08-02T19:47:09Z</time></trkpt>
<trkpt lat="35.057218" lon="-85.056116"><ele>238.7</ele><time>2026-08-02T19:47:11Z</time></trkpt>
<trkpt lat="35.057242" lon="-85.056145"><ele>239.0</ele><time>2026-08-02T19:47:13Z</time></trkpt>
<trkpt lat="35.057264" lon="-85.056173"><ele>239.0</ele><time>2026-08-02T19:47:15Z</time></trkpt>
<trkpt lat="35.05728" lon="-85.056206"><ele>239.3</ele><time>2026-08-02T19:47:17Z</time></trkpt>
<trkpt lat="35.057307" lon="-85.056229"><ele>238.7</ele><time>2026-08-02T19:47:19Z</time></trkpt>
<trkpt lat="35.057326" lon="-85.05626"><ele>238.7</ele><time>2026-08-02T19:47:21Z</time></trkpt>
<trkpt lat="35.057345" lon="-85.056288"><ele>238.4</ele><time>2026-08-02T19:47:23Z</time></trkpt>
<trkpt lat="35.057364" lon="-85.056319"><ele>238.4</ele><time>2026-08-02T19:47:25Z</time></trkpt>
<trkpt lat="35.057379" lon="-85.056354"><ele>238.0</ele><time>2026-08-02T19:47:27Z</time></trkpt>
<trkpt lat="35.057394" lon="-85.056387"><ele>237.4</ele><time>2026-08-02T19:47:29Z</time></trkpt>
<trkpt lat="35.057406" lon="-85.056418"><ele>237.4</ele><time>2026-08-02T19:47:31Z</time></trkpt>
<trkpt lat="35.057412" lon="-85.056453"><ele>237.7</ele><time>2026-08-02T19:47:33Z</time></trkpt>
<trkpt lat="35.057425" lon="-85.056485"><ele>237.7</ele><time>2026-08-02T19:47:35Z</time></trkpt>
<trkpt lat="35.057441" lon="-85.056518"><ele>237.7</ele><time>2026-08-02T19:47:37Z</time></trkpt>
<trkpt lat="35.057455" lon="-85.056553"><ele>237.4</ele><time>2026-08-02T19:47:39Z</time></trkpt>
<trkpt lat="35.057462" lon="-85.056589"><ele>238.0</ele><time>2026-08-02T19:47:41Z</time></trkpt>
<trkpt lat="35.05748" lon="-85.05662"><ele>237.7</ele><time>2026-08-02T19:47:43Z</time></trkpt>
<trkpt lat="35.0575" lon="-85.056649"><ele>237.4</ele><time>2026-08-02T19:47:45Z</time></trkpt>
<trkpt lat="35.057521" lon="-85.056675"><ele>237.4</ele><time>2026-08-02T19:47:47Z</time></trkpt>
<trkpt lat="35.057537" lon="-85.056706"><ele>237.7</ele><time>2026-08-02T19:47:49Z</time></trkpt>
<trkpt lat="35.057549" lon="-85.056738"><ele>237.7</ele><time>2026-08-02T19:47:51Z</time></trkpt>
<trkpt lat="35.05756" lon="-85.056772"><ele>238.7</ele><time>2026-08-02T19:47:53Z</time></trkpt>
<trkpt lat="35.057569" lon="-85.056807"><ele>238.7</ele><time>2026-08-02T19:47:55Z</time></trkpt>
<trkpt lat="35.057576" lon="-85.056842"><ele>238.7</ele><time>2026-08-02T19:47:57Z</time></trkpt>
<trkpt lat="35.057582" lon="-85.056878"><ele>238.7</ele><time>2026-08-02T19:47:59Z</time></trkpt>
<trkpt lat="35.057585" lon="-85.056914"><ele>239.6</ele><time>2026-08-02T19:48:01Z</time></trkpt>
<trkpt lat="35.057596" lon="-85.05695"><ele>239.6</ele><time>2026-08-02T19:48:03Z</time></trkpt>
<trkpt lat="35.057609" lon="-85.056983"><ele>239.6</ele><time>2026-08-02T19:48:05Z</time></trkpt>
<trkpt lat="35.057633" lon="-85.057011"><ele>240.2</ele><time>2026-08-02T19:48:07Z</time></trkpt>
<trkpt lat="35.057655" lon="-85.057036"><ele>239.9</ele><time>2026-08-02T19:48:09Z</time></trkpt>
<trkpt lat="35.057675" lon="-85.057063"><ele>239.6</ele><time>2026-08-02T19:48:11Z</time></trkpt>
<trkpt lat="35.057698" lon="-85.05709"><ele>239.3</ele><time>2026-08-02T19:48:13Z</time></trkpt>
<trkpt lat="35.057725" lon="-85.057108"><ele>239.3</ele><time>2026-08-02T19:48:15Z</time></trkpt>
<trkpt lat="35.057749" lon="-85.057133"><ele>239.3</ele><time>2026-08-02T19:48:17Z</time></trkpt>
<trkpt lat="35.057767" lon="-85.05716"><ele>239.3</ele><time>2026-08-02T19:48:19Z</time></trkpt>
<trkpt lat="35.05778" lon="-85.057196"><ele>239.0</ele><time>2026-08-02T19:48:21Z</time></trkpt>
<trkpt lat="35.057793" lon="-85.057226"><ele>238.7</ele><time>2026-08-02T19:48:23Z</time></trkpt>
<trkpt lat="35.057802" lon="-85.057263"><ele>238.4</ele><time>2026-08-02T19:48:25Z</time></trkpt>
<trkpt lat="35.057813" lon="-85.057296"><ele>239.3</ele><time>2026-08-02T19:48:27Z</time></trkpt>
<trkpt lat="35.057829" lon="-85.057326"><ele>241.1</ele><time>2026-08-02T19:48:29Z</time></trkpt>
<trkpt lat="35.05784" lon="-85.057358"><ele>240.5</ele><time>2026-08-02T19:48:31Z</time></trkpt>
<trkpt lat="35.057851" lon="-85.057389"><ele>239.3</ele><time>2026-08-02T19:48:33Z</time></trkpt>
<trkpt lat="35.057872" lon="-85.057418"><ele>239.3</ele><time>2026-08-02T19:48:35Z</time></trkpt>
<trkpt lat="35.057886" lon="-85.057452"><ele>239.6</ele><time>2026-08-02T19:48:37Z</time></trkpt>
<trkpt lat="35.057897" lon="-85.057488"><ele>240.2</ele><time>2026-08-02T19:48:39Z</time></trkpt>
<trkpt lat="35.057913" lon="-85.057519"><ele>240.2</ele><time>2026-08-02T19:48:41Z</time></trkpt>
<trkpt lat="35.057926" lon="-85.057553"><ele>240.5</ele><time>2026-08-02T19:48:43Z</time></trkpt>
<trkpt lat="35.057939" lon="-85.057588"><ele>239.6</ele><time>2026-08-02T19:48:45Z</time></trkpt>
<trkpt lat="35.05794" lon="-85.057631"><ele>239.3</ele><time>2026-08-02T19:48:47Z</time></trkpt>
<trkpt lat="35.057927" lon="-85.057669"><ele>239.0</ele><time>2026-08-02T19:48:49Z</time></trkpt>
<trkpt lat="35.057904" lon="-85.057703"><ele>239.0</ele><time>2026-08-02T19:48:51Z</time></trkpt>
<trkpt lat="35.057881" lon="-85.057729"><ele>238.7</ele><time>2026-08-02T19:48:53Z</time></trkpt>
<trkpt lat="35.057856" lon="-85.057754"><ele>237.7</ele><time>2026-08-02T19:48:55Z</time></trkpt>
<trkpt lat="35.057837" lon="-85.057785"><ele>237.1</ele><time>2026-08-02T19:48:57Z</time></trkpt>
<trkpt lat="35.057819" lon="-85.057814"><ele>237.1</ele><time>2026-08-02T19:48:59Z</time></trkpt>
<trkpt lat="35.0578" lon="-85.057848"><ele>237.7</ele><time>2026-08-02T19:49:01Z</time></trkpt>
<trkpt lat="35.057788" lon="-85.057885"><ele>238.0</ele><time>2026-08-02T19:49:03Z</time></trkpt>
<trkpt lat="35.057796" lon="-85.057919"><ele>234.7</ele><time>2026-08-02T19:49:05Z</time></trkpt>
<trkpt lat="35.057811" lon="-85.057964"><ele>232.0</ele><time>2026-08-02T19:49:08Z</time></trkpt>
<trkpt lat="35.057836" lon="-85.05799"><ele>231.3</ele><time>2026-08-02T19:49:10Z</time></trkpt>
<trkpt lat="35.057864" lon="-85.058009"><ele>228.6</ele><time>2026-08-02T19:49:12Z</time></trkpt>
<trkpt lat="35.057887" lon="-85.058033"><ele>231.0</ele><time>2026-08-02T19:49:14Z</time></trkpt>
<trkpt lat="35.057904" lon="-85.058063"><ele>232.3</ele><time>2026-08-02T19:49:16Z</time></trkpt>
<trkpt lat="35.05792" lon="-85.058091"><ele>233.5</ele><time>2026-08-02T19:49:18Z</time></trkpt>
<trkpt lat="35.05794" lon="-85.058115"><ele>235.0</ele><time>2026-08-02T19:49:20Z</time></trkpt>
<trkpt lat="35.057969" lon="-85.058151"><ele>235.3</ele><time>2026-08-02T19:49:23Z</time></trkpt>
<trkpt lat="35.057989" lon="-85.058176"><ele>236.2</ele><time>2026-08-02T19:49:25Z</time></trkpt>
<trkpt lat="35.058009" lon="-85.058204"><ele>236.8</ele><time>2026-08-02T19:49:27Z</time></trkpt>
<trkpt lat="35.058027" lon="-85.058233"><ele>238.7</ele><time>2026-08-02T19:49:29Z</time></trkpt>
<trkpt lat="35.058044" lon="-85.058263"><ele>238.4</ele><time>2026-08-02T19:49:31Z</time></trkpt>
<trkpt lat="35.058062" lon="-85.058292"><ele>237.7</ele><time>2026-08-02T19:49:33Z</time></trkpt>
<trkpt lat="35.058085" lon="-85.058319"><ele>237.1</ele><time>2026-08-02T19:49:35Z</time></trkpt>
<trkpt lat="35.058105" lon="-85.058345"><ele>236.8</ele><time>2026-08-02T19:49:37Z</time></trkpt>
<trkpt lat="35.058127" lon="-85.058369"><ele>235.9</ele><time>2026-08-02T19:49:39Z</time></trkpt>
<trkpt lat="35.058155" lon="-85.058387"><ele>236.2</ele><time>2026-08-02T19:49:41Z</time></trkpt>
<trkpt lat="35.058181" lon="-85.058407"><ele>236.2</ele><time>2026-08-02T19:49:43Z</time></trkpt>
<trkpt lat="35.058208" lon="-85.058425"><ele>236.2</ele><time>2026-08-02T19:49:45Z</time></trkpt>
<trkpt lat="35.058236" lon="-85.058444"><ele>235.6</ele><time>2026-08-02T19:49:47Z</time></trkpt>
<trkpt lat="35.058256" lon="-85.058476"><ele>235.0</ele><time>2026-08-02T19:49:49Z</time></trkpt>
<trkpt lat="35.058277" lon="-85.058503"><ele>235.3</ele><time>2026-08-02T19:49:51Z</time></trkpt>
<trkpt lat="35.058298" lon="-85.058528"><ele>235.0</ele><time>2026-08-02T19:49:53Z</time></trkpt>
<trkpt lat="35.058321" lon="-85.058553"><ele>234.7</ele><time>2026-08-02T19:49:55Z</time></trkpt>
<trkpt lat="35.058341" lon="-85.05858"><ele>233.8</ele><time>2026-08-02T19:49:57Z</time></trkpt>
<trkpt lat="35.05836" lon="-85.058608"><ele>234.1</ele><time>2026-08-02T19:49:59Z</time></trkpt>
<trkpt lat="35.058384" lon="-85.05863"><ele>234.4</ele><time>2026-08-02T19:50:01Z</time></trkpt>
<trkpt lat="35.058407" lon="-85.058653"><ele>234.1</ele><time>2026-08-02T19:50:03Z</time></trkpt>
<trkpt lat="35.05843" lon="-85.058676"><ele>233.8</ele><time>2026-08-02T19:50:05Z</time></trkpt>
<trkpt lat="35.058449" lon="-85.058705"><ele>233.2</ele><time>2026-08-02T19:50:07Z</time></trkpt>
<trkpt lat="35.058468" lon="-85.058731"><ele>234.1</ele><time>2026-08-02T19:50:09Z</time></trkpt>
<trkpt lat="35.058487" lon="-85.058758"><ele>233.5</ele><time>2026-08-02T19:50:11Z</time></trkpt>
<trkpt lat="35.058511" lon="-85.058777"><ele>233.5</ele><time>2026-08-02T19:50:13Z</time></trkpt>
<trkpt lat="35.058532" lon="-85.058802"><ele>234.4</ele><time>2026-08-02T19:50:15Z</time></trkpt>
<trkpt lat="35.058548" lon="-85.058833"><ele>233.8</ele><time>2026-08-02T19:50:17Z</time></trkpt>
<trkpt lat="35.05856" lon="-85.058868"><ele>234.4</ele><time>2026-08-02T19:50:19Z</time></trkpt>
<trkpt lat="35.058579" lon="-85.058895"><ele>236.5</ele><time>2026-08-02T19:50:21Z</time></trkpt>
<trkpt lat="35.058595" lon="-85.058922"><ele>237.4</ele><time>2026-08-02T19:50:23Z</time></trkpt>
<trkpt lat="35.058614" lon="-85.05895"><ele>237.7</ele><time>2026-08-02T19:50:25Z</time></trkpt>
<trkpt lat="35.058629" lon="-85.058981"><ele>238.0</ele><time>2026-08-02T19:50:27Z</time></trkpt>
<trkpt lat="35.058649" lon="-85.059009"><ele>237.4</ele><time>2026-08-02T19:50:29Z</time></trkpt>
<trkpt lat="35.058663" lon="-85.05904"><ele>236.8</ele><time>2026-08-02T19:50:31Z</time></trkpt>
<trkpt lat="35.058682" lon="-85.059071"><ele>235.9</ele><time>2026-08-02T19:50:33Z</time></trkpt>
<trkpt lat="35.058693" lon="-85.059104"><ele>235.3</ele><time>2026-08-02T19:50:35Z</time></trkpt>
<trkpt lat="35.058708" lon="-85.059135"><ele>235.6</ele><time>2026-08-02T19:50:37Z</time></trkpt>
<trkpt lat="35.05872" lon="-85.059166"><ele>236.5</ele><time>2026-08-02T19:50:39Z</time></trkpt>
<trkpt lat="35.058741" lon="-85.059197"><ele>236.5</ele><time>2026-08-02T19:50:41Z</time></trkpt>
<trkpt lat="35.058755" lon="-85.05923"><ele>236.8</ele><time>2026-08-02T19:50:43Z</time></trkpt>
<trkpt lat="35.058779" lon="-85.059256"><ele>237.4</ele><time>2026-08-02T19:50:45Z</time></trkpt>
<trkpt lat="35.058803" lon="-85.05928"><ele>237.4</ele><time>2026-08-02T19:50:47Z</time></trkpt>
<trkpt lat="35.058825" lon="-85.059306"><ele>237.7</ele><time>2026-08-02T19:50:49Z</time></trkpt>
<trkpt lat="35.058849" lon="-85.05933"><ele>238.0</ele><time>2026-08-02T19:50:51Z</time></trkpt>
<trkpt lat="35.058871" lon="-85.059351"><ele>239.6</ele><time>2026-08-02T19:50:53Z</time></trkpt>
<trkpt lat="35.058894" lon="-85.059375"><ele>239.9</ele><time>2026-08-02T19:50:55Z</time></trkpt>
<trkpt lat="35.058917" lon="-85.059398"><ele>239.9</ele><time>2026-08-02T19:50:57Z</time></trkpt>
<trkpt lat="35.058934" lon="-85.059429"><ele>240.5</ele><time>2026-08-02T19:50:59Z</time></trkpt>
<trkpt lat="35.058955" lon="-85.059458"><ele>240.5</ele><time>2026-08-02T19:51:01Z</time></trkpt>
<trkpt lat="35.058975" lon="-85.059488"><ele>239.9</ele><time>2026-08-02T19:51:03Z</time></trkpt>
<trkpt lat="35.058989" lon="-85.059523"><ele>239.9</ele><time>2026-08-02T19:51:05Z</time></trkpt>
<trkpt lat="35.059011" lon="-85.059553"><ele>238.7</ele><time>2026-08-02T19:51:07Z</time></trkpt>
<trkpt lat="35.059033" lon="-85.059579"><ele>239.0</ele><time>2026-08-02T19:51:09Z</time></trkpt>
<trkpt lat="35.05905" lon="-85.059611"><ele>240.2</ele><time>2026-08-02T19:51:11Z</time></trkpt>
<trkpt lat="35.059066" lon="-85.059644"><ele>240.8</ele><time>2026-08-02T19:51:13Z</time></trkpt>
<trkpt lat="35.059086" lon="-85.059673"><ele>241.1</ele><time>2026-08-02T19:51:15Z</time></trkpt>
<trkpt lat="35.059102" lon="-85.059706"><ele>241.7</ele><time>2026-08-02T19:51:17Z</time></trkpt>
<trkpt lat="35.059121" lon="-85.059737"><ele>241.7</ele><time>2026-08-02T19:51:19Z</time></trkpt>
<trkpt lat="35.059138" lon="-85.059772"><ele>240.8</ele><time>2026-08-02T19:51:21Z</time></trkpt>
<trkpt lat="35.059166" lon="-85.059794"><ele>239.3</ele><time>2026-08-02T19:51:23Z</time></trkpt>
<trkpt lat="35.059194" lon="-85.059818"><ele>237.1</ele><time>2026-08-02T19:51:26Z</time></trkpt>
<trkpt lat="35.059223" lon="-85.059851"><ele>236.8</ele><time>2026-08-02T19:51:29Z</time></trkpt>
<trkpt lat="35.059238" lon="-85.059895"><ele>235.9</ele><time>2026-08-02T19:51:32Z</time></trkpt>
<trkpt lat="35.059234" lon="-85.059931"><ele>235.6</ele><time>2026-08-02T19:51:34Z</time></trkpt>
<trkpt lat="35.059255" lon="-85.059968"><ele>237.4</ele><time>2026-08-02T19:51:37Z</time></trkpt>
<trkpt lat="35.059253" lon="-85.060013"><ele>238.4</ele><time>2026-08-02T19:51:40Z</time></trkpt>
<trkpt lat="35.059263" lon="-85.060047"><ele>239.3</ele><time>2026-08-02T19:51:42Z</time></trkpt>
<trkpt lat="35.05927" lon="-85.060081"><ele>239.6</ele><time>2026-08-02T19:51:44Z</time></trkpt>
<trkpt lat="35.059273" lon="-85.060115"><ele>239.9</ele><time>2026-08-02T19:51:46Z</time></trkpt>
<trkpt lat="35.059276" lon="-85.060153"><ele>238.4</ele><time>2026-08-02T19:51:48Z</time></trkpt>
<trkpt lat="35.059268" lon="-85.060192"><ele>236.2</ele><time>2026-08-02T19:51:50Z</time></trkpt>
<trkpt lat="35.059279" lon="-85.060228"><ele>237.4</ele><time>2026-08-02T19:51:52Z</time></trkpt>
<trkpt lat="35.059288" lon="-85.060262"><ele>239.0</ele><time>2026-08-02T19:51:54Z</time></trkpt>
<trkpt lat="35.059312" lon="-85.060288"><ele>237.1</ele><time>2026-08-02T19:51:56Z</time></trkpt>
<trkpt lat="35.05933" lon="-85.060318"><ele>235.0</ele><time>2026-08-02T19:51:58Z</time></trkpt>
<trkpt lat="35.059348" lon="-85.060362"><ele>235.3</ele><time>2026-08-02T19:52:01Z</time></trkpt>
<trkpt lat="35.059356" lon="-85.060397"><ele>233.8</ele><time>2026-08-02T19:52:03Z</time></trkpt>
<trkpt lat="35.059372" lon="-85.060425"><ele>236.5</ele><time>2026-08-02T19:52:05Z</time></trkpt>
<trkpt lat="35.05939" lon="-85.060469"><ele>235.0</ele><time>2026-08-02T19:52:08Z</time></trkpt>
<trkpt lat="35.059407" lon="-85.060499"><ele>234.4</ele><time>2026-08-02T19:52:10Z</time></trkpt>
<trkpt lat="35.059422" lon="-85.060533"><ele>232.9</ele><time>2026-08-02T19:52:12Z</time></trkpt>
<trkpt lat="35.059437" lon="-85.060564"><ele>232.6</ele><time>2026-08-02T19:52:14Z</time></trkpt>
<trkpt lat="35.059447" lon="-85.060613"><ele>233.5</ele><time>2026-08-02T19:52:17Z</time></trkpt>
<trkpt lat="35.059452" lon="-85.060648"><ele>233.8</ele><time>2026-08-02T19:52:19Z</time></trkpt>
<trkpt lat="35.059466" lon="-85.060681"><ele>234.1</ele><time>2026-08-02T19:52:21Z</time></trkpt>
<trkpt lat="35.059478" lon="-85.060714"><ele>234.7</ele><time>2026-08-02T19:52:23Z</time></trkpt>
<trkpt lat="35.059486" lon="-85.06075"><ele>235.0</ele><time>2026-08-02T19:52:25Z</time></trkpt>
<trkpt lat="35.059498" lon="-85.060784"><ele>235.0</ele><time>2026-08-02T19:52:27Z</time></trkpt>
<trkpt lat="35.059508" lon="-85.060819"><ele>235.0</ele><time>2026-08-02T19:52:29Z</time></trkpt>
<trkpt lat="35.059513" lon="-85.060864"><ele>235.6</ele><time>2026-08-02T19:52:32Z</time></trkpt>
<trkpt lat="35.059524" lon="-85.060911"><ele>235.6</ele><time>2026-08-02T19:52:35Z</time></trkpt>
<trkpt lat="35.059531" lon="-85.060945"><ele>234.1</ele><time>2026-08-02T19:52:37Z</time></trkpt>
<trkpt lat="35.059543" lon="-85.060982"><ele>233.2</ele><time>2026-08-02T19:52:39Z</time></trkpt>
<trkpt lat="35.059552" lon="-85.061018"><ele>232.6</ele><time>2026-08-02T19:52:41Z</time></trkpt>
<trkpt lat="35.059558" lon="-85.061057"><ele>232.9</ele><time>2026-08-02T19:52:43Z</time></trkpt>
<trkpt lat="35.059559" lon="-85.061096"><ele>233.5</ele><time>2026-08-02T19:52:45Z</time></trkpt>
<trkpt lat="35.059558" lon="-85.061134"><ele>234.1</ele><time>2026-08-02T19:52:47Z</time></trkpt>
<trkpt lat="35.059561" lon="-85.061172"><ele>234.1</ele><time>2026-08-02T19:52:49Z</time></trkpt>
<trkpt lat="35.059565" lon="-85.061211"><ele>234.7</ele><time>2026-08-02T19:52:51Z</time></trkpt>
<trkpt lat="35.059569" lon="-85.061249"><ele>235.6</ele><time>2026-08-02T19:52:53Z</time></trkpt>
<trkpt lat="35.059573" lon="-85.061285"><ele>235.9</ele><time>2026-08-02T19:52:55Z</time></trkpt>
<trkpt lat="35.05958" lon="-85.06132"><ele>235.6</ele><time>2026-08-02T19:52:57Z</time></trkpt>
<trkpt lat="35.059592" lon="-85.061357"><ele>235.9</ele><time>2026-08-02T19:52:59Z</time></trkpt>
<trkpt lat="35.059605" lon="-85.061389"><ele>235.9</ele><time>2026-08-02T19:53:01Z</time></trkpt>
<trkpt lat="35.059619" lon="-85.061419"><ele>236.2</ele><time>2026-08-02T19:53:03Z</time></trkpt>
<trkpt lat="35.059631" lon="-85.061455"><ele>235.6</ele><time>2026-08-02T19:53:05Z</time></trkpt>
<trkpt lat="35.05964" lon="-85.061489"><ele>235.3</ele><time>2026-08-02T19:53:07Z</time></trkpt>
<trkpt lat="35.059655" lon="-85.061523"><ele>234.7</ele><time>2026-08-02T19:53:09Z</time></trkpt>
<trkpt lat="35.059669" lon="-85.061556"><ele>233.8</ele><time>2026-08-02T19:53:11Z</time></trkpt>
<trkpt lat="35.059684" lon="-85.061589"><ele>234.1</ele><time>2026-08-02T19:53:13Z</time></trkpt>
<trkpt lat="35.059696" lon="-85.061622"><ele>234.1</ele><time>2026-08-02T19:53:15Z</time></trkpt>
<trkpt lat="35.05971" lon="-85.061659"><ele>234.1</ele><time>2026-08-02T19:53:17Z</time></trkpt>
<trkpt lat="35.059723" lon="-85.061695"><ele>234.7</ele><time>2026-08-02T19:53:19Z</time></trkpt>
<trkpt lat="35.059733" lon="-85.061733"><ele>235.0</ele><time>2026-08-02T19:53:21Z</time></trkpt>
<trkpt lat="35.05974" lon="-85.061774"><ele>235.3</ele><time>2026-08-02T19:53:23Z</time></trkpt>
<trkpt lat="35.059748" lon="-85.061811"><ele>235.0</ele><time>2026-08-02T19:53:25Z</time></trkpt>
<trkpt lat="35.059751" lon="-85.06185"><ele>233.8</ele><time>2026-08-02T19:53:27Z</time></trkpt>
<trkpt lat="35.059757" lon="-85.061889"><ele>234.7</ele><time>2026-08-02T19:53:29Z</time></trkpt>
<trkpt lat="35.059763" lon="-85.061925"><ele>234.7</ele><time>2026-08-02T19:53:31Z</time></trkpt>
<trkpt lat="35.059774" lon="-85.061959"><ele>235.0</ele><time>2026-08-02T19:53:33Z</time></trkpt>
<trkpt lat="35.059781" lon="-85.061996"><ele>236.2</ele><time>2026-08-02T19:53:35Z</time></trkpt>
<trkpt lat="35.059791" lon="-85.062031"><ele>236.2</ele><time>2026-08-02T19:53:37Z</time></trkpt>
<trkpt lat="35.059807" lon="-85.062065"><ele>235.6</ele><time>2026-08-02T19:53:39Z</time></trkpt>
<trkpt lat="35.05982" lon="-85.062099"><ele>235.0</ele><time>2026-08-02T19:53:41Z</time></trkpt>
<trkpt lat="35.059829" lon="-85.062132"><ele>235.3</ele><time>2026-08-02T19:53:43Z</time></trkpt>
<trkpt lat="35.059836" lon="-85.062166"><ele>235.6</ele><time>2026-08-02T19:53:45Z</time></trkpt>
<trkpt lat="35.059837" lon="-85.062202"><ele>235.6</ele><time>2026-08-02T19:53:47Z</time></trkpt>
<trkpt lat="35.059841" lon="-85.062236"><ele>235.0</ele><time>2026-08-02T19:53:49Z</time></trkpt>
<trkpt lat="35.059847" lon="-85.062271"><ele>234.4</ele><time>2026-08-02T19:53:51Z</time></trkpt>
<trkpt lat="35.059852" lon="-85.062304"><ele>233.8</ele><time>2026-08-02T19:53:53Z</time></trkpt>
<trkpt lat="35.059858" lon="-85.062341"><ele>234.4</ele><time>2026-08-02T19:53:55Z</time></trkpt>
<trkpt lat="35.059864" lon="-85.06238"><ele>234.7</ele><time>2026-08-02T19:53:57Z</time></trkpt>
<trkpt lat="35.05987" lon="-85.062418"><ele>234.4</ele><time>2026-08-02T19:53:59Z</time></trkpt>
<trkpt lat="35.059878" lon="-85.062457"><ele>235.0</ele><time>2026-08-02T19:54:01Z</time></trkpt>
<trkpt lat="35.059884" lon="-85.062495"><ele>234.4</ele><time>2026-08-02T19:54:03Z</time></trkpt>
<trkpt lat="35.05989" lon="-85.062533"><ele>234.4</ele><time>2026-08-02T19:54:05Z</time></trkpt>
<trkpt lat="35.059899" lon="-85.062571"><ele>234.7</ele><time>2026-08-02T19:54:07Z</time></trkpt>
<trkpt lat="35.059911" lon="-85.062609"><ele>234.4</ele><time>2026-08-02T19:54:09Z</time></trkpt>
<trkpt lat="35.059927" lon="-85.062642"><ele>234.7</ele><time>2026-08-02T19:54:11Z</time></trkpt>
<trkpt lat="35.059954" lon="-85.062666"><ele>235.0</ele><time>2026-08-02T19:54:13Z</time></trkpt>
<trkpt lat="35.059983" lon="-85.062683"><ele>236.2</ele><time>2026-08-02T19:54:15Z</time></trkpt>
<trkpt lat="35.06001" lon="-85.062698"><ele>236.2</ele><time>2026-08-02T19:54:17Z</time></trkpt>
<trkpt lat="35.060035" lon="-85.062721"><ele>235.6</ele><time>2026-08-02T19:54:19Z</time></trkpt>
<trkpt lat="35.060062" lon="-85.062739"><ele>235.0</ele><time>2026-08-02T19:54:21Z</time></trkpt>
<trkpt lat="35.060088" lon="-85.062756"><ele>234.7</ele><time>2026-08-02T19:54:23Z</time></trkpt>
<trkpt lat="35.060108" lon="-85.06278"><ele>235.9</ele><time>2026-08-02T19:54:25Z</time></trkpt>
<trkpt lat="35.060138" lon="-85.062816"><ele>236.5</ele><time>2026-08-02T19:54:28Z</time></trkpt>
<trkpt lat="35.060166" lon="-85.062837"><ele>236.2</ele><time>2026-08-02T19:54:30Z</time></trkpt>
<trkpt lat="35.060186" lon="-85.062862"><ele>236.2</ele><time>2026-08-02T19:54:32Z</time></trkpt>
<trkpt lat="35.060204" lon="-85.062889"><ele>235.9</ele><time>2026-08-02T19:54:34Z</time></trkpt>
<trkpt lat="35.060228" lon="-85.062908"><ele>236.2</ele><time>2026-08-02T19:54:36Z</time></trkpt>
<trkpt lat="35.060257" lon="-85.062939"><ele>236.2</ele><time>2026-08-02T19:54:39Z</time></trkpt>
<trkpt lat="35.060283" lon="-85.062957"><ele>235.9</ele><time>2026-08-02T19:54:41Z</time></trkpt>
<trkpt lat="35.060309" lon="-85.062977"><ele>236.5</ele><time>2026-08-02T19:54:43Z</time></trkpt>
<trkpt lat="35.060333" lon="-85.062997"><ele>237.1</ele><time>2026-08-02T19:54:45Z</time></trkpt>
<trkpt lat="35.060355" lon="-85.063024"><ele>237.4</ele><time>2026-08-02T19:54:47Z</time></trkpt>
<trkpt lat="35.06038" lon="-85.063048"><ele>236.8</ele><time>2026-08-02T19:54:49Z</time></trkpt>
<trkpt lat="35.060403" lon="-85.063074"><ele>236.2</ele><time>2026-08-02T19:54:51Z</time></trkpt>
<trkpt lat="35.060427" lon="-85.063097"><ele>236.2</ele><time>2026-08-02T19:54:53Z</time></trkpt>
<trkpt lat="35.060457" lon="-85.063113"><ele>236.2</ele><time>2026-08-02T19:54:55Z</time></trkpt>
<trkpt lat="35.060482" lon="-85.063137"><ele>235.9</ele><time>2026-08-02T19:54:57Z</time></trkpt>
<trkpt lat="35.060508" lon="-85.06316"><ele>235.9</ele><time>2026-08-02T19:54:59Z</time></trkpt>
<trkpt lat="35.060534" lon="-85.063184"><ele>235.6</ele><time>2026-08-02T19:55:01Z</time></trkpt>
<trkpt lat="35.060559" lon="-85.063208"><ele>235.9</ele><time>2026-08-02T19:55:03Z</time></trkpt>
<trkpt lat="35.060582" lon="-85.06323"><ele>236.5</ele><time>2026-08-02T19:55:05Z</time></trkpt>
<trkpt lat="35.060604" lon="-85.063252"><ele>235.9</ele><time>2026-08-02T19:55:07Z</time></trkpt>
<trkpt lat="35.060622" lon="-85.063277"><ele>236.2</ele><time>2026-08-02T19:55:09Z</time></trkpt>
<trkpt lat="35.060644" lon="-85.063299"><ele>235.6</ele><time>2026-08-02T19:55:11Z</time></trkpt>
<trkpt lat="35.060666" lon="-85.063322"><ele>236.8</ele><time>2026-08-02T19:55:13Z</time></trkpt>
<trkpt lat="35.060676" lon="-85.063361"><ele>235.0</ele><time>2026-08-02T19:55:15Z</time></trkpt>
<trkpt lat="35.06069" lon="-85.06339"><ele>234.4</ele><time>2026-08-02T19:55:17Z</time></trkpt>
<trkpt lat="35.060715" lon="-85.063426"><ele>234.7</ele><time>2026-08-02T19:55:20Z</time></trkpt>
<trkpt lat="35.060732" lon="-85.063453"><ele>234.4</ele><time>2026-08-02T19:55:22Z</time></trkpt>
<trkpt lat="35.06075" lon="-85.063479"><ele>234.1</ele><time>2026-08-02T19:55:24Z</time></trkpt>
<trkpt lat="35.060765" lon="-85.063509"><ele>234.4</ele><time>2026-08-02T19:55:26Z</time></trkpt>
<trkpt lat="35.060783" lon="-85.063538"><ele>233.8</ele><time>2026-08-02T19:55:28Z</time></trkpt>
<trkpt lat="35.0608" lon="-85.063565"><ele>233.8</ele><time>2026-08-02T19:55:30Z</time></trkpt>
<trkpt lat="35.060821" lon="-85.063591"><ele>233.8</ele><time>2026-08-02T19:55:32Z</time></trkpt>
<trkpt lat="35.060837" lon="-85.063622"><ele>234.1</ele><time>2026-08-02T19:55:34Z</time></trkpt>
<trkpt lat="35.060856" lon="-85.06365"><ele>235.6</ele><time>2026-08-02T19:55:36Z</time></trkpt>
<trkpt lat="35.060873" lon="-85.06368"><ele>234.4</ele><time>2026-08-02T19:55:38Z</time></trkpt>
<trkpt lat="35.060896" lon="-85.063705"><ele>235.0</ele><time>2026-08-02T19:55:40Z</time></trkpt>
<trkpt lat="35.06091" lon="-85.063735"><ele>234.4</ele><time>2026-08-02T19:55:42Z</time></trkpt>
<trkpt lat="35.060924" lon="-85.063771"><ele>235.0</ele><time>2026-08-02T19:55:44Z</time></trkpt>
<trkpt lat="35.060939" lon="-85.063801"><ele>235.3</ele><time>2026-08-02T19:55:46Z</time></trkpt>
<trkpt lat="35.060948" lon="-85.063836"><ele>235.3</ele><time>2026-08-02T19:55:48Z</time></trkpt>
<trkpt lat="35.060966" lon="-85.063865"><ele>235.6</ele><time>2026-08-02T19:55:50Z</time></trkpt>
<trkpt lat="35.060989" lon="-85.063907"><ele>234.7</ele><time>2026-08-02T19:55:53Z</time></trkpt>
<trkpt lat="35.061007" lon="-85.063936"><ele>234.4</ele><time>2026-08-02T19:55:55Z</time></trkpt>
<trkpt lat="35.061028" lon="-85.063959"><ele>234.4</ele><time>2026-08-02T19:55:57Z</time></trkpt>
<trkpt lat="35.061051" lon="-85.063999"><ele>234.4</ele><time>2026-08-02T19:56:00Z</time></trkpt>
<trkpt lat="35.061069" lon="-85.064042"><ele>234.4</ele><time>2026-08-02T19:56:03Z</time></trkpt>
<trkpt lat="35.061084" lon="-85.064072"><ele>234.4</ele><time>2026-08-02T19:56:05Z</time></trkpt>
<trkpt lat="35.061112" lon="-85.064107"><ele>234.1</ele><time>2026-08-02T19:56:08Z</time></trkpt>
<trkpt lat="35.061133" lon="-85.064128"><ele>233.8</ele><time>2026-08-02T19:56:10Z</time></trkpt>
<trkpt lat="35.061148" lon="-85.06416"><ele>233.5</ele><time>2026-08-02T19:56:12Z</time></trkpt>
<trkpt lat="35.061176" lon="-85.064196"><ele>233.8</ele><time>2026-08-02T19:56:15Z</time></trkpt>
<trkpt lat="35.061195" lon="-85.064226"><ele>233.8</ele><time>2026-08-02T19:56:17Z</time></trkpt>
<trkpt lat="35.06121" lon="-85.064258"><ele>233.8</ele><time>2026-08-02T19:56:19Z</time></trkpt>
<trkpt lat="35.061225" lon="-85.06429"><ele>234.4</ele><time>2026-08-02T19:56:21Z</time></trkpt>
<trkpt lat="35.061242" lon="-85.06432"><ele>234.4</ele><time>2026-08-02T19:56:23Z</time></trkpt>
<trkpt lat="35.061261" lon="-85.064348"><ele>232.9</ele><time>2026-08-02T19:56:25Z</time></trkpt>
<trkpt lat="35.061277" lon="-85.06438"><ele>234.1</ele><time>2026-08-02T19:56:27Z</time></trkpt>
<trkpt lat="35.061294" lon="-85.064409"><ele>234.4</ele><time>2026-08-02T19:56:29Z</time></trkpt>
<trkpt lat="35.06131" lon="-85.064442"><ele>234.4</ele><time>2026-08-02T19:56:31Z</time></trkpt>
<trkpt lat="35.061329" lon="-85.064472"><ele>234.1</ele><time>2026-08-02T19:56:33Z</time></trkpt>
<trkpt lat="35.061346" lon="-85.064501"><ele>234.7</ele><time>2026-08-02T19:56:35Z</time></trkpt>
<trkpt lat="35.061364" lon="-85.064527"><ele>233.8</ele><time>2026-08-02T19:56:37Z</time></trkpt>
<trkpt lat="35.061386" lon="-85.064567"><ele>233.8</ele><time>2026-08-02T19:56:40Z</time></trkpt>
<trkpt lat="35.0614" lon="-85.064597"><ele>234.4</ele><time>2026-08-02T19:56:42Z</time></trkpt>
<trkpt lat="35.061415" lon="-85.064643"><ele>235.0</ele><time>2026-08-02T19:56:45Z</time></trkpt>
<trkpt lat="35.061431" lon="-85.064689"><ele>234.7</ele><time>2026-08-02T19:56:48Z</time></trkpt>
<trkpt lat="35.061447" lon="-85.06472"><ele>234.7</ele><time>2026-08-02T19:56:50Z</time></trkpt>
<trkpt lat="35.061461" lon="-85.064752"><ele>234.4</ele><time>2026-08-02T19:56:52Z</time></trkpt>
<trkpt lat="35.061486" lon="-85.064791"><ele>234.7</ele><time>2026-08-02T19:56:55Z</time></trkpt>
<trkpt lat="35.061509" lon="-85.064814"><ele>235.0</ele><time>2026-08-02T19:56:57Z</time></trkpt>
<trkpt lat="35.061526" lon="-85.064842"><ele>235.3</ele><time>2026-08-02T19:56:59Z</time></trkpt>
<trkpt lat="35.061546" lon="-85.064866"><ele>236.5</ele><time>2026-08-02T19:57:01Z</time></trkpt>
<trkpt lat="35.061568" lon="-85.064893"><ele>237.4</ele><time>2026-08-02T19:57:03Z</time></trkpt>
<trkpt lat="35.061589" lon="-85.064916"><ele>237.4</ele><time>2026-08-02T19:57:05Z</time></trkpt>
<trkpt lat="35.061616" lon="-85.064951"><ele>238.0</ele><time>2026-08-02T19:57:08Z</time></trkpt>
<trkpt lat="35.061637" lon="-85.064978"><ele>237.4</ele><time>2026-08-02T19:57:10Z</time></trkpt>
<trkpt lat="35.061653" lon="-85.06501"><ele>238.7</ele><time>2026-08-02T19:57:12Z</time></trkpt>
<trkpt lat="35.061679" lon="-85.065044"><ele>239.3</ele><time>2026-08-02T19:57:15Z</time></trkpt>
<trkpt lat="35.061703" lon="-85.065083"><ele>239.0</ele><time>2026-08-02T19:57:18Z</time></trkpt>
<trkpt lat="35.061727" lon="-85.065122"><ele>238.4</ele><time>2026-08-02T19:57:21Z</time></trkpt>
<trkpt lat="35.061744" lon="-85.065148"><ele>238.4</ele><time>2026-08-02T19:57:23Z</time></trkpt>
<trkpt lat="35.061769" lon="-85.065168"><ele>238.7</ele><time>2026-08-02T19:57:25Z</time></trkpt>
<trkpt lat="35.061793" lon="-85.065192"><ele>237.7</ele><time>2026-08-02T19:57:27Z</time></trkpt>
<trkpt lat="35.061813" lon="-85.065219"><ele>236.8</ele><time>2026-08-02T19:57:29Z</time></trkpt>
<trkpt lat="35.061833" lon="-85.065245"><ele>236.5</ele><time>2026-08-02T19:57:31Z</time></trkpt>
<trkpt lat="35.061856" lon="-85.065271"><ele>235.3</ele><time>2026-08-02T19:57:33Z</time></trkpt>
<trkpt lat="35.061878" lon="-85.065298"><ele>234.7</ele><time>2026-08-02T19:57:35Z</time></trkpt>
<trkpt lat="35.061899" lon="-85.065326"><ele>234.1</ele><time>2026-08-02T19:57:37Z</time></trkpt>
<trkpt lat="35.061913" lon="-85.065357"><ele>233.8</ele><time>2026-08-02T19:57:39Z</time></trkpt>
<trkpt lat="35.061929" lon="-85.065386"><ele>233.2</ele><time>2026-08-02T19:57:41Z</time></trkpt>
<trkpt lat="35.061945" lon="-85.065419"><ele>233.2</ele><time>2026-08-02T19:57:43Z</time></trkpt>
<trkpt lat="35.061959" lon="-85.06545"><ele>233.8</ele><time>2026-08-02T19:57:45Z</time></trkpt>
<trkpt lat="35.061969" lon="-85.065489"><ele>234.4</ele><time>2026-08-02T19:57:47Z</time></trkpt>
<trkpt lat="35.06198" lon="-85.065524"><ele>235.3</ele><time>2026-08-02T19:57:49Z</time></trkpt>
<trkpt lat="35.061993" lon="-85.065556"><ele>236.2</ele><time>2026-08-02T19:57:51Z</time></trkpt>
<trkpt lat="35.062006" lon="-85.065588"><ele>236.2</ele><time>2026-08-02T19:57:53Z</time></trkpt>
<trkpt lat="35.062025" lon="-85.065613"><ele>235.9</ele><time>2026-08-02T19:57:55Z</time></trkpt>
<trkpt lat="35.062039" lon="-85.065645"><ele>235.0</ele><time>2026-08-02T19:57:57Z</time></trkpt>
<trkpt lat="35.062057" lon="-85.065677"><ele>235.0</ele><time>2026-08-02T19:57:59Z</time></trkpt>
<trkpt lat="35.062073" lon="-85.06571"><ele>234.7</ele><time>2026-08-02T19:58:01Z</time></trkpt>
<trkpt lat="35.062088" lon="-85.065742"><ele>234.7</ele><time>2026-08-02T19:58:03Z</time></trkpt>
<trkpt lat="35.062104" lon="-85.065774"><ele>234.4</ele><time>2026-08-02T19:58:05Z</time></trkpt>
<trkpt lat="35.06212" lon="-85.065803"><ele>235.0</ele><time>2026-08-02T19:58:07Z</time></trkpt>
<trkpt lat="35.062131" lon="-85.06585"><ele>234.4</ele><time>2026-08-02T19:58:10Z</time></trkpt>
<trkpt lat="35.062138" lon="-85.065885"><ele>234.1</ele><time>2026-08-02T19:58:12Z</time></trkpt>
<trkpt lat="35.062144" lon="-85.065933"><ele>234.4</ele><time>2026-08-02T19:58:15Z</time></trkpt>
<trkpt lat="35.06215" lon="-85.065966"><ele>234.4</ele><time>2026-08-02T19:58:17Z</time></trkpt>
<trkpt lat="35.062157" lon="-85.066"><ele>234.4</ele><time>2026-08-02T19:58:19Z</time></trkpt>
<trkpt lat="35.06216" lon="-85.066035"><ele>234.4</ele><time>2026-08-02T19:58:21Z</time></trkpt>
<trkpt lat="35.062154" lon="-85.066072"><ele>233.8</ele><time>2026-08-02T19:58:23Z</time></trkpt>
<trkpt lat="35.062138" lon="-85.066108"><ele>232.6</ele><time>2026-08-02T19:58:25Z</time></trkpt>
<trkpt lat="35.062137" lon="-85.066143"><ele>233.2</ele><time>2026-08-02T19:58:27Z</time></trkpt>
<trkpt lat="35.062122" lon="-85.066179"><ele>232.6</ele><time>2026-08-02T19:58:29Z</time></trkpt>
<trkpt lat="35.062119" lon="-85.066215"><ele>232.6</ele><time>2026-08-02T19:58:31Z</time></trkpt>
<trkpt lat="35.062136" lon="-85.066245"><ele>233.2</ele><time>2026-08-02T19:58:37Z</time></trkpt>
<trkpt lat="35.062146" lon="-85.066287"><ele>233.5</ele><time>2026-08-02T19:58:40Z</time></trkpt>
<trkpt lat="35.062154" lon="-85.066323"><ele>232.6</ele><time>2026-08-02T19:58:42Z</time></trkpt>
<trkpt lat="35.062162" lon="-85.066355"><ele>231.3</ele><time>2026-08-02T19:58:44Z</time></trkpt>
<trkpt lat="35.062174" lon="-85.066391"><ele>228.6</ele><time>2026-08-02T19:58:46Z</time></trkpt>
<trkpt lat="35.062187" lon="-85.066442"><ele>230.1</ele><time>2026-08-02T19:58:48Z</time></trkpt>
<trkpt lat="35.062201" lon="-85.066485"><ele>230.4</ele><time>2026-08-02T19:58:50Z</time></trkpt>
<trkpt lat="35.062203" lon="-85.066528"><ele>229.8</ele><time>2026-08-02T19:58:52Z</time></trkpt>
<trkpt lat="35.062215" lon="-85.066562"><ele>230.1</ele><time>2026-08-02T19:58:54Z</time></trkpt>
<trkpt lat="35.062239" lon="-85.066583"><ele>229.5</ele><time>2026-08-02T19:58:56Z</time></trkpt>
<trkpt lat="35.062273" lon="-85.066597"><ele>233.2</ele><time>2026-08-02T19:58:59Z</time></trkpt>
<trkpt lat="35.062297" lon="-85.066578"><ele>236.2</ele><time>2026-08-02T19:59:02Z</time></trkpt>
<trkpt lat="35.062296" lon="-85.066615"><ele>238.4</ele><time>2026-08-02T19:59:05Z</time></trkpt>
<trkpt lat="35.062261" lon="-85.066615"><ele>237.7</ele><time>2026-08-02T19:59:07Z</time></trkpt>
<trkpt lat="35.062225" lon="-85.066615"><ele>238.0</ele><time>2026-08-02T19:59:10Z</time></trkpt>
<trkpt lat="35.062201" lon="-85.066598"><ele>237.4</ele><time>2026-08-02T19:59:12Z</time></trkpt>
<trkpt lat="35.06219" lon="-85.066561"><ele>235.3</ele><time>2026-08-02T19:59:14Z</time></trkpt>
<trkpt lat="35.062179" lon="-85.066526"><ele>233.8</ele><time>2026-08-02T19:59:16Z</time></trkpt>
<trkpt lat="35.062167" lon="-85.066492"><ele>231.6</ele><time>2026-08-02T19:59:18Z</time></trkpt>
<trkpt lat="35.06215" lon="-85.066449"><ele>231.6</ele><time>2026-08-02T19:59:21Z</time></trkpt>
<trkpt lat="35.062134" lon="-85.066412"><ele>236.2</ele><time>2026-08-02T19:59:24Z</time></trkpt>
<trkpt lat="35.062131" lon="-85.066379"><ele>235.9</ele><time>2026-08-02T19:59:26Z</time></trkpt>
<trkpt lat="35.062123" lon="-85.066328"><ele>232.9</ele><time>2026-08-02T19:59:29Z</time></trkpt>
<trkpt lat="35.062123" lon="-85.066288"><ele>231.6</ele><time>2026-08-02T19:59:31Z</time></trkpt>
<trkpt lat="35.062115" lon="-85.066238"><ele>230.1</ele><time>2026-08-02T19:59:34Z</time></trkpt>
<trkpt lat="35.062112" lon="-85.066201"><ele>230.7</ele><time>2026-08-02T19:59:36Z</time></trkpt>
<trkpt lat="35.062119" lon="-85.066158"><ele>232.0</ele><time>2026-08-02T19:59:38Z</time></trkpt>
<trkpt lat="35.062129" lon="-85.066117"><ele>233.8</ele><time>2026-08-02T19:59:40Z</time></trkpt>
<trkpt lat="35.062134" lon="-85.066081"><ele>234.1</ele><time>2026-08-02T19:59:42Z</time></trkpt>
<trkpt lat="35.062145" lon="-85.066046"><ele>235.0</ele><time>2026-08-02T19:59:44Z</time></trkpt>
<trkpt lat="35.062177" lon="-85.066034"><ele>233.2</ele><time>2026-08-02T19:59:46Z</time></trkpt>
<trkpt lat="35.062206" lon="-85.066031"><ele>232.3</ele><time>2026-08-02T19:59:48Z</time></trkpt>
<trkpt lat="35.06224" lon="-85.066056"><ele>234.1</ele><time>2026-08-02T19:59:50Z</time></trkpt>
<trkpt lat="35.062265" lon="-85.06608"><ele>234.4</ele><time>2026-08-02T19:59:52Z</time></trkpt>
<trkpt lat="35.062289" lon="-85.066103"><ele>234.7</ele><time>2026-08-02T19:59:54Z</time></trkpt>
<trkpt lat="35.062308" lon="-85.066131"><ele>235.6</ele><time>2026-08-02T19:59:56Z</time></trkpt>
<trkpt lat="35.062318" lon="-85.066163"><ele>237.4</ele><time>2026-08-02T19:59:58Z</time></trkpt>
<trkpt lat="35.062293" lon="-85.066193"><ele>238.4</ele><time>2026-08-02T20:00:00Z</time></trkpt>
<trkpt lat="35.062262" lon="-85.066205"><ele>238.7</ele><time>2026-08-02T20:00:02Z</time></trkpt>
<trkpt lat="35.062232" lon="-85.066214"><ele>238.7</ele><time>2026-08-02T20:00:04Z</time></trkpt>
<trkpt lat="35.062193" lon="-85.066227"><ele>238.4</ele><time>2026-08-02T20:00:07Z</time></trkpt>
<trkpt lat="35.062165" lon="-85.06623"><ele>238.0</ele><time>2026-08-02T20:00:09Z</time></trkpt>
<trkpt lat="35.062138" lon="-85.066231"><ele>237.4</ele><time>2026-08-02T20:00:11Z</time></trkpt>
<trkpt lat="35.062098" lon="-85.066237"><ele>237.7</ele><time>2026-08-02T20:00:14Z</time></trkpt>
<trkpt lat="35.06207" lon="-85.06624"><ele>237.7</ele><time>2026-08-02T20:00:16Z</time></trkpt>
<trkpt lat="35.062042" lon="-85.066239"><ele>236.8</ele><time>2026-08-02T20:00:18Z</time></trkpt>
<trkpt lat="35.062001" lon="-85.066245"><ele>237.1</ele><time>2026-08-02T20:00:21Z</time></trkpt>
<trkpt lat="35.061973" lon="-85.066251"><ele>237.1</ele><time>2026-08-02T20:00:23Z</time></trkpt>
<trkpt lat="35.061935" lon="-85.066261"><ele>236.5</ele><time>2026-08-02T20:00:26Z</time></trkpt>
<trkpt lat="35.061908" lon="-85.066267"><ele>236.2</ele><time>2026-08-02T20:00:28Z</time></trkpt>
<trkpt lat="35.06188" lon="-85.066272"><ele>236.5</ele><time>2026-08-02T20:00:30Z</time></trkpt>
<trkpt lat="35.061853" lon="-85.06628"><ele>236.8</ele><time>2026-08-02T20:00:32Z</time></trkpt>
<trkpt lat="35.061826" lon="-85.066286"><ele>237.1</ele><time>2026-08-02T20:00:34Z</time></trkpt>
<trkpt lat="35.061798" lon="-85.066291"><ele>237.1</ele><time>2026-08-02T20:00:36Z</time></trkpt>
<trkpt lat="35.061769" lon="-85.066298"><ele>236.8</ele><time>2026-08-02T20:00:38Z</time></trkpt>
<trkpt lat="35.061739" lon="-85.066304"><ele>236.8</ele><time>2026-08-02T20:00:40Z</time></trkpt>
<trkpt lat="35.061707" lon="-85.06631"><ele>236.8</ele><time>2026-08-02T20:00:42Z</time></trkpt>
<trkpt lat="35.061676" lon="-85.066316"><ele>237.1</ele><time>2026-08-02T20:00:44Z</time></trkpt>
<trkpt lat="35.061645" lon="-85.066322"><ele>237.4</ele><time>2026-08-02T20:00:46Z</time></trkpt>
<trkpt lat="35.061614" lon="-85.066327"><ele>237.7</ele><time>2026-08-02T20:00:48Z</time></trkpt>
<trkpt lat="35.061585" lon="-85.066331"><ele>237.7</ele><time>2026-08-02T20:00:50Z</time></trkpt>
<trkpt lat="35.061555" lon="-85.066332"><ele>237.7</ele><time>2026-08-02T20:00:52Z</time></trkpt>
<trkpt lat="35.061524" lon="-85.066335"><ele>238.0</ele><time>2026-08-02T20:00:54Z</time></trkpt>
<trkpt lat="35.061494" lon="-85.066338"><ele>238.4</ele><time>2026-08-02T20:00:56Z</time></trkpt>
<trkpt lat="35.061462" lon="-85.06634"><ele>239.3</ele><time>2026-08-02T20:00:58Z</time></trkpt>
<trkpt lat="35.061433" lon="-85.06634"><ele>239.3</ele><time>2026-08-02T20:01:00Z</time></trkpt>
<trkpt lat="35.061404" lon="-85.066339"><ele>239.9</ele><time>2026-08-02T20:01:02Z</time></trkpt>
<trkpt lat="35.061374" lon="-85.066335"><ele>240.5</ele><time>2026-08-02T20:01:04Z</time></trkpt>
<trkpt lat="35.061335" lon="-85.066322"><ele>240.2</ele><time>2026-08-02T20:01:07Z</time></trkpt>
<trkpt lat="35.061297" lon="-85.066298"><ele>239.0</ele><time>2026-08-02T20:01:10Z</time></trkpt>
<trkpt lat="35.061277" lon="-85.066275"><ele>238.7</ele><time>2026-08-02T20:01:12Z</time></trkpt>
<trkpt lat="35.061265" lon="-85.066241"><ele>238.7</ele><time>2026-08-02T20:01:14Z</time></trkpt>
<trkpt lat="35.061251" lon="-85.066207"><ele>238.4</ele><time>2026-08-02T20:01:16Z</time></trkpt>
<trkpt lat="35.061236" lon="-85.066174"><ele>238.4</ele><time>2026-08-02T20:01:18Z</time></trkpt>
<trkpt lat="35.061223" lon="-85.066139"><ele>238.4</ele><time>2026-08-02T20:01:20Z</time></trkpt>
<trkpt lat="35.06121" lon="-85.066105"><ele>238.0</ele><time>2026-08-02T20:01:22Z</time></trkpt>
<trkpt lat="35.061196" lon="-85.066069"><ele>238.0</ele><time>2026-08-02T20:01:24Z</time></trkpt>
<trkpt lat="35.061185" lon="-85.066021"><ele>237.1</ele><time>2026-08-02T20:01:27Z</time></trkpt>
<trkpt lat="35.061182" lon="-85.065985"><ele>237.4</ele><time>2026-08-02T20:01:29Z</time></trkpt>
<trkpt lat="35.061188" lon="-85.065935"><ele>237.7</ele><time>2026-08-02T20:01:32Z</time></trkpt>
<trkpt lat="35.061201" lon="-85.065903"><ele>238.4</ele><time>2026-08-02T20:01:34Z</time></trkpt>
<trkpt lat="35.061223" lon="-85.065881"><ele>238.7</ele><time>2026-08-02T20:01:36Z</time></trkpt>
<trkpt lat="35.061254" lon="-85.065892"><ele>238.4</ele><time>2026-08-02T20:01:38Z</time></trkpt>
<trkpt lat="35.061275" lon="-85.06592"><ele>238.7</ele><time>2026-08-02T20:01:40Z</time></trkpt>
<trkpt lat="35.061295" lon="-85.065961"><ele>237.4</ele><time>2026-08-02T20:01:43Z</time></trkpt>
<trkpt lat="35.061315" lon="-85.066"><ele>236.2</ele><time>2026-08-02T20:01:46Z</time></trkpt>
<trkpt lat="35.061342" lon="-85.066038"><ele>235.9</ele><time>2026-08-02T20:01:49Z</time></trkpt>
<trkpt lat="35.061365" lon="-85.066057"><ele>236.5</ele><time>2026-08-02T20:01:51Z</time></trkpt>
<trkpt lat="35.061403" lon="-85.066077"><ele>237.7</ele><time>2026-08-02T20:01:54Z</time></trkpt>
<trkpt lat="35.06143" lon="-85.066084"><ele>238.7</ele><time>2026-08-02T20:01:56Z</time></trkpt>
<trkpt lat="35.061459" lon="-85.066091"><ele>238.0</ele><time>2026-08-02T20:01:58Z</time></trkpt>
<trkpt lat="35.061487" lon="-85.066098"><ele>238.4</ele><time>2026-08-02T20:02:00Z</time></trkpt>
<trkpt lat="35.061515" lon="-85.066108"><ele>238.0</ele><time>2026-08-02T20:02:02Z</time></trkpt>
<trkpt lat="35.061546" lon="-85.066115"><ele>238.0</ele><time>2026-08-02T20:02:04Z</time></trkpt>
<trkpt lat="35.061576" lon="-85.066124"><ele>238.0</ele><time>2026-08-02T20:02:06Z</time></trkpt>
<trkpt lat="35.061603" lon="-85.066134"><ele>238.7</ele><time>2026-08-02T20:02:08Z</time></trkpt>
<trkpt lat="35.061637" lon="-85.066157"><ele>238.4</ele><time>2026-08-02T20:02:11Z</time></trkpt>
<trkpt lat="35.061674" lon="-85.06618"><ele>237.4</ele><time>2026-08-02T20:02:14Z</time></trkpt>
<trkpt lat="35.061704" lon="-85.066204"><ele>236.8</ele><time>2026-08-02T20:02:17Z</time></trkpt>
<trkpt lat="35.061742" lon="-85.066217"><ele>236.8</ele><time>2026-08-02T20:02:20Z</time></trkpt>
<trkpt lat="35.061769" lon="-85.06622"><ele>236.5</ele><time>2026-08-02T20:02:22Z</time></trkpt>
<trkpt lat="35.061807" lon="-85.066222"><ele>236.5</ele><time>2026-08-02T20:02:25Z</time></trkpt>
<trkpt lat="35.061836" lon="-85.066223"><ele>236.8</ele><time>2026-08-02T20:02:27Z</time></trkpt>
<trkpt lat="35.061866" lon="-85.066221"><ele>237.1</ele><time>2026-08-02T20:02:29Z</time></trkpt>
<trkpt lat="35.061896" lon="-85.066222"><ele>237.7</ele><time>2026-08-02T20:02:31Z</time></trkpt>
<trkpt lat="35.061927" lon="-85.066215"><ele>238.7</ele><time>2026-08-02T20:02:33Z</time></trkpt>
<trkpt lat="35.061955" lon="-85.066223"><ele>239.3</ele><time>2026-08-02T20:02:35Z</time></trkpt>
<trkpt lat="35.061973" lon="-85.066249"><ele>239.0</ele><time>2026-08-02T20:02:37Z</time></trkpt>
<trkpt lat="35.061986" lon="-85.066292"><ele>239.0</ele><time>2026-08-02T20:02:40Z</time></trkpt>
<trkpt lat="35.061991" lon="-85.066328"><ele>239.0</ele><time>2026-08-02T20:02:42Z</time></trkpt>
<trkpt lat="35.062003" lon="-85.066363"><ele>236.8</ele><time>2026-08-02T20:02:44Z</time></trkpt>
<trkpt lat="35.062006" lon="-85.066406"><ele>235.3</ele><time>2026-08-02T20:02:46Z</time></trkpt>
<trkpt lat="35.062018" lon="-85.066445"><ele>233.2</ele><time>2026-08-02T20:02:48Z</time></trkpt>
<trkpt lat="35.062018" lon="-85.066483"><ele>232.6</ele><time>2026-08-02T20:02:50Z</time></trkpt>
<trkpt lat="35.062019" lon="-85.06652"><ele>232.0</ele><time>2026-08-02T20:02:52Z</time></trkpt>
<trkpt lat="35.062023" lon="-85.06657"><ele>231.3</ele><time>2026-08-02T20:02:55Z</time></trkpt>
<trkpt lat="35.062025" lon="-85.066605"><ele>231.0</ele><time>2026-08-02T20:02:57Z</time></trkpt>
<trkpt lat="35.062025" lon="-85.066639"><ele>231.3</ele><time>2026-08-02T20:02:59Z</time></trkpt>
<trkpt lat="35.062021" lon="-85.066674"><ele>231.0</ele><time>2026-08-02T20:03:01Z</time></trkpt>
<trkpt lat="35.062021" lon="-85.066712"><ele>231.3</ele><time>2026-08-02T20:03:03Z</time></trkpt>
<trkpt lat="35.062029" lon="-85.066747"><ele>231.6</ele><time>2026-08-02T20:03:05Z</time></trkpt>
<trkpt lat="35.062033" lon="-85.066781"><ele>232.3</ele><time>2026-08-02T20:03:07Z</time></trkpt>
<trkpt lat="35.062039" lon="-85.066816"><ele>232.9</ele><time>2026-08-02T20:03:09Z</time></trkpt>
<trkpt lat="35.062041" lon="-85.066856"><ele>232.6</ele><time>2026-08-02T20:03:11Z</time></trkpt>
<trkpt lat="35.062038" lon="-85.066894"><ele>232.0</ele><time>2026-08-02T20:03:13Z</time></trkpt>
<trkpt lat="35.062035" lon="-85.066932"><ele>231.3</ele><time>2026-08-02T20:03:15Z</time></trkpt>
<trkpt lat="35.062027" lon="-85.066972"><ele>231.3</ele><time>2026-08-02T20:03:17Z</time></trkpt>
<trkpt lat="35.06202" lon="-85.067011"><ele>232.0</ele><time>2026-08-02T20:03:19Z</time></trkpt>
<trkpt lat="35.062019" lon="-85.067049"><ele>232.0</ele><time>2026-08-02T20:03:21Z</time></trkpt>
<trkpt lat="35.06202" lon="-85.067084"><ele>233.2</ele><time>2026-08-02T20:03:23Z</time></trkpt>
<trkpt lat="35.062028" lon="-85.067116"><ele>234.1</ele><time>2026-08-02T20:03:25Z</time></trkpt>
<trkpt lat="35.062039" lon="-85.067149"><ele>233.8</ele><time>2026-08-02T20:03:27Z</time></trkpt>
<trkpt lat="35.062034" lon="-85.067185"><ele>233.8</ele><time>2026-08-02T20:03:29Z</time></trkpt>
<trkpt lat="35.06203" lon="-85.067223"><ele>234.1</ele><time>2026-08-02T20:03:31Z</time></trkpt>
<trkpt lat="35.062034" lon="-85.067259"><ele>233.8</ele><time>2026-08-02T20:03:33Z</time></trkpt>
<trkpt lat="35.062038" lon="-85.067297"><ele>233.5</ele><time>2026-08-02T20:03:35Z</time></trkpt>
<trkpt lat="35.06205" lon="-85.067331"><ele>233.2</ele><time>2026-08-02T20:03:37Z</time></trkpt>
<trkpt lat="35.062061" lon="-85.067362"><ele>233.2</ele><time>2026-08-02T20:03:39Z</time></trkpt>
<trkpt lat="35.062068" lon="-85.067401"><ele>233.5</ele><time>2026-08-02T20:03:41Z</time></trkpt>
<trkpt lat="35.062079" lon="-85.067432"><ele>233.5</ele><time>2026-08-02T20:03:43Z</time></trkpt>
<trkpt lat="35.062094" lon="-85.067468"><ele>233.5</ele><time>2026-08-02T20:03:45Z</time></trkpt>
<trkpt lat="35.062108" lon="-85.067502"><ele>233.8</ele><time>2026-08-02T20:03:47Z</time></trkpt>
<trkpt lat="35.062123" lon="-85.067536"><ele>233.8</ele><time>2026-08-02T20:03:49Z</time></trkpt>
<trkpt lat="35.06214" lon="-85.067564"><ele>234.1</ele><time>2026-08-02T20:03:51Z</time></trkpt>
<trkpt lat="35.06215" lon="-85.067596"><ele>234.1</ele><time>2026-08-02T20:03:53Z</time></trkpt>
<trkpt lat="35.062145" lon="-85.067635"><ele>233.8</ele><time>2026-08-02T20:03:55Z</time></trkpt>
<trkpt lat="35.062137" lon="-85.067672"><ele>233.8</ele><time>2026-08-02T20:03:57Z</time></trkpt>
<trkpt lat="35.062131" lon="-85.067709"><ele>233.8</ele><time>2026-08-02T20:03:59Z</time></trkpt>
<trkpt lat="35.06211" lon="-85.067743"><ele>234.1</ele><time>2026-08-02T20:04:01Z</time></trkpt>
<trkpt lat="35.0621" lon="-85.067776"><ele>234.7</ele><time>2026-08-02T20:04:03Z</time></trkpt>
<trkpt lat="35.062093" lon="-85.067809"><ele>234.7</ele><time>2026-08-02T20:04:05Z</time></trkpt>
<trkpt lat="35.062076" lon="-85.067836"><ele>234.4</ele><time>2026-08-02T20:04:07Z</time></trkpt>
<trkpt lat="35.062055" lon="-85.06786"><ele>234.4</ele><time>2026-08-02T20:04:09Z</time></trkpt>
<trkpt lat="35.062044" lon="-85.067891"><ele>234.1</ele><time>2026-08-02T20:04:11Z</time></trkpt>
<trkpt lat="35.062044" lon="-85.067942"><ele>233.5</ele><time>2026-08-02T20:04:14Z</time></trkpt>
<trkpt lat="35.062044" lon="-85.067977"><ele>233.5</ele><time>2026-08-02T20:04:16Z</time></trkpt>
<trkpt lat="35.062032" lon="-85.068012"><ele>233.5</ele><time>2026-08-02T20:04:18Z</time></trkpt>
<trkpt lat="35.062012" lon="-85.068044"><ele>233.8</ele><time>2026-08-02T20:04:20Z</time></trkpt>
<trkpt lat="35.061981" lon="-85.06805"><ele>233.8</ele><time>2026-08-02T20:04:22Z</time></trkpt>
<trkpt lat="35.061952" lon="-85.068046"><ele>234.1</ele><time>2026-08-02T20:04:24Z</time></trkpt>
<trkpt lat="35.061921" lon="-85.068043"><ele>234.4</ele><time>2026-08-02T20:04:26Z</time></trkpt>
<trkpt lat="35.061893" lon="-85.068041"><ele>234.4</ele><time>2026-08-02T20:04:28Z</time></trkpt>
<trkpt lat="35.061864" lon="-85.068043"><ele>234.7</ele><time>2026-08-02T20:04:30Z</time></trkpt>
<trkpt lat="35.061825" lon="-85.068046"><ele>234.7</ele><time>2026-08-02T20:04:33Z</time></trkpt>
<trkpt lat="35.061797" lon="-85.068046"><ele>235.0</ele><time>2026-08-02T20:04:35Z</time></trkpt>
<trkpt lat="35.061757" lon="-85.068055"><ele>234.1</ele><time>2026-08-02T20:04:38Z</time></trkpt>
<trkpt lat="35.061722" lon="-85.068074"><ele>233.8</ele><time>2026-08-02T20:04:41Z</time></trkpt>
<trkpt lat="35.061693" lon="-85.068104"><ele>233.5</ele><time>2026-08-02T20:04:44Z</time></trkpt>
<trkpt lat="35.061666" lon="-85.068143"><ele>233.5</ele><time>2026-08-02T20:04:47Z</time></trkpt>
<trkpt lat="35.061649" lon="-85.068172"><ele>233.2</ele><time>2026-08-02T20:04:49Z</time></trkpt>
<trkpt lat="35.061634" lon="-85.068201"><ele>233.2</ele><time>2026-08-02T20:04:51Z</time></trkpt>
<trkpt lat="35.061613" lon="-85.068227"><ele>233.2</ele><time>2026-08-02T20:04:53Z</time></trkpt>
<trkpt lat="35.06159" lon="-85.06825"><ele>233.2</ele><time>2026-08-02T20:04:55Z</time></trkpt>
<trkpt lat="35.061566" lon="-85.06827"><ele>233.2</ele><time>2026-08-02T20:04:57Z</time></trkpt>
<trkpt lat="35.06154" lon="-85.068285"><ele>233.5</ele><time>2026-08-02T20:04:59Z</time></trkpt>
<trkpt lat="35.06151" lon="-85.068295"><ele>233.5</ele><time>2026-08-02T20:05:01Z</time></trkpt>
<trkpt lat="35.061482" lon="-85.068303"><ele>233.8</ele><time>2026-08-02T20:05:03Z</time></trkpt>
<trkpt lat="35.061454" lon="-85.068309"><ele>234.1</ele><time>2026-08-02T20:05:05Z</time></trkpt>
<trkpt lat="35.061414" lon="-85.068311"><ele>234.1</ele><time>2026-08-02T20:05:08Z</time></trkpt>
<trkpt lat="35.061373" lon="-85.068316"><ele>234.4</ele><time>2026-08-02T20:05:11Z</time></trkpt>
<trkpt lat="35.061338" lon="-85.068324"><ele>234.4</ele><time>2026-08-02T20:05:14Z</time></trkpt>
<trkpt lat="35.0613" lon="-85.068337"><ele>234.1</ele><time>2026-08-02T20:05:17Z</time></trkpt>
<trkpt lat="35.061265" lon="-85.068356"><ele>233.8</ele><time>2026-08-02T20:05:20Z</time></trkpt>
<trkpt lat="35.061242" lon="-85.068378"><ele>233.8</ele><time>2026-08-02T20:05:22Z</time></trkpt>
<trkpt lat="35.06122" lon="-85.068402"><ele>233.8</ele><time>2026-08-02T20:05:24Z</time></trkpt>
<trkpt lat="35.061201" lon="-85.068433"><ele>233.8</ele><time>2026-08-02T20:05:26Z</time></trkpt>
<trkpt lat="35.061188" lon="-85.068465"><ele>233.8</ele><time>2026-08-02T20:05:28Z</time></trkpt>
<trkpt lat="35.061175" lon="-85.068498"><ele>233.8</ele><time>2026-08-02T20:05:30Z</time></trkpt>
<trkpt lat="35.061166" lon="-85.068531"><ele>233.8</ele><time>2026-08-02T20:05:32Z</time></trkpt>
<trkpt lat="35.061155" lon="-85.068577"><ele>233.5</ele><time>2026-08-02T20:05:35Z</time></trkpt>
<trkpt lat="35.061148" lon="-85.068619"><ele>233.5</ele><time>2026-08-02T20:05:38Z</time></trkpt>
<trkpt lat="35.061141" lon="-85.068664"><ele>233.2</ele><time>2026-08-02T20:05:41Z</time></trkpt>
<trkpt lat="35.061132" lon="-85.068709"><ele>233.2</ele><time>2026-08-02T20:05:44Z</time></trkpt>
<trkpt lat="35.061129" lon="-85.068743"><ele>233.2</ele><time>2026-08-02T20:05:46Z</time></trkpt>
<trkpt lat="35.061124" lon="-85.06878"><ele>233.5</ele><time>2026-08-02T20:05:48Z</time></trkpt>
<trkpt lat="35.06112" lon="-85.068817"><ele>233.5</ele><time>2026-08-02T20:05:50Z</time></trkpt>
<trkpt lat="35.061116" lon="-85.068852"><ele>233.8</ele><time>2026-08-02T20:05:52Z</time></trkpt>
<trkpt lat="35.06111" lon="-85.068887"><ele>233.8</ele><time>2026-08-02T20:05:54Z</time></trkpt>
<trkpt lat="35.061088" lon="-85.068927"><ele>233.8</ele><time>2026-08-02T20:05:57Z</time></trkpt>
<trkpt lat="35.061053" lon="-85.068954"><ele>234.1</ele><time>2026-08-02T20:06:00Z</time></trkpt>
<trkpt lat="35.061013" lon="-85.068961"><ele>234.1</ele><time>2026-08-02T20:06:03Z</time></trkpt>
<trkpt lat="35.060975" lon="-85.06894"><ele>234.1</ele><time>2026-08-02T20:06:06Z</time></trkpt>
<trkpt lat="35.060952" lon="-85.068898"><ele>234.4</ele><time>2026-08-02T20:06:09Z</time></trkpt>
<trkpt lat="35.060939" lon="-85.068867"><ele>234.7</ele><time>2026-08-02T20:06:11Z</time></trkpt>
<trkpt lat="35.060926" lon="-85.068835"><ele>235.0</ele><time>2026-08-02T20:06:13Z</time></trkpt>
<trkpt lat="35.060913" lon="-85.068802"><ele>235.3</ele><time>2026-08-02T20:06:15Z</time></trkpt>
<trkpt lat="35.060884" lon="-85.068772"><ele>235.3</ele><time>2026-08-02T20:06:18Z</time></trkpt>
<trkpt lat="35.060908" lon="-85.068745"><ele>235.6</ele><time>2026-08-02T20:06:21Z</time></trkpt>
<trkpt lat="35.060921" lon="-85.068774"><ele>235.3</ele><time>2026-08-02T20:06:23Z</time></trkpt>
<trkpt lat="35.060934" lon="-85.068818"><ele>234.7</ele><time>2026-08-02T20:06:26Z</time></trkpt>
<trkpt lat="35.060952" lon="-85.068863"><ele>234.7</ele><time>2026-08-02T20:06:29Z</time></trkpt>
<trkpt lat="35.060967" lon="-85.068894"><ele>234.1</ele><time>2026-08-02T20:06:31Z</time></trkpt>
<trkpt lat="35.060985" lon="-85.068924"><ele>234.4</ele><time>2026-08-02T20:06:33Z</time></trkpt>
<trkpt lat="35.061007" lon="-85.068946"><ele>234.1</ele><time>2026-08-02T20:06:35Z</time></trkpt>
<trkpt lat="35.061046" lon="-85.068947"><ele>234.4</ele><time>2026-08-02T20:06:38Z</time></trkpt>
<trkpt lat="35.061077" lon="-85.068916"><ele>234.1</ele><time>2026-08-02T20:06:41Z</time></trkpt>
<trkpt lat="35.061093" lon="-85.068872"><ele>234.4</ele><time>2026-08-02T20:06:44Z</time></trkpt>
<trkpt lat="35.061098" lon="-85.068823"><ele>234.7</ele><time>2026-08-02T20:06:47Z</time></trkpt>
<trkpt lat="35.061107" lon="-85.068774"><ele>234.7</ele><time>2026-08-02T20:06:50Z</time></trkpt>
<trkpt lat="35.061117" lon="-85.068739"><ele>234.7</ele><time>2026-08-02T20:06:52Z</time></trkpt>
<trkpt lat="35.061125" lon="-85.068705"><ele>234.1</ele><time>2026-08-02T20:06:54Z</time></trkpt>
<trkpt lat="35.061131" lon="-85.06867"><ele>234.7</ele><time>2026-08-02T20:06:56Z</time></trkpt>
<trkpt lat="35.061134" lon="-85.068635"><ele>235.0</ele><time>2026-08-02T20:06:58Z</time></trkpt>
<trkpt lat="35.061141" lon="-85.068587"><ele>235.3</ele><time>2026-08-02T20:07:01Z</time></trkpt>
<trkpt lat="35.061152" lon="-85.06854"><ele>235.6</ele><time>2026-08-02T20:07:04Z</time></trkpt>
<trkpt lat="35.061164" lon="-85.068495"><ele>235.0</ele><time>2026-08-02T20:07:07Z</time></trkpt>
<trkpt lat="35.061183" lon="-85.068451"><ele>235.0</ele><time>2026-08-02T20:07:10Z</time></trkpt>
<trkpt lat="35.061197" lon="-85.068421"><ele>235.0</ele><time>2026-08-02T20:07:12Z</time></trkpt>
<trkpt lat="35.061212" lon="-85.068392"><ele>235.0</ele><time>2026-08-02T20:07:14Z</time></trkpt>
<trkpt lat="35.061233" lon="-85.068368"><ele>234.7</ele><time>2026-08-02T20:07:16Z</time></trkpt>
<trkpt lat="35.061259" lon="-85.068345"><ele>235.0</ele><time>2026-08-02T20:07:18Z</time></trkpt>
<trkpt lat="35.061284" lon="-85.068326"><ele>235.0</ele><time>2026-08-02T20:07:20Z</time></trkpt>
<trkpt lat="35.061322" lon="-85.068307"><ele>234.7</ele><time>2026-08-02T20:07:23Z</time></trkpt>
<trkpt lat="35.061362" lon="-85.068298"><ele>234.7</ele><time>2026-08-02T20:07:26Z</time></trkpt>
<trkpt lat="35.061401" lon="-85.068293"><ele>233.8</ele><time>2026-08-02T20:07:29Z</time></trkpt>
<trkpt lat="35.061441" lon="-85.06829"><ele>233.5</ele><time>2026-08-02T20:07:32Z</time></trkpt>
<trkpt lat="35.061469" lon="-85.068285"><ele>233.8</ele><time>2026-08-02T20:07:34Z</time></trkpt>
<trkpt lat="35.061497" lon="-85.06828"><ele>233.5</ele><time>2026-08-02T20:07:36Z</time></trkpt>
<trkpt lat="35.061525" lon="-85.068276"><ele>233.5</ele><time>2026-08-02T20:07:38Z</time></trkpt>
<trkpt lat="35.061553" lon="-85.068263"><ele>233.5</ele><time>2026-08-02T20:07:40Z</time></trkpt>
<trkpt lat="35.06158" lon="-85.068248"><ele>233.2</ele><time>2026-08-02T20:07:42Z</time></trkpt>
<trkpt lat="35.061604" lon="-85.068226"><ele>233.2</ele><time>2026-08-02T20:07:44Z</time></trkpt>
<trkpt lat="35.061622" lon="-85.068198"><ele>233.2</ele><time>2026-08-02T20:07:46Z</time></trkpt>
<trkpt lat="35.06164" lon="-85.068171"><ele>232.9</ele><time>2026-08-02T20:07:48Z</time></trkpt>
<trkpt lat="35.061658" lon="-85.068143"><ele>232.9</ele><time>2026-08-02T20:07:50Z</time></trkpt>
<trkpt lat="35.061683" lon="-85.068105"><ele>232.9</ele><time>2026-08-02T20:07:53Z</time></trkpt>
<trkpt lat="35.061713" lon="-85.068075"><ele>232.9</ele><time>2026-08-02T20:07:56Z</time></trkpt>
<trkpt lat="35.061744" lon="-85.068052"><ele>232.3</ele><time>2026-08-02T20:07:59Z</time></trkpt>
<trkpt lat="35.061782" lon="-85.068036"><ele>232.0</ele><time>2026-08-02T20:08:02Z</time></trkpt>
<trkpt lat="35.061811" lon="-85.068033"><ele>232.0</ele><time>2026-08-02T20:08:04Z</time></trkpt>
<trkpt lat="35.061839" lon="-85.068035"><ele>232.0</ele><time>2026-08-02T20:08:06Z</time></trkpt>
<trkpt lat="35.061868" lon="-85.068038"><ele>232.3</ele><time>2026-08-02T20:08:08Z</time></trkpt>
<trkpt lat="35.061898" lon="-85.068038"><ele>232.3</ele><time>2026-08-02T20:08:10Z</time></trkpt>
<trkpt lat="35.061928" lon="-85.068038"><ele>232.6</ele><time>2026-08-02T20:08:12Z</time></trkpt>
<trkpt lat="35.061958" lon="-85.06804"><ele>232.6</ele><time>2026-08-02T20:08:14Z</time></trkpt>
<trkpt lat="35.061989" lon="-85.068044"><ele>232.6</ele><time>2026-08-02T20:08:16Z</time></trkpt>
<trkpt lat="35.06202" lon="-85.068044"><ele>232.3</ele><time>2026-08-02T20:08:18Z</time></trkpt>
<trkpt lat="35.062053" lon="-85.068037"><ele>232.6</ele><time>2026-08-02T20:08:20Z</time></trkpt>
<trkpt lat="35.062082" lon="-85.068035"><ele>232.6</ele><time>2026-08-02T20:08:22Z</time></trkpt>
<trkpt lat="35.062112" lon="-85.068036"><ele>232.0</ele><time>2026-08-02T20:08:24Z</time></trkpt>
<trkpt lat="35.062147" lon="-85.068059"><ele>232.3</ele><time>2026-08-02T20:08:27Z</time></trkpt>
<trkpt lat="35.062156" lon="-85.068093"><ele>232.9</ele><time>2026-08-02T20:08:29Z</time></trkpt>
<trkpt lat="35.06216" lon="-85.068129"><ele>232.9</ele><time>2026-08-02T20:08:31Z</time></trkpt>
<trkpt lat="35.062161" lon="-85.068166"><ele>233.2</ele><time>2026-08-02T20:08:33Z</time></trkpt>
<trkpt lat="35.062166" lon="-85.068203"><ele>233.8</ele><time>2026-08-02T20:08:35Z</time></trkpt>
<trkpt lat="35.062173" lon="-85.06824"><ele>234.1</ele><time>2026-08-02T20:08:37Z</time></trkpt>
<trkpt lat="35.06218" lon="-85.068275"><ele>234.7</ele><time>2026-08-02T20:08:39Z</time></trkpt>
<trkpt lat="35.062188" lon="-85.068311"><ele>235.0</ele><time>2026-08-02T20:08:41Z</time></trkpt>
<trkpt lat="35.0622" lon="-85.068352"><ele>235.0</ele><time>2026-08-02T20:08:43Z</time></trkpt>
<trkpt lat="35.062212" lon="-85.068389"><ele>235.6</ele><time>2026-08-02T20:08:45Z</time></trkpt>
<trkpt lat="35.062226" lon="-85.068424"><ele>236.2</ele><time>2026-08-02T20:08:47Z</time></trkpt>
<trkpt lat="35.062238" lon="-85.068458"><ele>236.8</ele><time>2026-08-02T20:08:49Z</time></trkpt>
<trkpt lat="35.062251" lon="-85.068492"><ele>237.4</ele><time>2026-08-02T20:08:51Z</time></trkpt>
<trkpt lat="35.062267" lon="-85.068524"><ele>238.0</ele><time>2026-08-02T20:08:53Z</time></trkpt>
<trkpt lat="35.062285" lon="-85.068553"><ele>238.0</ele><time>2026-08-02T20:08:55Z</time></trkpt>
<trkpt lat="35.062305" lon="-85.068586"><ele>238.0</ele><time>2026-08-02T20:08:57Z</time></trkpt>
<trkpt lat="35.062326" lon="-85.068616"><ele>237.7</ele><time>2026-08-02T20:08:59Z</time></trkpt>
<trkpt lat="35.062348" lon="-85.068644"><ele>237.7</ele><time>2026-08-02T20:09:01Z</time></trkpt>
<trkpt lat="35.062375" lon="-85.06867"><ele>237.4</ele><time>2026-08-02T20:09:03Z</time></trkpt>
<trkpt lat="35.0624" lon="-85.068693"><ele>237.1</ele><time>2026-08-02T20:09:05Z</time></trkpt>
<trkpt lat="35.062421" lon="-85.068716"><ele>237.1</ele><time>2026-08-02T20:09:07Z</time></trkpt>
<trkpt lat="35.062444" lon="-85.068738"><ele>237.1</ele><time>2026-08-02T20:09:09Z</time></trkpt>
<trkpt lat="35.062468" lon="-85.068757"><ele>237.1</ele><time>2026-08-02T20:09:11Z</time></trkpt>
<trkpt lat="35.062508" lon="-85.068773"><ele>236.5</ele><time>2026-08-02T20:09:14Z</time></trkpt>
<trkpt lat="35.062537" lon="-85.068775"><ele>235.9</ele><time>2026-08-02T20:09:16Z</time></trkpt>
<trkpt lat="35.062565" lon="-85.068783"><ele>235.3</ele><time>2026-08-02T20:09:18Z</time></trkpt>
<trkpt lat="35.062591" lon="-85.0688"><ele>235.3</ele><time>2026-08-02T20:09:20Z</time></trkpt>
<trkpt lat="35.062618" lon="-85.068815"><ele>235.3</ele><time>2026-08-02T20:09:22Z</time></trkpt>
<trkpt lat="35.062645" lon="-85.068826"><ele>235.6</ele><time>2026-08-02T20:09:24Z</time></trkpt>
<trkpt lat="35.062674" lon="-85.068832"><ele>235.3</ele><time>2026-08-02T20:09:26Z</time></trkpt>
<trkpt lat="35.062704" lon="-85.068834"><ele>236.5</ele><time>2026-08-02T20:09:28Z</time></trkpt>
<trkpt lat="35.062734" lon="-85.068838"><ele>237.1</ele><time>2026-08-02T20:09:30Z</time></trkpt>
<trkpt lat="35.062763" lon="-85.068844"><ele>236.8</ele><time>2026-08-02T20:09:32Z</time></trkpt>
<trkpt lat="35.062792" lon="-85.068845"><ele>236.2</ele><time>2026-08-02T20:09:34Z</time></trkpt>
<trkpt lat="35.062822" lon="-85.068861"><ele>235.6</ele><time>2026-08-02T20:09:36Z</time></trkpt>
<trkpt lat="35.062852" lon="-85.068866"><ele>235.3</ele><time>2026-08-02T20:09:38Z</time></trkpt>
<trkpt lat="35.06288" lon="-85.068876"><ele>235.0</ele><time>2026-08-02T20:09:40Z</time></trkpt>
<trkpt lat="35.062909" lon="-85.068885"><ele>234.7</ele><time>2026-08-02T20:09:42Z</time></trkpt>
<trkpt lat="35.062936" lon="-85.068895"><ele>235.0</ele><time>2026-08-02T20:09:44Z</time></trkpt>
<trkpt lat="35.062971" lon="-85.068917"><ele>234.7</ele><time>2026-08-02T20:09:47Z</time></trkpt>
<trkpt lat="35.062994" lon="-85.068938"><ele>235.0</ele><time>2026-08-02T20:09:49Z</time></trkpt>
<trkpt lat="35.063018" lon="-85.068964"><ele>235.3</ele><time>2026-08-02T20:09:51Z</time></trkpt>
<trkpt lat="35.063042" lon="-85.068984"><ele>234.7</ele><time>2026-08-02T20:09:53Z</time></trkpt>
<trkpt lat="35.06307" lon="-85.069003"><ele>235.6</ele><time>2026-08-02T20:09:55Z</time></trkpt>
<trkpt lat="35.063103" lon="-85.069014"><ele>235.0</ele><time>2026-08-02T20:09:57Z</time></trkpt>
<trkpt lat="35.063137" lon="-85.069021"><ele>235.6</ele><time>2026-08-02T20:09:59Z</time></trkpt>
<trkpt lat="35.063172" lon="-85.069022"><ele>235.9</ele><time>2026-08-02T20:10:01Z</time></trkpt>
<trkpt lat="35.063207" lon="-85.069023"><ele>235.6</ele><time>2026-08-02T20:10:03Z</time></trkpt>
<trkpt lat="35.063241" lon="-85.069019"><ele>235.3</ele><time>2026-08-02T20:10:05Z</time></trkpt>
<trkpt lat="35.063273" lon="-85.069023"><ele>235.0</ele><time>2026-08-02T20:10:07Z</time></trkpt>
<trkpt lat="35.063303" lon="-85.069035"><ele>235.0</ele><time>2026-08-02T20:10:09Z</time></trkpt>
<trkpt lat="35.063331" lon="-85.069051"><ele>235.3</ele><time>2026-08-02T20:10:11Z</time></trkpt>
<trkpt lat="35.063361" lon="-85.069056"><ele>235.3</ele><time>2026-08-02T20:10:13Z</time></trkpt>
<trkpt lat="35.063393" lon="-85.069051"><ele>235.0</ele><time>2026-08-02T20:10:15Z</time></trkpt>
<trkpt lat="35.063423" lon="-85.069033"><ele>235.0</ele><time>2026-08-02T20:10:17Z</time></trkpt>
<trkpt lat="35.063449" lon="-85.069011"><ele>235.0</ele><time>2026-08-02T20:10:19Z</time></trkpt>
<trkpt lat="35.063476" lon="-85.06899"><ele>234.4</ele><time>2026-08-02T20:10:21Z</time></trkpt>
<trkpt lat="35.063508" lon="-85.068977"><ele>234.1</ele><time>2026-08-02T20:10:23Z</time></trkpt>
<trkpt lat="35.063539" lon="-85.068971"><ele>234.4</ele><time>2026-08-02T20:10:25Z</time></trkpt>
<trkpt lat="35.063572" lon="-85.068971"><ele>234.4</ele><time>2026-08-02T20:10:27Z</time></trkpt>
<trkpt lat="35.063599" lon="-85.06899"><ele>234.7</ele><time>2026-08-02T20:10:29Z</time></trkpt>
<trkpt lat="35.0636" lon="-85.069033"><ele>234.7</ele><time>2026-08-02T20:10:31Z</time></trkpt>
<trkpt lat="35.063579" lon="-85.069061"><ele>234.1</ele><time>2026-08-02T20:10:33Z</time></trkpt>
<trkpt lat="35.063552" lon="-85.069081"><ele>234.1</ele><time>2026-08-02T20:10:35Z</time></trkpt>
<trkpt lat="35.063522" lon="-85.069097"><ele>233.5</ele><time>2026-08-02T20:10:37Z</time></trkpt>
<trkpt lat="35.063491" lon="-85.069111"><ele>233.5</ele><time>2026-08-02T20:10:39Z</time></trkpt>
<trkpt lat="35.063463" lon="-85.069131"><ele>233.8</ele><time>2026-08-02T20:10:41Z</time></trkpt>
<trkpt lat="35.063436" lon="-85.069148"><ele>234.7</ele><time>2026-08-02T20:10:43Z</time></trkpt>
<trkpt lat="35.063407" lon="-85.069161"><ele>234.7</ele><time>2026-08-02T20:10:45Z</time></trkpt>
<trkpt lat="35.063378" lon="-85.069175"><ele>235.3</ele><time>2026-08-02T20:10:47Z</time></trkpt>
<trkpt lat="35.06335" lon="-85.069193"><ele>235.3</ele><time>2026-08-02T20:10:49Z</time></trkpt>
<trkpt lat="35.063323" lon="-85.069213"><ele>235.3</ele><time>2026-08-02T20:10:51Z</time></trkpt>
<trkpt lat="35.063294" lon="-85.069228"><ele>235.6</ele><time>2026-08-02T20:10:53Z</time></trkpt>
<trkpt lat="35.063267" lon="-85.069244"><ele>235.9</ele><time>2026-08-02T20:10:55Z</time></trkpt>
<trkpt lat="35.06324" lon="-85.069261"><ele>235.6</ele><time>2026-08-02T20:10:57Z</time></trkpt>
<trkpt lat="35.063213" lon="-85.069275"><ele>235.9</ele><time>2026-08-02T20:10:59Z</time></trkpt>
<trkpt lat="35.063186" lon="-85.06929"><ele>236.2</ele><time>2026-08-02T20:11:01Z</time></trkpt>
<trkpt lat="35.063148" lon="-85.06931"><ele>237.1</ele><time>2026-08-02T20:11:04Z</time></trkpt>
<trkpt lat="35.063121" lon="-85.069327"><ele>237.4</ele><time>2026-08-02T20:11:06Z</time></trkpt>
<trkpt lat="35.063086" lon="-85.069352"><ele>238.0</ele><time>2026-08-02T20:11:09Z</time></trkpt>
<trkpt lat="35.063059" lon="-85.069369"><ele>238.4</ele><time>2026-08-02T20:11:11Z</time></trkpt>
<trkpt lat="35.063031" lon="-85.069384"><ele>238.7</ele><time>2026-08-02T20:11:13Z</time></trkpt>
<trkpt lat="35.063006" lon="-85.069403"><ele>238.4</ele><time>2026-08-02T20:11:15Z</time></trkpt>
<trkpt lat="35.062977" lon="-85.069418"><ele>238.7</ele><time>2026-08-02T20:11:17Z</time></trkpt>
<trkpt lat="35.062949" lon="-85.06943"><ele>238.7</ele><time>2026-08-02T20:11:19Z</time></trkpt>
<trkpt lat="35.062922" lon="-85.06944"><ele>238.4</ele><time>2026-08-02T20:11:21Z</time></trkpt>
<trkpt lat="35.062894" lon="-85.069449"><ele>238.4</ele><time>2026-08-02T20:11:23Z</time></trkpt>
<trkpt lat="35.062867" lon="-85.069459"><ele>239.0</ele><time>2026-08-02T20:11:25Z</time></trkpt>
<trkpt lat="35.062839" lon="-85.069471"><ele>239.6</ele><time>2026-08-02T20:11:27Z</time></trkpt>
<trkpt lat="35.062812" lon="-85.069482"><ele>239.9</ele><time>2026-08-02T20:11:29Z</time></trkpt>
<trkpt lat="35.062784" lon="-85.069498"><ele>239.9</ele><time>2026-08-02T20:11:31Z</time></trkpt>
<trkpt lat="35.062758" lon="-85.069516"><ele>239.6</ele><time>2026-08-02T20:11:33Z</time></trkpt>
<trkpt lat="35.062732" lon="-85.069535"><ele>239.9</ele><time>2026-08-02T20:11:35Z</time></trkpt>
<trkpt lat="35.062709" lon="-85.069556"><ele>239.9</ele><time>2026-08-02T20:11:37Z</time></trkpt>
<trkpt lat="35.062688" lon="-85.069581"><ele>240.2</ele><time>2026-08-02T20:11:39Z</time></trkpt>
<trkpt lat="35.062675" lon="-85.069615"><ele>240.5</ele><time>2026-08-02T20:11:41Z</time></trkpt>
<trkpt lat="35.062683" lon="-85.069656"><ele>239.9</ele><time>2026-08-02T20:11:43Z</time></trkpt>
<trkpt lat="35.062691" lon="-85.069694"><ele>239.6</ele><time>2026-08-02T20:11:45Z</time></trkpt>
<trkpt lat="35.062693" lon="-85.06973"><ele>239.3</ele><time>2026-08-02T20:11:47Z</time></trkpt>
<trkpt lat="35.062695" lon="-85.069766"><ele>238.7</ele><time>2026-08-02T20:11:49Z</time></trkpt>
<trkpt lat="35.062694" lon="-85.069802"><ele>238.7</ele><time>2026-08-02T20:11:51Z</time></trkpt>
<trkpt lat="35.062683" lon="-85.069834"><ele>238.0</ele><time>2026-08-02T20:11:53Z</time></trkpt>
<trkpt lat="35.062669" lon="-85.069865"><ele>238.0</ele><time>2026-08-02T20:11:55Z</time></trkpt>
<trkpt lat="35.062672" lon="-85.069901"><ele>237.4</ele><time>2026-08-02T20:11:57Z</time></trkpt>
<trkpt lat="35.062681" lon="-85.069939"><ele>237.1</ele><time>2026-08-02T20:11:59Z</time></trkpt>
<trkpt lat="35.062689" lon="-85.069976"><ele>236.8</ele><time>2026-08-02T20:12:01Z</time></trkpt>
<trkpt lat="35.062698" lon="-85.070012"><ele>236.5</ele><time>2026-08-02T20:12:03Z</time></trkpt>
<trkpt lat="35.062707" lon="-85.070047"><ele>236.5</ele><time>2026-08-02T20:12:05Z</time></trkpt>
<trkpt lat="35.062712" lon="-85.070083"><ele>236.5</ele><time>2026-08-02T20:12:07Z</time></trkpt>
<trkpt lat="35.062719" lon="-85.070119"><ele>236.2</ele><time>2026-08-02T20:12:09Z</time></trkpt>
<trkpt lat="35.062728" lon="-85.070154"><ele>236.2</ele><time>2026-08-02T20:12:11Z</time></trkpt>
<trkpt lat="35.062747" lon="-85.070179"><ele>236.2</ele><time>2026-08-02T20:12:13Z</time></trkpt>
<trkpt lat="35.062776" lon="-85.07018"><ele>236.2</ele><time>2026-08-02T20:12:15Z</time></trkpt>
<trkpt lat="35.062804" lon="-85.07017"><ele>236.5</ele><time>2026-08-02T20:12:17Z</time></trkpt>
<trkpt lat="35.06283" lon="-85.070161"><ele>236.5</ele><time>2026-08-02T20:12:19Z</time></trkpt>
<trkpt lat="35.062858" lon="-85.070148"><ele>236.8</ele><time>2026-08-02T20:12:21Z</time></trkpt>
<trkpt lat="35.062884" lon="-85.070129"><ele>236.2</ele><time>2026-08-02T20:12:23Z</time></trkpt>
<trkpt lat="35.062915" lon="-85.0701"><ele>236.5</ele><time>2026-08-02T20:12:26Z</time></trkpt>
<trkpt lat="35.062938" lon="-85.070079"><ele>236.5</ele><time>2026-08-02T20:12:28Z</time></trkpt>
<trkpt lat="35.062963" lon="-85.070061"><ele>236.5</ele><time>2026-08-02T20:12:30Z</time></trkpt>
<trkpt lat="35.062998" lon="-85.070056"><ele>236.5</ele><time>2026-08-02T20:12:33Z</time></trkpt>
<trkpt lat="35.063008" lon="-85.070091"><ele>235.3</ele><time>2026-08-02T20:12:35Z</time></trkpt>
<trkpt lat="35.062974" lon="-85.070122"><ele>235.0</ele><time>2026-08-02T20:12:37Z</time></trkpt>
<trkpt lat="35.062946" lon="-85.07013"><ele>235.0</ele><time>2026-08-02T20:12:39Z</time></trkpt>
<trkpt lat="35.062906" lon="-85.070141"><ele>234.4</ele><time>2026-08-02T20:12:42Z</time></trkpt>
<trkpt lat="35.062867" lon="-85.070154"><ele>234.7</ele><time>2026-08-02T20:12:45Z</time></trkpt>
<trkpt lat="35.062828" lon="-85.070169"><ele>235.3</ele><time>2026-08-02T20:12:48Z</time></trkpt>
<trkpt lat="35.0628" lon="-85.070177"><ele>235.6</ele><time>2026-08-02T20:12:50Z</time></trkpt>
<trkpt lat="35.062772" lon="-85.070182"><ele>235.3</ele><time>2026-08-02T20:12:52Z</time></trkpt>
<trkpt lat="35.062743" lon="-85.070174"><ele>235.0</ele><time>2026-08-02T20:12:54Z</time></trkpt>
<trkpt lat="35.062721" lon="-85.070149"><ele>235.3</ele><time>2026-08-02T20:12:56Z</time></trkpt>
<trkpt lat="35.062706" lon="-85.070115"><ele>235.3</ele><time>2026-08-02T20:12:58Z</time></trkpt>
<trkpt lat="35.062694" lon="-85.07008"><ele>235.0</ele><time>2026-08-02T20:13:00Z</time></trkpt>
<trkpt lat="35.062682" lon="-85.070044"><ele>234.7</ele><time>2026-08-02T20:13:02Z</time></trkpt>
<trkpt lat="35.062672" lon="-85.070006"><ele>234.7</ele><time>2026-08-02T20:13:04Z</time></trkpt>
<trkpt lat="35.062661" lon="-85.069968"><ele>234.7</ele><time>2026-08-02T20:13:06Z</time></trkpt>
<trkpt lat="35.062652" lon="-85.069932"><ele>234.7</ele><time>2026-08-02T20:13:08Z</time></trkpt>
<trkpt lat="35.062645" lon="-85.069897"><ele>234.4</ele><time>2026-08-02T20:13:10Z</time></trkpt>
<trkpt lat="35.06263" lon="-85.069866"><ele>234.4</ele><time>2026-08-02T20:13:12Z</time></trkpt>
<trkpt lat="35.062591" lon="-85.069869"><ele>234.4</ele><time>2026-08-02T20:13:15Z</time></trkpt>
<trkpt lat="35.062562" lon="-85.069845"><ele>234.1</ele><time>2026-08-02T20:13:18Z</time></trkpt>
<trkpt lat="35.062561" lon="-85.069842"><ele>234.1</ele><time>2026-08-02T20:13:19Z</time></trkpt>
<trkpt lat="35.062563" lon="-85.069845"><ele>233.8</ele><time>2026-08-02T20:13:20Z</time></trkpt>
<trkpt lat="35.062564" lon="-85.069846"><ele>233.8</ele><time>2026-08-02T20:13:24Z</time></trkpt>
<trkpt lat="35.062563" lon="-85.069847"><ele>233.8</ele><time>2026-08-02T20:13:25Z</time></trkpt>
<trkpt lat="35.062528" lon="-85.069867"><ele>232.9</ele><time>2026-08-02T20:13:28Z</time></trkpt>
<trkpt lat="35.062498" lon="-85.069879"><ele>233.2</ele><time>2026-08-02T20:13:30Z</time></trkpt>
<trkpt lat="35.062468" lon="-85.069886"><ele>233.5</ele><time>2026-08-02T20:13:32Z</time></trkpt>
<trkpt lat="35.062438" lon="-85.069894"><ele>233.2</ele><time>2026-08-02T20:13:34Z</time></trkpt>
<trkpt lat="35.06241" lon="-85.069903"><ele>233.5</ele><time>2026-08-02T20:13:36Z</time></trkpt>
<trkpt lat="35.062377" lon="-85.069926"><ele>232.0</ele><time>2026-08-02T20:13:39Z</time></trkpt>
<trkpt lat="35.062352" lon="-85.069946"><ele>232.3</ele><time>2026-08-02T20:13:41Z</time></trkpt>
<trkpt lat="35.062328" lon="-85.069966"><ele>232.9</ele><time>2026-08-02T20:13:43Z</time></trkpt>
<trkpt lat="35.062298" lon="-85.07"><ele>232.3</ele><time>2026-08-02T20:13:46Z</time></trkpt>
<trkpt lat="35.062275" lon="-85.070019"><ele>232.9</ele><time>2026-08-02T20:13:48Z</time></trkpt>
<trkpt lat="35.062241" lon="-85.070044"><ele>233.5</ele><time>2026-08-02T20:13:51Z</time></trkpt>
<trkpt lat="35.062205" lon="-85.070068"><ele>232.6</ele><time>2026-08-02T20:13:54Z</time></trkpt>
<trkpt lat="35.062181" lon="-85.070085"><ele>232.3</ele><time>2026-08-02T20:13:56Z</time></trkpt>
<trkpt lat="35.062154" lon="-85.0701"><ele>232.9</ele><time>2026-08-02T20:13:58Z</time></trkpt>
<trkpt lat="35.062124" lon="-85.070114"><ele>232.0</ele><time>2026-08-02T20:14:00Z</time></trkpt>
<trkpt lat="35.062093" lon="-85.070131"><ele>231.6</ele><time>2026-08-02T20:14:02Z</time></trkpt>
<trkpt lat="35.062064" lon="-85.070143"><ele>231.6</ele><time>2026-08-02T20:14:04Z</time></trkpt>
<trkpt lat="35.062037" lon="-85.070152"><ele>232.3</ele><time>2026-08-02T20:14:06Z</time></trkpt>
<trkpt lat="35.062009" lon="-85.070155"><ele>233.2</ele><time>2026-08-02T20:14:08Z</time></trkpt>
<trkpt lat="35.06198" lon="-85.070152"><ele>232.6</ele><time>2026-08-02T20:14:10Z</time></trkpt>
<trkpt lat="35.061941" lon="-85.070145"><ele>231.6</ele><time>2026-08-02T20:14:13Z</time></trkpt>
<trkpt lat="35.061912" lon="-85.070142"><ele>231.6</ele><time>2026-08-02T20:14:15Z</time></trkpt>
<trkpt lat="35.061882" lon="-85.070141"><ele>231.6</ele><time>2026-08-02T20:14:17Z</time></trkpt>
<trkpt lat="35.061853" lon="-85.070145"><ele>232.6</ele><time>2026-08-02T20:14:19Z</time></trkpt>
<trkpt lat="35.061812" lon="-85.07015"><ele>232.9</ele><time>2026-08-02T20:14:22Z</time></trkpt>
<trkpt lat="35.061783" lon="-85.07016"><ele>232.9</ele><time>2026-08-02T20:14:24Z</time></trkpt>
<trkpt lat="35.061754" lon="-85.070167"><ele>232.9</ele><time>2026-08-02T20:14:26Z</time></trkpt>
<trkpt lat="35.061716" lon="-85.070178"><ele>232.6</ele><time>2026-08-02T20:14:29Z</time></trkpt>
<trkpt lat="35.061677" lon="-85.070191"><ele>232.3</ele><time>2026-08-02T20:14:32Z</time></trkpt>
<trkpt lat="35.06165" lon="-85.070197"><ele>232.3</ele><time>2026-08-02T20:14:34Z</time></trkpt>
<trkpt lat="35.061619" lon="-85.070197"><ele>232.3</ele><time>2026-08-02T20:14:36Z</time></trkpt>
<trkpt lat="35.061587" lon="-85.070196"><ele>233.2</ele><time>2026-08-02T20:14:38Z</time></trkpt>
<trkpt lat="35.061558" lon="-85.070194"><ele>232.9</ele><time>2026-08-02T20:14:40Z</time></trkpt>
<trkpt lat="35.061517" lon="-85.070187"><ele>232.9</ele><time>2026-08-02T20:14:43Z</time></trkpt>
<trkpt lat="35.061488" lon="-85.070191"><ele>232.6</ele><time>2026-08-02T20:14:45Z</time></trkpt>
<trkpt lat="35.061458" lon="-85.070192"><ele>232.9</ele><time>2026-08-02T20:14:47Z</time></trkpt>
<trkpt lat="35.06143" lon="-85.070192"><ele>232.9</ele><time>2026-08-02T20:14:49Z</time></trkpt>
<trkpt lat="35.061401" lon="-85.070192"><ele>232.3</ele><time>2026-08-02T20:14:51Z</time></trkpt>
<trkpt lat="35.061372" lon="-85.070199"><ele>232.3</ele><time>2026-08-02T20:14:53Z</time></trkpt>
<trkpt lat="35.061341" lon="-85.070201"><ele>232.3</ele><time>2026-08-02T20:14:55Z</time></trkpt>
<trkpt lat="35.061313" lon="-85.070202"><ele>232.3</ele><time>2026-08-02T20:14:57Z</time></trkpt>
<trkpt lat="35.061283" lon="-85.070209"><ele>232.0</ele><time>2026-08-02T20:14:59Z</time></trkpt>
<trkpt lat="35.06125" lon="-85.07021"><ele>232.0</ele><time>2026-08-02T20:15:01Z</time></trkpt>
<trkpt lat="35.061221" lon="-85.070209"><ele>231.6</ele><time>2026-08-02T20:15:03Z</time></trkpt>
<trkpt lat="35.061192" lon="-85.070211"><ele>231.3</ele><time>2026-08-02T20:15:05Z</time></trkpt>
<trkpt lat="35.061161" lon="-85.070212"><ele>231.3</ele><time>2026-08-02T20:15:07Z</time></trkpt>
<trkpt lat="35.061133" lon="-85.07021"><ele>231.3</ele><time>2026-08-02T20:15:09Z</time></trkpt>
<trkpt lat="35.061105" lon="-85.070203"><ele>231.6</ele><time>2026-08-02T20:15:11Z</time></trkpt>
<trkpt lat="35.061077" lon="-85.070202"><ele>231.0</ele><time>2026-08-02T20:15:13Z</time></trkpt>
<trkpt lat="35.061048" lon="-85.070196"><ele>230.7</ele><time>2026-08-02T20:15:15Z</time></trkpt>
<trkpt lat="35.061019" lon="-85.070196"><ele>230.7</ele><time>2026-08-02T20:15:17Z</time></trkpt>
<trkpt lat="35.06099" lon="-85.070195"><ele>230.4</ele><time>2026-08-02T20:15:19Z</time></trkpt>
<trkpt lat="35.06096" lon="-85.070191"><ele>231.0</ele><time>2026-08-02T20:15:21Z</time></trkpt>
<trkpt lat="35.060932" lon="-85.070188"><ele>231.6</ele><time>2026-08-02T20:15:23Z</time></trkpt>
<trkpt lat="35.060902" lon="-85.070189"><ele>232.6</ele><time>2026-08-02T20:15:25Z</time></trkpt>
<trkpt lat="35.060872" lon="-85.07019"><ele>233.5</ele><time>2026-08-02T20:15:27Z</time></trkpt>
<trkpt lat="35.060837" lon="-85.070198"><ele>233.5</ele><time>2026-08-02T20:15:29Z</time></trkpt>
<trkpt lat="35.060803" lon="-85.070221"><ele>233.8</ele><time>2026-08-02T20:15:32Z</time></trkpt>
<trkpt lat="35.060772" lon="-85.070251"><ele>232.6</ele><time>2026-08-02T20:15:35Z</time></trkpt>
<trkpt lat="35.060734" lon="-85.070264"><ele>232.3</ele><time>2026-08-02T20:15:38Z</time></trkpt>
<trkpt lat="35.060705" lon="-85.070262"><ele>232.3</ele><time>2026-08-02T20:15:40Z</time></trkpt>
<trkpt lat="35.060676" lon="-85.070253"><ele>233.2</ele><time>2026-08-02T20:15:42Z</time></trkpt>
<trkpt lat="35.060649" lon="-85.070248"><ele>232.9</ele><time>2026-08-02T20:15:44Z</time></trkpt>
<trkpt lat="35.060608" lon="-85.070245"><ele>233.5</ele><time>2026-08-02T20:15:47Z</time></trkpt>
<trkpt lat="35.060567" lon="-85.070248"><ele>232.9</ele><time>2026-08-02T20:15:50Z</time></trkpt>
<trkpt lat="35.060528" lon="-85.070257"><ele>233.5</ele><time>2026-08-02T20:15:53Z</time></trkpt>
<trkpt lat="35.06049" lon="-85.070265"><ele>233.5</ele><time>2026-08-02T20:15:56Z</time></trkpt>
<trkpt lat="35.060462" lon="-85.070261"><ele>234.1</ele><time>2026-08-02T20:15:58Z</time></trkpt>
<trkpt lat="35.060432" lon="-85.070257"><ele>233.5</ele><time>2026-08-02T20:16:00Z</time></trkpt>
<trkpt lat="35.060403" lon="-85.070255"><ele>233.5</ele><time>2026-08-02T20:16:02Z</time></trkpt>
<trkpt lat="35.060365" lon="-85.070259"><ele>233.5</ele><time>2026-08-02T20:16:05Z</time></trkpt>
<trkpt lat="35.06036" lon="-85.070306"><ele>233.8</ele><time>2026-08-02T20:16:08Z</time></trkpt>
<trkpt lat="35.060379" lon="-85.070332"><ele>233.8</ele><time>2026-08-02T20:16:10Z</time></trkpt>
<trkpt lat="35.060399" lon="-85.070361"><ele>234.1</ele><time>2026-08-02T20:16:12Z</time></trkpt>
<trkpt lat="35.060405" lon="-85.070404"><ele>234.1</ele><time>2026-08-02T20:16:15Z</time></trkpt>
<trkpt lat="35.06039" lon="-85.070436"><ele>234.1</ele><time>2026-08-02T20:16:17Z</time></trkpt>
<trkpt lat="35.060369" lon="-85.070482"><ele>234.1</ele><time>2026-08-02T20:16:20Z</time></trkpt>
<trkpt lat="35.060342" lon="-85.070504"><ele>234.7</ele><time>2026-08-02T20:16:22Z</time></trkpt>
<trkpt lat="35.06032" lon="-85.07053"><ele>235.0</ele><time>2026-08-02T20:16:24Z</time></trkpt>
<trkpt lat="35.0603" lon="-85.070562"><ele>235.0</ele><time>2026-08-02T20:16:26Z</time></trkpt>
<trkpt lat="35.060283" lon="-85.070599"><ele>235.3</ele><time>2026-08-02T20:16:28Z</time></trkpt>
<trkpt lat="35.060266" lon="-85.070628"><ele>235.3</ele><time>2026-08-02T20:16:30Z</time></trkpt>
</trkseg></trk></gpx>